<?xml version="1.0" encoding="UTF-8" standalone="no" ?>
<gpx xmlns="http://www.topografix.com/GPX/1/1" xmlns:xsi="http://www.w3.org/2001/XMLSchema-instance" xsi:schemaLocation="http://www.topografix.com/GPX/1/1 http://www.topografix.com/GPX/1/1/gpx.xsd" version="1.1" creator="VisuGPX - https://www.visugpx.com">
  <metadata>
    <name>VTT Rébénacq</name>
    <desc><![CDATA[Boucle à partir de Rébénacq via Bescat et Sévignac.]]></desc>
  </metadata>
  <trk>
    <name><![CDATA[VTT Rébénacq_1]]></name>
    <trkseg>
      <trkpt lat="43.16032" lon="-0.39622">
        <ele>295</ele>
        <time>2021-10-07T08:05:28.999Z</time>
      </trkpt>
      <trkpt lat="43.16032" lon="-0.39622">
        <ele>295</ele>
        <time>2021-10-07T08:05:32.999Z</time>
      </trkpt>
      <trkpt lat="43.15984" lon="-0.39637">
        <ele>293</ele>
        <time>2021-10-07T08:39:09.999Z</time>
      </trkpt>
      <trkpt lat="43.15971" lon="-0.39638">
        <ele>293</ele>
        <time>2021-10-07T08:43:52.999Z</time>
      </trkpt>
      <trkpt lat="43.15963" lon="-0.39625">
        <ele>293</ele>
        <time>2021-10-07T08:43:57.999Z</time>
      </trkpt>
      <trkpt lat="43.15956" lon="-0.39614">
        <ele>296</ele>
        <time>2021-10-07T08:44:01.999Z</time>
      </trkpt>
      <trkpt lat="43.15945" lon="-0.39619">
        <ele>296</ele>
        <time>2021-10-07T08:44:06.999Z</time>
      </trkpt>
      <trkpt lat="43.1593" lon="-0.3963">
        <ele>294</ele>
        <time>2021-10-07T08:44:11.999Z</time>
      </trkpt>
      <trkpt lat="43.15915" lon="-0.39635">
        <ele>294</ele>
        <time>2021-10-07T08:44:16.999Z</time>
      </trkpt>
      <trkpt lat="43.15904" lon="-0.39654">
        <ele>293</ele>
        <time>2021-10-07T08:44:21.999Z</time>
      </trkpt>
      <trkpt lat="43.15897" lon="-0.39667">
        <ele>295</ele>
        <time>2021-10-07T08:44:25.999Z</time>
      </trkpt>
      <trkpt lat="43.15883" lon="-0.39681">
        <ele>295</ele>
        <time>2021-10-07T08:44:30.999Z</time>
      </trkpt>
      <trkpt lat="43.15868" lon="-0.39684">
        <ele>298</ele>
        <time>2021-10-07T08:44:34.999Z</time>
      </trkpt>
      <trkpt lat="43.15849" lon="-0.39686">
        <ele>298</ele>
        <time>2021-10-07T08:44:38.999Z</time>
      </trkpt>
      <trkpt lat="43.15832" lon="-0.39689">
        <ele>300</ele>
        <time>2021-10-07T08:44:43.999Z</time>
      </trkpt>
      <trkpt lat="43.15831" lon="-0.39688">
        <ele>300</ele>
        <time>2021-10-07T08:44:48.999Z</time>
      </trkpt>
      <trkpt lat="43.15829" lon="-0.39688">
        <ele>300</ele>
        <time>2021-10-07T08:44:52.999Z</time>
      </trkpt>
      <trkpt lat="43.1582" lon="-0.39689">
        <ele>300</ele>
        <time>2021-10-07T08:44:57.999Z</time>
      </trkpt>
      <trkpt lat="43.15802" lon="-0.39691">
        <ele>300</ele>
        <time>2021-10-07T08:45:01.999Z</time>
      </trkpt>
      <trkpt lat="43.15795" lon="-0.39683">
        <ele>300</ele>
        <time>2021-10-07T08:45:06.999Z</time>
      </trkpt>
      <trkpt lat="43.15785" lon="-0.39676">
        <ele>303</ele>
        <time>2021-10-07T08:45:10.999Z</time>
      </trkpt>
      <trkpt lat="43.158" lon="-0.39683">
        <ele>300</ele>
        <time>2021-10-07T08:45:15.999Z</time>
      </trkpt>
      <trkpt lat="43.15823" lon="-0.39703">
        <ele>300</ele>
        <time>2021-10-07T08:45:20.999Z</time>
      </trkpt>
      <trkpt lat="43.15835" lon="-0.39715">
        <ele>299</ele>
        <time>2021-10-07T08:45:25.999Z</time>
      </trkpt>
      <trkpt lat="43.15851" lon="-0.39727">
        <ele>297</ele>
        <time>2021-10-07T08:45:30.999Z</time>
      </trkpt>
      <trkpt lat="43.15855" lon="-0.39741">
        <ele>296</ele>
        <time>2021-10-07T08:45:34.999Z</time>
      </trkpt>
      <trkpt lat="43.15845" lon="-0.39763">
        <ele>297</ele>
        <time>2021-10-07T08:45:39.999Z</time>
      </trkpt>
      <trkpt lat="43.15834" lon="-0.39795">
        <ele>295</ele>
        <time>2021-10-07T08:45:43.999Z</time>
      </trkpt>
      <trkpt lat="43.15834" lon="-0.39816">
        <ele>295</ele>
        <time>2021-10-07T08:45:48.999Z</time>
      </trkpt>
      <trkpt lat="43.15837" lon="-0.39827">
        <ele>294</ele>
        <time>2021-10-07T08:45:53.999Z</time>
      </trkpt>
      <trkpt lat="43.15843" lon="-0.39844">
        <ele>294</ele>
        <time>2021-10-07T08:45:58.999Z</time>
      </trkpt>
      <trkpt lat="43.15849" lon="-0.39862">
        <ele>292</ele>
        <time>2021-10-07T08:46:03.999Z</time>
      </trkpt>
      <trkpt lat="43.15844" lon="-0.39876">
        <ele>292</ele>
        <time>2021-10-07T08:46:08.999Z</time>
      </trkpt>
      <trkpt lat="43.15835" lon="-0.39894">
        <ele>292</ele>
        <time>2021-10-07T08:46:13.999Z</time>
      </trkpt>
      <trkpt lat="43.15827" lon="-0.39907">
        <ele>292</ele>
        <time>2021-10-07T08:46:18.999Z</time>
      </trkpt>
      <trkpt lat="43.15815" lon="-0.39923">
        <ele>293</ele>
        <time>2021-10-07T08:46:23.999Z</time>
      </trkpt>
      <trkpt lat="43.15808" lon="-0.39945">
        <ele>293</ele>
        <time>2021-10-07T08:46:28.999Z</time>
      </trkpt>
      <trkpt lat="43.15795" lon="-0.39966">
        <ele>293</ele>
        <time>2021-10-07T08:46:32.999Z</time>
      </trkpt>
      <trkpt lat="43.1578" lon="-0.39983">
        <ele>295</ele>
        <time>2021-10-07T08:46:37.999Z</time>
      </trkpt>
      <trkpt lat="43.15766" lon="-0.40001">
        <ele>294</ele>
        <time>2021-10-07T08:46:42.999Z</time>
      </trkpt>
      <trkpt lat="43.15753" lon="-0.4002">
        <ele>296</ele>
        <time>2021-10-07T08:46:46.999Z</time>
      </trkpt>
      <trkpt lat="43.1574" lon="-0.40025">
        <ele>296</ele>
        <time>2021-10-07T08:46:51.999Z</time>
      </trkpt>
      <trkpt lat="43.15727" lon="-0.40031">
        <ele>300</ele>
        <time>2021-10-07T08:46:55.999Z</time>
      </trkpt>
      <trkpt lat="43.15717" lon="-0.40042">
        <ele>300</ele>
        <time>2021-10-07T08:47:00.999Z</time>
      </trkpt>
      <trkpt lat="43.15709" lon="-0.40059">
        <ele>300</ele>
        <time>2021-10-07T08:47:05.999Z</time>
      </trkpt>
      <trkpt lat="43.15702" lon="-0.4008">
        <ele>307</ele>
        <time>2021-10-07T08:47:10.999Z</time>
      </trkpt>
      <trkpt lat="43.15696" lon="-0.40102">
        <ele>304</ele>
        <time>2021-10-07T08:47:15.999Z</time>
      </trkpt>
      <trkpt lat="43.15687" lon="-0.4013">
        <ele>301</ele>
        <time>2021-10-07T08:47:20.999Z</time>
      </trkpt>
      <trkpt lat="43.1569" lon="-0.40137">
        <ele>301</ele>
        <time>2021-10-07T08:47:25.999Z</time>
      </trkpt>
      <trkpt lat="43.1569" lon="-0.40137">
        <ele>301</ele>
        <time>2021-10-07T08:47:30.999Z</time>
      </trkpt>
      <trkpt lat="43.1569" lon="-0.40137">
        <ele>301</ele>
        <time>2021-10-07T08:47:34.999Z</time>
      </trkpt>
      <trkpt lat="43.1569" lon="-0.40136">
        <ele>301</ele>
        <time>2021-10-07T08:47:39.999Z</time>
      </trkpt>
      <trkpt lat="43.15694" lon="-0.40125">
        <ele>304</ele>
        <time>2021-10-07T08:47:44.999Z</time>
      </trkpt>
      <trkpt lat="43.15698" lon="-0.40113">
        <ele>304</ele>
        <time>2021-10-07T08:47:49.999Z</time>
      </trkpt>
      <trkpt lat="43.15712" lon="-0.40088">
        <ele>299</ele>
        <time>2021-10-07T08:47:53.999Z</time>
      </trkpt>
      <trkpt lat="43.15717" lon="-0.40071">
        <ele>299</ele>
        <time>2021-10-07T08:47:59Z</time>
      </trkpt>
      <trkpt lat="43.15718" lon="-0.40066">
        <ele>300</ele>
        <time>2021-10-07T08:49:26.999Z</time>
      </trkpt>
      <trkpt lat="43.15718" lon="-0.40068">
        <ele>300</ele>
        <time>2021-10-07T08:49:31.999Z</time>
      </trkpt>
      <trkpt lat="43.15719" lon="-0.40068">
        <ele>300</ele>
        <time>2021-10-07T08:49:36.996Z</time>
      </trkpt>
      <trkpt lat="43.15719" lon="-0.40066">
        <ele>300</ele>
        <time>2021-10-07T08:49:40.999Z</time>
      </trkpt>
      <trkpt lat="43.15721" lon="-0.40061">
        <ele>300</ele>
        <time>2021-10-07T08:49:45.999Z</time>
      </trkpt>
      <trkpt lat="43.15729" lon="-0.40044">
        <ele>300</ele>
        <time>2021-10-07T08:49:49.999Z</time>
      </trkpt>
      <trkpt lat="43.15737" lon="-0.40028">
        <ele>296</ele>
        <time>2021-10-07T08:49:54.999Z</time>
      </trkpt>
      <trkpt lat="43.15737" lon="-0.40018">
        <ele>296</ele>
        <time>2021-10-07T08:49:59.999Z</time>
      </trkpt>
      <trkpt lat="43.15725" lon="-0.4003">
        <ele>300</ele>
        <time>2021-10-07T08:50:04.999Z</time>
      </trkpt>
      <trkpt lat="43.15717" lon="-0.40043">
        <ele>300</ele>
        <time>2021-10-07T08:51:04.999Z</time>
      </trkpt>
      <trkpt lat="43.15706" lon="-0.40058">
        <ele>306</ele>
        <time>2021-10-07T08:51:09.999Z</time>
      </trkpt>
      <trkpt lat="43.15699" lon="-0.40086">
        <ele>307</ele>
        <time>2021-10-07T08:51:14.999Z</time>
      </trkpt>
      <trkpt lat="43.1569" lon="-0.40115">
        <ele>304</ele>
        <time>2021-10-07T08:51:19.999Z</time>
      </trkpt>
      <trkpt lat="43.15682" lon="-0.40151">
        <ele>301</ele>
        <time>2021-10-07T08:51:24.999Z</time>
      </trkpt>
      <trkpt lat="43.15675" lon="-0.40183">
        <ele>298</ele>
        <time>2021-10-07T08:51:29.999Z</time>
      </trkpt>
      <trkpt lat="43.1567" lon="-0.40218">
        <ele>298</ele>
        <time>2021-10-07T08:51:34.999Z</time>
      </trkpt>
      <trkpt lat="43.15663" lon="-0.40253">
        <ele>298</ele>
        <time>2021-10-07T08:51:39.999Z</time>
      </trkpt>
      <trkpt lat="43.15658" lon="-0.40271">
        <ele>299</ele>
        <time>2021-10-07T08:51:44.999Z</time>
      </trkpt>
      <trkpt lat="43.15651" lon="-0.40299">
        <ele>302</ele>
        <time>2021-10-07T08:51:49.999Z</time>
      </trkpt>
      <trkpt lat="43.15648" lon="-0.40328">
        <ele>302</ele>
        <time>2021-10-07T08:51:54.999Z</time>
      </trkpt>
      <trkpt lat="43.15642" lon="-0.40352">
        <ele>302</ele>
        <time>2021-10-07T08:51:59.999Z</time>
      </trkpt>
      <trkpt lat="43.15637" lon="-0.40384">
        <ele>302</ele>
        <time>2021-10-07T08:52:04.999Z</time>
      </trkpt>
      <trkpt lat="43.15637" lon="-0.40415">
        <ele>302</ele>
        <time>2021-10-07T08:52:09.999Z</time>
      </trkpt>
      <trkpt lat="43.15634" lon="-0.40452">
        <ele>304</ele>
        <time>2021-10-07T08:52:14.999Z</time>
      </trkpt>
      <trkpt lat="43.15621" lon="-0.40483">
        <ele>302</ele>
        <time>2021-10-07T08:52:19.999Z</time>
      </trkpt>
      <trkpt lat="43.15601" lon="-0.4051">
        <ele>300</ele>
        <time>2021-10-07T08:52:24.999Z</time>
      </trkpt>
      <trkpt lat="43.15569" lon="-0.4053">
        <ele>302</ele>
        <time>2021-10-07T08:52:29.999Z</time>
      </trkpt>
      <trkpt lat="43.15562" lon="-0.40533">
        <ele>302</ele>
        <time>2021-10-07T08:52:34.999Z</time>
      </trkpt>
      <trkpt lat="43.15549" lon="-0.40535">
        <ele>302</ele>
        <time>2021-10-07T08:52:38.999Z</time>
      </trkpt>
      <trkpt lat="43.15534" lon="-0.40539">
        <ele>305</ele>
        <time>2021-10-07T08:52:43.999Z</time>
      </trkpt>
      <trkpt lat="43.15515" lon="-0.40546">
        <ele>302</ele>
        <time>2021-10-07T08:52:48.999Z</time>
      </trkpt>
      <trkpt lat="43.15499" lon="-0.4055">
        <ele>303</ele>
        <time>2021-10-07T08:52:53.997Z</time>
      </trkpt>
      <trkpt lat="43.15499" lon="-0.4055">
        <ele>303</ele>
        <time>2021-10-07T08:52:58.999Z</time>
      </trkpt>
      <trkpt lat="43.15498" lon="-0.4055">
        <ele>303</ele>
        <time>2021-10-07T08:53:03.999Z</time>
      </trkpt>
      <trkpt lat="43.15498" lon="-0.4055">
        <ele>303</ele>
        <time>2021-10-07T08:53:18.999Z</time>
      </trkpt>
      <trkpt lat="43.15488" lon="-0.40547">
        <ele>303</ele>
        <time>2021-10-07T08:53:23.999Z</time>
      </trkpt>
      <trkpt lat="43.15467" lon="-0.40533">
        <ele>305</ele>
        <time>2021-10-07T08:53:27.999Z</time>
      </trkpt>
      <trkpt lat="43.15456" lon="-0.40516">
        <ele>304</ele>
        <time>2021-10-07T08:53:32.999Z</time>
      </trkpt>
      <trkpt lat="43.1544" lon="-0.40494">
        <ele>306</ele>
        <time>2021-10-07T08:53:37.999Z</time>
      </trkpt>
      <trkpt lat="43.15421" lon="-0.40478">
        <ele>310</ele>
        <time>2021-10-07T08:53:56.999Z</time>
      </trkpt>
      <trkpt lat="43.15405" lon="-0.40468">
        <ele>310</ele>
        <time>2021-10-07T08:54:01.999Z</time>
      </trkpt>
      <trkpt lat="43.15377" lon="-0.40461">
        <ele>307</ele>
        <time>2021-10-07T08:54:05.999Z</time>
      </trkpt>
      <trkpt lat="43.15353" lon="-0.40455">
        <ele>314</ele>
        <time>2021-10-07T08:54:10.999Z</time>
      </trkpt>
      <trkpt lat="43.15331" lon="-0.40448">
        <ele>313</ele>
        <time>2021-10-07T08:54:15.999Z</time>
      </trkpt>
      <trkpt lat="43.15304" lon="-0.40443">
        <ele>311</ele>
        <time>2021-10-07T08:54:20.999Z</time>
      </trkpt>
      <trkpt lat="43.15276" lon="-0.40433">
        <ele>308</ele>
        <time>2021-10-07T08:54:24.999Z</time>
      </trkpt>
      <trkpt lat="43.15251" lon="-0.40422">
        <ele>312</ele>
        <time>2021-10-07T08:54:29.999Z</time>
      </trkpt>
      <trkpt lat="43.15228" lon="-0.40405">
        <ele>312</ele>
        <time>2021-10-07T08:54:34.999Z</time>
      </trkpt>
      <trkpt lat="43.15201" lon="-0.40393">
        <ele>322</ele>
        <time>2021-10-07T08:54:38.999Z</time>
      </trkpt>
      <trkpt lat="43.15176" lon="-0.404">
        <ele>319</ele>
        <time>2021-10-07T08:54:43.999Z</time>
      </trkpt>
      <trkpt lat="43.15162" lon="-0.40406">
        <ele>313</ele>
        <time>2021-10-07T08:54:48.999Z</time>
      </trkpt>
      <trkpt lat="43.15161" lon="-0.40408">
        <ele>313</ele>
        <time>2021-10-07T08:54:53.999Z</time>
      </trkpt>
      <trkpt lat="43.15148" lon="-0.4042">
        <ele>312</ele>
        <time>2021-10-07T08:54:58.999Z</time>
      </trkpt>
      <trkpt lat="43.15145" lon="-0.40432">
        <ele>313</ele>
        <time>2021-10-07T08:55:03.999Z</time>
      </trkpt>
      <trkpt lat="43.15164" lon="-0.40436">
        <ele>311</ele>
        <time>2021-10-07T08:55:07.999Z</time>
      </trkpt>
      <trkpt lat="43.15183" lon="-0.40434">
        <ele>312</ele>
        <time>2021-10-07T08:55:11.999Z</time>
      </trkpt>
      <trkpt lat="43.15192" lon="-0.40435">
        <ele>312</ele>
        <time>2021-10-07T08:55:16.999Z</time>
      </trkpt>
      <trkpt lat="43.15207" lon="-0.40443">
        <ele>312</ele>
        <time>2021-10-07T08:55:21.998Z</time>
      </trkpt>
      <trkpt lat="43.15225" lon="-0.40454">
        <ele>311</ele>
        <time>2021-10-07T08:55:26.999Z</time>
      </trkpt>
      <trkpt lat="43.15246" lon="-0.4047">
        <ele>311</ele>
        <time>2021-10-07T08:55:30.999Z</time>
      </trkpt>
      <trkpt lat="43.15268" lon="-0.40486">
        <ele>308</ele>
        <time>2021-10-07T08:55:35.999Z</time>
      </trkpt>
      <trkpt lat="43.15292" lon="-0.40502">
        <ele>309</ele>
        <time>2021-10-07T08:55:39.999Z</time>
      </trkpt>
      <trkpt lat="43.15311" lon="-0.40515">
        <ele>316</ele>
        <time>2021-10-07T08:55:44.999Z</time>
      </trkpt>
      <trkpt lat="43.15333" lon="-0.40529">
        <ele>309</ele>
        <time>2021-10-07T08:55:48.999Z</time>
      </trkpt>
      <trkpt lat="43.15355" lon="-0.40541">
        <ele>307</ele>
        <time>2021-10-07T08:56:07.996Z</time>
      </trkpt>
      <trkpt lat="43.15378" lon="-0.4056">
        <ele>310</ele>
        <time>2021-10-07T08:56:12.999Z</time>
      </trkpt>
      <trkpt lat="43.15406" lon="-0.40577">
        <ele>313</ele>
        <time>2021-10-07T08:56:16.999Z</time>
      </trkpt>
      <trkpt lat="43.15428" lon="-0.4059">
        <ele>313</ele>
        <time>2021-10-07T08:56:21.999Z</time>
      </trkpt>
      <trkpt lat="43.15447" lon="-0.40605">
        <ele>312</ele>
        <time>2021-10-07T08:56:26.999Z</time>
      </trkpt>
      <trkpt lat="43.15475" lon="-0.40623">
        <ele>308</ele>
        <time>2021-10-07T08:56:31.999Z</time>
      </trkpt>
      <trkpt lat="43.15509" lon="-0.40632">
        <ele>309</ele>
        <time>2021-10-07T08:56:35.999Z</time>
      </trkpt>
      <trkpt lat="43.15535" lon="-0.40638">
        <ele>306</ele>
        <time>2021-10-07T08:56:40.997Z</time>
      </trkpt>
      <trkpt lat="43.15558" lon="-0.40634">
        <ele>304</ele>
        <time>2021-10-07T08:56:44.999Z</time>
      </trkpt>
      <trkpt lat="43.15575" lon="-0.40629">
        <ele>304</ele>
        <time>2021-10-07T08:56:49.999Z</time>
      </trkpt>
      <trkpt lat="43.1558" lon="-0.40639">
        <ele>304</ele>
        <time>2021-10-07T08:56:54.999Z</time>
      </trkpt>
      <trkpt lat="43.15579" lon="-0.40656">
        <ele>305</ele>
        <time>2021-10-07T08:56:58.999Z</time>
      </trkpt>
      <trkpt lat="43.15569" lon="-0.40687">
        <ele>310</ele>
        <time>2021-10-07T08:57:02.999Z</time>
      </trkpt>
      <trkpt lat="43.15567" lon="-0.40713">
        <ele>315</ele>
        <time>2021-10-07T08:57:07.999Z</time>
      </trkpt>
      <trkpt lat="43.15573" lon="-0.40732">
        <ele>310</ele>
        <time>2021-10-07T08:57:12.999Z</time>
      </trkpt>
      <trkpt lat="43.15579" lon="-0.40759">
        <ele>312</ele>
        <time>2021-10-07T08:57:17.999Z</time>
      </trkpt>
      <trkpt lat="43.15571" lon="-0.40786">
        <ele>315</ele>
        <time>2021-10-07T08:57:22.997Z</time>
      </trkpt>
      <trkpt lat="43.15562" lon="-0.40807">
        <ele>324</ele>
        <time>2021-10-07T08:57:26.999Z</time>
      </trkpt>
      <trkpt lat="43.15564" lon="-0.40821">
        <ele>323</ele>
        <time>2021-10-07T08:57:31.999Z</time>
      </trkpt>
      <trkpt lat="43.15564" lon="-0.40839">
        <ele>323</ele>
        <time>2021-10-07T08:57:35.999Z</time>
      </trkpt>
      <trkpt lat="43.15561" lon="-0.40854">
        <ele>320</ele>
        <time>2021-10-07T08:57:40.999Z</time>
      </trkpt>
      <trkpt lat="43.15559" lon="-0.40875">
        <ele>320</ele>
        <time>2021-10-07T08:57:45.999Z</time>
      </trkpt>
      <trkpt lat="43.15558" lon="-0.40895">
        <ele>320</ele>
        <time>2021-10-07T08:57:49.999Z</time>
      </trkpt>
      <trkpt lat="43.15557" lon="-0.40915">
        <ele>321</ele>
        <time>2021-10-07T08:57:54.999Z</time>
      </trkpt>
      <trkpt lat="43.15557" lon="-0.40932">
        <ele>321</ele>
        <time>2021-10-07T08:57:59.999Z</time>
      </trkpt>
      <trkpt lat="43.15556" lon="-0.40947">
        <ele>321</ele>
        <time>2021-10-07T08:58:04.999Z</time>
      </trkpt>
      <trkpt lat="43.15547" lon="-0.40965">
        <ele>319</ele>
        <time>2021-10-07T08:58:08.999Z</time>
      </trkpt>
      <trkpt lat="43.15539" lon="-0.4098">
        <ele>332</ele>
        <time>2021-10-07T08:58:13.999Z</time>
      </trkpt>
      <trkpt lat="43.15531" lon="-0.40995">
        <ele>328</ele>
        <time>2021-10-07T08:58:17.999Z</time>
      </trkpt>
      <trkpt lat="43.15524" lon="-0.4101">
        <ele>328</ele>
        <time>2021-10-07T08:58:22.999Z</time>
      </trkpt>
      <trkpt lat="43.15518" lon="-0.41022">
        <ele>327</ele>
        <time>2021-10-07T08:58:27.999Z</time>
      </trkpt>
      <trkpt lat="43.1551" lon="-0.41038">
        <ele>335</ele>
        <time>2021-10-07T08:58:32.999Z</time>
      </trkpt>
      <trkpt lat="43.15504" lon="-0.41054">
        <ele>333</ele>
        <time>2021-10-07T08:58:37.999Z</time>
      </trkpt>
      <trkpt lat="43.15498" lon="-0.41074">
        <ele>331</ele>
        <time>2021-10-07T08:58:42.999Z</time>
      </trkpt>
      <trkpt lat="43.1549" lon="-0.41096">
        <ele>331</ele>
        <time>2021-10-07T08:58:47.999Z</time>
      </trkpt>
      <trkpt lat="43.15485" lon="-0.41117">
        <ele>336</ele>
        <time>2021-10-07T08:58:52.997Z</time>
      </trkpt>
      <trkpt lat="43.1548" lon="-0.41143">
        <ele>333</ele>
        <time>2021-10-07T08:58:57.999Z</time>
      </trkpt>
      <trkpt lat="43.15474" lon="-0.41164">
        <ele>329</ele>
        <time>2021-10-07T08:59:02.999Z</time>
      </trkpt>
      <trkpt lat="43.15465" lon="-0.41196">
        <ele>325</ele>
        <time>2021-10-07T08:59:06.999Z</time>
      </trkpt>
      <trkpt lat="43.15452" lon="-0.41218">
        <ele>328</ele>
        <time>2021-10-07T08:59:11.995Z</time>
      </trkpt>
      <trkpt lat="43.15438" lon="-0.41231">
        <ele>328</ele>
        <time>2021-10-07T08:59:16.999Z</time>
      </trkpt>
      <trkpt lat="43.15421" lon="-0.41247">
        <ele>334</ele>
        <time>2021-10-07T08:59:21.999Z</time>
      </trkpt>
      <trkpt lat="43.15398" lon="-0.41262">
        <ele>343</ele>
        <time>2021-10-07T08:59:26.999Z</time>
      </trkpt>
      <trkpt lat="43.15384" lon="-0.41275">
        <ele>335</ele>
        <time>2021-10-07T08:59:30.999Z</time>
      </trkpt>
      <trkpt lat="43.15363" lon="-0.41286">
        <ele>340</ele>
        <time>2021-10-07T08:59:35.999Z</time>
      </trkpt>
      <trkpt lat="43.15353" lon="-0.41291">
        <ele>340</ele>
        <time>2021-10-07T08:59:39.999Z</time>
      </trkpt>
      <trkpt lat="43.1533" lon="-0.41304">
        <ele>336</ele>
        <time>2021-10-07T08:59:44.999Z</time>
      </trkpt>
      <trkpt lat="43.1531" lon="-0.41314">
        <ele>338</ele>
        <time>2021-10-07T08:59:49.999Z</time>
      </trkpt>
      <trkpt lat="43.15293" lon="-0.4132">
        <ele>330</ele>
        <time>2021-10-07T08:59:53.999Z</time>
      </trkpt>
      <trkpt lat="43.15272" lon="-0.41334">
        <ele>339</ele>
        <time>2021-10-07T08:59:58.999Z</time>
      </trkpt>
      <trkpt lat="43.1525" lon="-0.41342">
        <ele>346</ele>
        <time>2021-10-07T09:00:03.999Z</time>
      </trkpt>
      <trkpt lat="43.15233" lon="-0.41349">
        <ele>342</ele>
        <time>2021-10-07T09:00:07.999Z</time>
      </trkpt>
      <trkpt lat="43.15219" lon="-0.41354">
        <ele>342</ele>
        <time>2021-10-07T09:00:12.999Z</time>
      </trkpt>
      <trkpt lat="43.15197" lon="-0.41366">
        <ele>350</ele>
        <time>2021-10-07T09:00:16.999Z</time>
      </trkpt>
      <trkpt lat="43.15174" lon="-0.41373">
        <ele>351</ele>
        <time>2021-10-07T09:00:21.999Z</time>
      </trkpt>
      <trkpt lat="43.15154" lon="-0.4138">
        <ele>344</ele>
        <time>2021-10-07T09:00:26.997Z</time>
      </trkpt>
      <trkpt lat="43.15128" lon="-0.41389">
        <ele>346</ele>
        <time>2021-10-07T09:00:30.999Z</time>
      </trkpt>
      <trkpt lat="43.15111" lon="-0.41392">
        <ele>351</ele>
        <time>2021-10-07T09:00:35.999Z</time>
      </trkpt>
      <trkpt lat="43.15092" lon="-0.41397">
        <ele>357</ele>
        <time>2021-10-07T09:00:40.999Z</time>
      </trkpt>
      <trkpt lat="43.15075" lon="-0.41401">
        <ele>357</ele>
        <time>2021-10-07T09:00:45.999Z</time>
      </trkpt>
      <trkpt lat="43.15065" lon="-0.41404">
        <ele>350</ele>
        <time>2021-10-07T09:00:49.999Z</time>
      </trkpt>
      <trkpt lat="43.15046" lon="-0.41409">
        <ele>350</ele>
        <time>2021-10-07T09:00:54.999Z</time>
      </trkpt>
      <trkpt lat="43.1503" lon="-0.41414">
        <ele>355</ele>
        <time>2021-10-07T09:00:59.999Z</time>
      </trkpt>
      <trkpt lat="43.1501" lon="-0.4142">
        <ele>355</ele>
        <time>2021-10-07T09:01:04.999Z</time>
      </trkpt>
      <trkpt lat="43.14994" lon="-0.41424">
        <ele>355</ele>
        <time>2021-10-07T09:01:09.999Z</time>
      </trkpt>
      <trkpt lat="43.1498" lon="-0.41431">
        <ele>348</ele>
        <time>2021-10-07T09:01:13.999Z</time>
      </trkpt>
      <trkpt lat="43.14969" lon="-0.41433">
        <ele>348</ele>
        <time>2021-10-07T09:01:18.999Z</time>
      </trkpt>
      <trkpt lat="43.14961" lon="-0.41433">
        <ele>348</ele>
        <time>2021-10-07T09:01:23.999Z</time>
      </trkpt>
      <trkpt lat="43.14951" lon="-0.4143">
        <ele>359</ele>
        <time>2021-10-07T09:01:27.999Z</time>
      </trkpt>
      <trkpt lat="43.14943" lon="-0.41428">
        <ele>359</ele>
        <time>2021-10-07T09:01:32.999Z</time>
      </trkpt>
      <trkpt lat="43.14937" lon="-0.41428">
        <ele>359</ele>
        <time>2021-10-07T09:01:36.999Z</time>
      </trkpt>
      <trkpt lat="43.1493" lon="-0.41428">
        <ele>361</ele>
        <time>2021-10-07T09:01:41.996Z</time>
      </trkpt>
      <trkpt lat="43.14922" lon="-0.41427">
        <ele>361</ele>
        <time>2021-10-07T09:01:45.999Z</time>
      </trkpt>
      <trkpt lat="43.14913" lon="-0.41424">
        <ele>361</ele>
        <time>2021-10-07T09:01:50.999Z</time>
      </trkpt>
      <trkpt lat="43.14908" lon="-0.41421">
        <ele>361</ele>
        <time>2021-10-07T09:01:55.999Z</time>
      </trkpt>
      <trkpt lat="43.14904" lon="-0.41418">
        <ele>361</ele>
        <time>2021-10-07T09:01:59.999Z</time>
      </trkpt>
      <trkpt lat="43.14896" lon="-0.41416">
        <ele>364</ele>
        <time>2021-10-07T09:02:04.999Z</time>
      </trkpt>
      <trkpt lat="43.1489" lon="-0.41413">
        <ele>364</ele>
        <time>2021-10-07T09:02:09.999Z</time>
      </trkpt>
      <trkpt lat="43.14877" lon="-0.41409">
        <ele>364</ele>
        <time>2021-10-07T09:02:14.999Z</time>
      </trkpt>
      <trkpt lat="43.14867" lon="-0.41407">
        <ele>366</ele>
        <time>2021-10-07T09:02:19.999Z</time>
      </trkpt>
      <trkpt lat="43.14854" lon="-0.414">
        <ele>375</ele>
        <time>2021-10-07T09:02:24.999Z</time>
      </trkpt>
      <trkpt lat="43.14848" lon="-0.41394">
        <ele>375</ele>
        <time>2021-10-07T09:02:29.999Z</time>
      </trkpt>
      <trkpt lat="43.14843" lon="-0.41388">
        <ele>379</ele>
        <time>2021-10-07T09:02:33.999Z</time>
      </trkpt>
      <trkpt lat="43.14836" lon="-0.41379">
        <ele>379</ele>
        <time>2021-10-07T09:02:38.999Z</time>
      </trkpt>
      <trkpt lat="43.14829" lon="-0.41374">
        <ele>387</ele>
        <time>2021-10-07T09:02:43.999Z</time>
      </trkpt>
      <trkpt lat="43.1483" lon="-0.41361">
        <ele>387</ele>
        <time>2021-10-07T09:02:48.999Z</time>
      </trkpt>
      <trkpt lat="43.14827" lon="-0.41354">
        <ele>387</ele>
        <time>2021-10-07T09:02:53.999Z</time>
      </trkpt>
      <trkpt lat="43.14822" lon="-0.41343">
        <ele>394</ele>
        <time>2021-10-07T09:02:58.999Z</time>
      </trkpt>
      <trkpt lat="43.14817" lon="-0.41334">
        <ele>394</ele>
        <time>2021-10-07T09:03:03.999Z</time>
      </trkpt>
      <trkpt lat="43.14815" lon="-0.41322">
        <ele>394</ele>
        <time>2021-10-07T09:03:08.999Z</time>
      </trkpt>
      <trkpt lat="43.14811" lon="-0.41311">
        <ele>400</ele>
        <time>2021-10-07T09:03:13.999Z</time>
      </trkpt>
      <trkpt lat="43.14807" lon="-0.41298">
        <ele>400</ele>
        <time>2021-10-07T09:03:18.999Z</time>
      </trkpt>
      <trkpt lat="43.14796" lon="-0.413">
        <ele>400</ele>
        <time>2021-10-07T09:03:23.999Z</time>
      </trkpt>
      <trkpt lat="43.1479" lon="-0.41309">
        <ele>402</ele>
        <time>2021-10-07T09:03:56.999Z</time>
      </trkpt>
      <trkpt lat="43.14784" lon="-0.41317">
        <ele>402</ele>
        <time>2021-10-07T09:04:01.999Z</time>
      </trkpt>
      <trkpt lat="43.14775" lon="-0.41319">
        <ele>402</ele>
        <time>2021-10-07T09:04:06.999Z</time>
      </trkpt>
      <trkpt lat="43.14765" lon="-0.41308">
        <ele>402</ele>
        <time>2021-10-07T09:04:11.999Z</time>
      </trkpt>
      <trkpt lat="43.14761" lon="-0.41295">
        <ele>403</ele>
        <time>2021-10-07T09:04:16.999Z</time>
      </trkpt>
      <trkpt lat="43.14758" lon="-0.41286">
        <ele>410</ele>
        <time>2021-10-07T09:04:21.999Z</time>
      </trkpt>
      <trkpt lat="43.14752" lon="-0.41281">
        <ele>410</ele>
        <time>2021-10-07T09:04:26.999Z</time>
      </trkpt>
      <trkpt lat="43.14746" lon="-0.41272">
        <ele>410</ele>
        <time>2021-10-07T09:04:31.999Z</time>
      </trkpt>
      <trkpt lat="43.14741" lon="-0.4126">
        <ele>416</ele>
        <time>2021-10-07T09:04:36.999Z</time>
      </trkpt>
      <trkpt lat="43.14739" lon="-0.41246">
        <ele>416</ele>
        <time>2021-10-07T09:04:41.999Z</time>
      </trkpt>
      <trkpt lat="43.14734" lon="-0.41235">
        <ele>417</ele>
        <time>2021-10-07T09:04:45.999Z</time>
      </trkpt>
      <trkpt lat="43.14729" lon="-0.41227">
        <ele>417</ele>
        <time>2021-10-07T09:04:50.999Z</time>
      </trkpt>
      <trkpt lat="43.1472" lon="-0.41217">
        <ele>417</ele>
        <time>2021-10-07T09:04:55.999Z</time>
      </trkpt>
      <trkpt lat="43.14712" lon="-0.41211">
        <ele>417</ele>
        <time>2021-10-07T09:05:00.999Z</time>
      </trkpt>
      <trkpt lat="43.14703" lon="-0.41205">
        <ele>423</ele>
        <time>2021-10-07T09:05:05.999Z</time>
      </trkpt>
      <trkpt lat="43.14693" lon="-0.41201">
        <ele>423</ele>
        <time>2021-10-07T09:05:10.999Z</time>
      </trkpt>
      <trkpt lat="43.14683" lon="-0.41198">
        <ele>423</ele>
        <time>2021-10-07T09:05:15.999Z</time>
      </trkpt>
      <trkpt lat="43.14672" lon="-0.41193">
        <ele>427</ele>
        <time>2021-10-07T09:05:20.999Z</time>
      </trkpt>
      <trkpt lat="43.14671" lon="-0.41194">
        <ele>427</ele>
        <time>2021-10-07T09:05:25.999Z</time>
      </trkpt>
      <trkpt lat="43.14666" lon="-0.41191">
        <ele>427</ele>
        <time>2021-10-07T09:05:29.999Z</time>
      </trkpt>
      <trkpt lat="43.14659" lon="-0.41185">
        <ele>427</ele>
        <time>2021-10-07T09:05:34.999Z</time>
      </trkpt>
      <trkpt lat="43.14654" lon="-0.41178">
        <ele>431</ele>
        <time>2021-10-07T09:05:38.999Z</time>
      </trkpt>
      <trkpt lat="43.14644" lon="-0.41172">
        <ele>432</ele>
        <time>2021-10-07T09:05:43.999Z</time>
      </trkpt>
      <trkpt lat="43.14634" lon="-0.41167">
        <ele>432</ele>
        <time>2021-10-07T09:05:48.999Z</time>
      </trkpt>
      <trkpt lat="43.14626" lon="-0.41158">
        <ele>432</ele>
        <time>2021-10-07T09:05:53.999Z</time>
      </trkpt>
      <trkpt lat="43.14616" lon="-0.41148">
        <ele>434</ele>
        <time>2021-10-07T09:06:40.999Z</time>
      </trkpt>
      <trkpt lat="43.14606" lon="-0.4114">
        <ele>434</ele>
        <time>2021-10-07T09:06:45.999Z</time>
      </trkpt>
      <trkpt lat="43.14598" lon="-0.41138">
        <ele>434</ele>
        <time>2021-10-07T09:06:49.999Z</time>
      </trkpt>
      <trkpt lat="43.14586" lon="-0.41137">
        <ele>433</ele>
        <time>2021-10-07T09:06:54.999Z</time>
      </trkpt>
      <trkpt lat="43.14575" lon="-0.41136">
        <ele>433</ele>
        <time>2021-10-07T09:06:59.999Z</time>
      </trkpt>
      <trkpt lat="43.14562" lon="-0.41133">
        <ele>432</ele>
        <time>2021-10-07T09:07:04.999Z</time>
      </trkpt>
      <trkpt lat="43.14549" lon="-0.41131">
        <ele>432</ele>
        <time>2021-10-07T09:07:09.999Z</time>
      </trkpt>
      <trkpt lat="43.14532" lon="-0.41125">
        <ele>425</ele>
        <time>2021-10-07T09:07:14.999Z</time>
      </trkpt>
      <trkpt lat="43.14518" lon="-0.41122">
        <ele>425</ele>
        <time>2021-10-07T09:07:19.999Z</time>
      </trkpt>
      <trkpt lat="43.14504" lon="-0.4112">
        <ele>424</ele>
        <time>2021-10-07T09:07:24.999Z</time>
      </trkpt>
      <trkpt lat="43.14492" lon="-0.41121">
        <ele>424</ele>
        <time>2021-10-07T09:07:28.999Z</time>
      </trkpt>
      <trkpt lat="43.14485" lon="-0.41118">
        <ele>423</ele>
        <time>2021-10-07T09:07:33.999Z</time>
      </trkpt>
      <trkpt lat="43.14485" lon="-0.41119">
        <ele>423</ele>
        <time>2021-10-07T09:07:38.999Z</time>
      </trkpt>
      <trkpt lat="43.14476" lon="-0.41119">
        <ele>423</ele>
        <time>2021-10-07T09:07:43.999Z</time>
      </trkpt>
      <trkpt lat="43.14465" lon="-0.41118">
        <ele>423</ele>
        <time>2021-10-07T09:07:48.999Z</time>
      </trkpt>
      <trkpt lat="43.14458" lon="-0.41115">
        <ele>423</ele>
        <time>2021-10-07T09:07:53.999Z</time>
      </trkpt>
      <trkpt lat="43.1445" lon="-0.41112">
        <ele>427</ele>
        <time>2021-10-07T09:07:58.999Z</time>
      </trkpt>
      <trkpt lat="43.14437" lon="-0.4111">
        <ele>427</ele>
        <time>2021-10-07T09:08:03.999Z</time>
      </trkpt>
      <trkpt lat="43.14426" lon="-0.41108">
        <ele>433</ele>
        <time>2021-10-07T09:08:08.999Z</time>
      </trkpt>
      <trkpt lat="43.14416" lon="-0.41104">
        <ele>433</ele>
        <time>2021-10-07T09:08:13.999Z</time>
      </trkpt>
      <trkpt lat="43.14406" lon="-0.41102">
        <ele>433</ele>
        <time>2021-10-07T09:08:17.999Z</time>
      </trkpt>
      <trkpt lat="43.14394" lon="-0.411">
        <ele>440</ele>
        <time>2021-10-07T09:08:22.999Z</time>
      </trkpt>
      <trkpt lat="43.14385" lon="-0.41097">
        <ele>440</ele>
        <time>2021-10-07T09:08:27.999Z</time>
      </trkpt>
      <trkpt lat="43.14376" lon="-0.41093">
        <ele>441</ele>
        <time>2021-10-07T09:08:31.999Z</time>
      </trkpt>
      <trkpt lat="43.14366" lon="-0.41088">
        <ele>444</ele>
        <time>2021-10-07T09:08:36.999Z</time>
      </trkpt>
      <trkpt lat="43.14358" lon="-0.41084">
        <ele>444</ele>
        <time>2021-10-07T09:08:41.999Z</time>
      </trkpt>
      <trkpt lat="43.14346" lon="-0.41077">
        <ele>445</ele>
        <time>2021-10-07T09:08:46.999Z</time>
      </trkpt>
      <trkpt lat="43.14332" lon="-0.41073">
        <ele>445</ele>
        <time>2021-10-07T09:08:51.999Z</time>
      </trkpt>
      <trkpt lat="43.14319" lon="-0.41069">
        <ele>445</ele>
        <time>2021-10-07T09:08:56.999Z</time>
      </trkpt>
      <trkpt lat="43.14307" lon="-0.41065">
        <ele>445</ele>
        <time>2021-10-07T09:09:01.999Z</time>
      </trkpt>
      <trkpt lat="43.14297" lon="-0.41062">
        <ele>445</ele>
        <time>2021-10-07T09:09:05.999Z</time>
      </trkpt>
      <trkpt lat="43.14292" lon="-0.41053">
        <ele>446</ele>
        <time>2021-10-07T09:09:10.999Z</time>
      </trkpt>
      <trkpt lat="43.14281" lon="-0.41043">
        <ele>446</ele>
        <time>2021-10-07T09:09:15.999Z</time>
      </trkpt>
      <trkpt lat="43.14269" lon="-0.41036">
        <ele>448</ele>
        <time>2021-10-07T09:09:19.999Z</time>
      </trkpt>
      <trkpt lat="43.14254" lon="-0.4103">
        <ele>449</ele>
        <time>2021-10-07T09:09:24.999Z</time>
      </trkpt>
      <trkpt lat="43.14233" lon="-0.4102">
        <ele>449</ele>
        <time>2021-10-07T09:09:29.999Z</time>
      </trkpt>
      <trkpt lat="43.14221" lon="-0.41014">
        <ele>449</ele>
        <time>2021-10-07T09:09:34.999Z</time>
      </trkpt>
      <trkpt lat="43.14204" lon="-0.41013">
        <ele>452</ele>
        <time>2021-10-07T09:09:39.999Z</time>
      </trkpt>
      <trkpt lat="43.1419" lon="-0.41012">
        <ele>452</ele>
        <time>2021-10-07T09:09:44.999Z</time>
      </trkpt>
      <trkpt lat="43.1418" lon="-0.4101">
        <ele>455</ele>
        <time>2021-10-07T09:09:48.999Z</time>
      </trkpt>
      <trkpt lat="43.14168" lon="-0.41011">
        <ele>455</ele>
        <time>2021-10-07T09:09:53.999Z</time>
      </trkpt>
      <trkpt lat="43.14153" lon="-0.41011">
        <ele>455</ele>
        <time>2021-10-07T09:09:58.999Z</time>
      </trkpt>
      <trkpt lat="43.14143" lon="-0.41012">
        <ele>457</ele>
        <time>2021-10-07T09:10:03.999Z</time>
      </trkpt>
      <trkpt lat="43.14133" lon="-0.41015">
        <ele>456</ele>
        <time>2021-10-07T09:10:08.999Z</time>
      </trkpt>
      <trkpt lat="43.14122" lon="-0.4102">
        <ele>458</ele>
        <time>2021-10-07T09:10:12.999Z</time>
      </trkpt>
      <trkpt lat="43.14115" lon="-0.41022">
        <ele>458</ele>
        <time>2021-10-07T09:10:17.999Z</time>
      </trkpt>
      <trkpt lat="43.14102" lon="-0.41025">
        <ele>458</ele>
        <time>2021-10-07T09:10:22.999Z</time>
      </trkpt>
      <trkpt lat="43.14092" lon="-0.41025">
        <ele>459</ele>
        <time>2021-10-07T09:10:27.999Z</time>
      </trkpt>
      <trkpt lat="43.14082" lon="-0.41024">
        <ele>459</ele>
        <time>2021-10-07T09:10:32.999Z</time>
      </trkpt>
      <trkpt lat="43.14065" lon="-0.41025">
        <ele>462</ele>
        <time>2021-10-07T09:10:37.999Z</time>
      </trkpt>
      <trkpt lat="43.14065" lon="-0.41024">
        <ele>462</ele>
        <time>2021-10-07T09:10:41.999Z</time>
      </trkpt>
      <trkpt lat="43.14065" lon="-0.41024">
        <ele>462</ele>
        <time>2021-10-07T09:10:46.999Z</time>
      </trkpt>
      <trkpt lat="43.14064" lon="-0.41024">
        <ele>462</ele>
        <time>2021-10-07T09:10:51.999Z</time>
      </trkpt>
      <trkpt lat="43.14055" lon="-0.41027">
        <ele>462</ele>
        <time>2021-10-07T09:10:55.999Z</time>
      </trkpt>
      <trkpt lat="43.14045" lon="-0.41028">
        <ele>462</ele>
        <time>2021-10-07T09:11:00.999Z</time>
      </trkpt>
      <trkpt lat="43.14031" lon="-0.41032">
        <ele>463</ele>
        <time>2021-10-07T09:11:05.999Z</time>
      </trkpt>
      <trkpt lat="43.14018" lon="-0.41038">
        <ele>463</ele>
        <time>2021-10-07T09:11:10.999Z</time>
      </trkpt>
      <trkpt lat="43.13998" lon="-0.41043">
        <ele>462</ele>
        <time>2021-10-07T09:11:24.999Z</time>
      </trkpt>
      <trkpt lat="43.13987" lon="-0.41045">
        <ele>462</ele>
        <time>2021-10-07T09:11:29.999Z</time>
      </trkpt>
      <trkpt lat="43.13973" lon="-0.4105">
        <ele>459</ele>
        <time>2021-10-07T09:11:33.999Z</time>
      </trkpt>
      <trkpt lat="43.1396" lon="-0.41055">
        <ele>459</ele>
        <time>2021-10-07T09:11:38.999Z</time>
      </trkpt>
      <trkpt lat="43.13947" lon="-0.41061">
        <ele>456</ele>
        <time>2021-10-07T09:11:43.999Z</time>
      </trkpt>
      <trkpt lat="43.13937" lon="-0.41066">
        <ele>456</ele>
        <time>2021-10-07T09:11:48.999Z</time>
      </trkpt>
      <trkpt lat="43.13923" lon="-0.41071">
        <ele>458</ele>
        <time>2021-10-07T09:11:53.999Z</time>
      </trkpt>
      <trkpt lat="43.1391" lon="-0.41077">
        <ele>458</ele>
        <time>2021-10-07T09:11:58.999Z</time>
      </trkpt>
      <trkpt lat="43.13896" lon="-0.41084">
        <ele>464</ele>
        <time>2021-10-07T09:12:03.999Z</time>
      </trkpt>
      <trkpt lat="43.13884" lon="-0.4109">
        <ele>464</ele>
        <time>2021-10-07T09:12:08.999Z</time>
      </trkpt>
      <trkpt lat="43.13872" lon="-0.41097">
        <ele>466</ele>
        <time>2021-10-07T09:12:12.999Z</time>
      </trkpt>
      <trkpt lat="43.13859" lon="-0.41106">
        <ele>465</ele>
        <time>2021-10-07T09:12:17.999Z</time>
      </trkpt>
      <trkpt lat="43.13847" lon="-0.41116">
        <ele>466</ele>
        <time>2021-10-07T09:12:22.999Z</time>
      </trkpt>
      <trkpt lat="43.13834" lon="-0.41119">
        <ele>466</ele>
        <time>2021-10-07T09:12:26.999Z</time>
      </trkpt>
      <trkpt lat="43.1382" lon="-0.41125">
        <ele>463</ele>
        <time>2021-10-07T09:12:31.999Z</time>
      </trkpt>
      <trkpt lat="43.1381" lon="-0.4113">
        <ele>465</ele>
        <time>2021-10-07T09:12:36.999Z</time>
      </trkpt>
      <trkpt lat="43.13799" lon="-0.41136">
        <ele>465</ele>
        <time>2021-10-07T09:12:41.999Z</time>
      </trkpt>
      <trkpt lat="43.13787" lon="-0.41141">
        <ele>467</ele>
        <time>2021-10-07T09:12:46.999Z</time>
      </trkpt>
      <trkpt lat="43.13774" lon="-0.41145">
        <ele>467</ele>
        <time>2021-10-07T09:12:51.999Z</time>
      </trkpt>
      <trkpt lat="43.13761" lon="-0.41148">
        <ele>470</ele>
        <time>2021-10-07T09:12:56.999Z</time>
      </trkpt>
      <trkpt lat="43.13743" lon="-0.41149">
        <ele>470</ele>
        <time>2021-10-07T09:13:01.999Z</time>
      </trkpt>
      <trkpt lat="43.13731" lon="-0.41152">
        <ele>470</ele>
        <time>2021-10-07T09:13:06.999Z</time>
      </trkpt>
      <trkpt lat="43.13715" lon="-0.41157">
        <ele>469</ele>
        <time>2021-10-07T09:13:11.999Z</time>
      </trkpt>
      <trkpt lat="43.137" lon="-0.41163">
        <ele>468</ele>
        <time>2021-10-07T09:13:16.999Z</time>
      </trkpt>
      <trkpt lat="43.1369" lon="-0.41164">
        <ele>468</ele>
        <time>2021-10-07T09:13:21.999Z</time>
      </trkpt>
      <trkpt lat="43.13675" lon="-0.41165">
        <ele>465</ele>
        <time>2021-10-07T09:13:26.999Z</time>
      </trkpt>
      <trkpt lat="43.13661" lon="-0.4117">
        <ele>465</ele>
        <time>2021-10-07T09:13:31.999Z</time>
      </trkpt>
      <trkpt lat="43.13648" lon="-0.41184">
        <ele>468</ele>
        <time>2021-10-07T09:13:36.999Z</time>
      </trkpt>
      <trkpt lat="43.13634" lon="-0.41198">
        <ele>468</ele>
        <time>2021-10-07T09:13:41.999Z</time>
      </trkpt>
      <trkpt lat="43.13622" lon="-0.41212">
        <ele>477</ele>
        <time>2021-10-07T09:13:45.999Z</time>
      </trkpt>
      <trkpt lat="43.13614" lon="-0.41227">
        <ele>477</ele>
        <time>2021-10-07T09:13:50.999Z</time>
      </trkpt>
      <trkpt lat="43.1361" lon="-0.4124">
        <ele>476</ele>
        <time>2021-10-07T09:13:55.999Z</time>
      </trkpt>
      <trkpt lat="43.13607" lon="-0.41255">
        <ele>476</ele>
        <time>2021-10-07T09:13:59.999Z</time>
      </trkpt>
      <trkpt lat="43.13601" lon="-0.41271">
        <ele>475</ele>
        <time>2021-10-07T09:14:04.999Z</time>
      </trkpt>
      <trkpt lat="43.13599" lon="-0.41282">
        <ele>475</ele>
        <time>2021-10-07T09:14:09.999Z</time>
      </trkpt>
      <trkpt lat="43.13592" lon="-0.41299">
        <ele>478</ele>
        <time>2021-10-07T09:14:14.999Z</time>
      </trkpt>
      <trkpt lat="43.13579" lon="-0.41315">
        <ele>478</ele>
        <time>2021-10-07T09:14:19.999Z</time>
      </trkpt>
      <trkpt lat="43.13571" lon="-0.41327">
        <ele>478</ele>
        <time>2021-10-07T09:14:24.999Z</time>
      </trkpt>
      <trkpt lat="43.13569" lon="-0.41351">
        <ele>480</ele>
        <time>2021-10-07T09:14:29.999Z</time>
      </trkpt>
      <trkpt lat="43.13567" lon="-0.4137">
        <ele>480</ele>
        <time>2021-10-07T09:14:33.999Z</time>
      </trkpt>
      <trkpt lat="43.13565" lon="-0.41377">
        <ele>480</ele>
        <time>2021-10-07T09:14:38.999Z</time>
      </trkpt>
      <trkpt lat="43.13564" lon="-0.41387">
        <ele>480</ele>
        <time>2021-10-07T09:14:43.999Z</time>
      </trkpt>
      <trkpt lat="43.13566" lon="-0.41397">
        <ele>480</ele>
        <time>2021-10-07T09:14:47.999Z</time>
      </trkpt>
      <trkpt lat="43.13573" lon="-0.41414">
        <ele>479</ele>
        <time>2021-10-07T09:14:52.999Z</time>
      </trkpt>
      <trkpt lat="43.13583" lon="-0.41428">
        <ele>479</ele>
        <time>2021-10-07T09:14:57.999Z</time>
      </trkpt>
      <trkpt lat="43.13588" lon="-0.41439">
        <ele>483</ele>
        <time>2021-10-07T09:15:01.999Z</time>
      </trkpt>
      <trkpt lat="43.13597" lon="-0.4145">
        <ele>479</ele>
        <time>2021-10-07T09:15:06.999Z</time>
      </trkpt>
      <trkpt lat="43.13607" lon="-0.41459">
        <ele>484</ele>
        <time>2021-10-07T09:15:11.999Z</time>
      </trkpt>
      <trkpt lat="43.13616" lon="-0.41471">
        <ele>484</ele>
        <time>2021-10-07T09:15:15.999Z</time>
      </trkpt>
      <trkpt lat="43.13625" lon="-0.41477">
        <ele>484</ele>
        <time>2021-10-07T09:15:19.999Z</time>
      </trkpt>
      <trkpt lat="43.13633" lon="-0.4149">
        <ele>486</ele>
        <time>2021-10-07T09:15:24.999Z</time>
      </trkpt>
      <trkpt lat="43.13645" lon="-0.41502">
        <ele>486</ele>
        <time>2021-10-07T09:15:29.999Z</time>
      </trkpt>
      <trkpt lat="43.13657" lon="-0.41515">
        <ele>488</ele>
        <time>2021-10-07T09:15:34.999Z</time>
      </trkpt>
      <trkpt lat="43.13664" lon="-0.41533">
        <ele>488</ele>
        <time>2021-10-07T09:15:38.999Z</time>
      </trkpt>
      <trkpt lat="43.13652" lon="-0.41528">
        <ele>488</ele>
        <time>2021-10-07T09:15:43.999Z</time>
      </trkpt>
      <trkpt lat="43.13635" lon="-0.41527">
        <ele>488</ele>
        <time>2021-10-07T09:15:48.999Z</time>
      </trkpt>
      <trkpt lat="43.13621" lon="-0.41529">
        <ele>489</ele>
        <time>2021-10-07T09:15:53.999Z</time>
      </trkpt>
      <trkpt lat="43.13608" lon="-0.4153">
        <ele>489</ele>
        <time>2021-10-07T09:15:58.999Z</time>
      </trkpt>
      <trkpt lat="43.13593" lon="-0.4153">
        <ele>489</ele>
        <time>2021-10-07T09:16:03.999Z</time>
      </trkpt>
      <trkpt lat="43.13582" lon="-0.4153">
        <ele>489</ele>
        <time>2021-10-07T09:16:08.999Z</time>
      </trkpt>
      <trkpt lat="43.13566" lon="-0.41531">
        <ele>491</ele>
        <time>2021-10-07T09:16:13.999Z</time>
      </trkpt>
      <trkpt lat="43.13551" lon="-0.41533">
        <ele>491</ele>
        <time>2021-10-07T09:16:28.999Z</time>
      </trkpt>
      <trkpt lat="43.13533" lon="-0.41534">
        <ele>493</ele>
        <time>2021-10-07T09:16:33.995Z</time>
      </trkpt>
      <trkpt lat="43.13517" lon="-0.41536">
        <ele>493</ele>
        <time>2021-10-07T09:16:38.999Z</time>
      </trkpt>
      <trkpt lat="43.13504" lon="-0.4154">
        <ele>495</ele>
        <time>2021-10-07T09:16:42.999Z</time>
      </trkpt>
      <trkpt lat="43.13485" lon="-0.41544">
        <ele>494</ele>
        <time>2021-10-07T09:16:46.999Z</time>
      </trkpt>
      <trkpt lat="43.1346" lon="-0.41547">
        <ele>494</ele>
        <time>2021-10-07T09:16:51.999Z</time>
      </trkpt>
      <trkpt lat="43.13439" lon="-0.41548">
        <ele>494</ele>
        <time>2021-10-07T09:16:56.999Z</time>
      </trkpt>
      <trkpt lat="43.13417" lon="-0.41551">
        <ele>494</ele>
        <time>2021-10-07T09:17:01.999Z</time>
      </trkpt>
      <trkpt lat="43.13396" lon="-0.4154">
        <ele>495</ele>
        <time>2021-10-07T09:17:05.999Z</time>
      </trkpt>
      <trkpt lat="43.13375" lon="-0.41533">
        <ele>495</ele>
        <time>2021-10-07T09:17:10.999Z</time>
      </trkpt>
      <trkpt lat="43.13355" lon="-0.41526">
        <ele>495</ele>
        <time>2021-10-07T09:17:15.999Z</time>
      </trkpt>
      <trkpt lat="43.13339" lon="-0.41523">
        <ele>496</ele>
        <time>2021-10-07T09:17:19.999Z</time>
      </trkpt>
      <trkpt lat="43.13319" lon="-0.4152">
        <ele>494</ele>
        <time>2021-10-07T09:17:24.999Z</time>
      </trkpt>
      <trkpt lat="43.13301" lon="-0.41516">
        <ele>494</ele>
        <time>2021-10-07T09:17:29.999Z</time>
      </trkpt>
      <trkpt lat="43.13286" lon="-0.41513">
        <ele>496</ele>
        <time>2021-10-07T09:17:33.999Z</time>
      </trkpt>
      <trkpt lat="43.13273" lon="-0.4151">
        <ele>496</ele>
        <time>2021-10-07T09:17:38.999Z</time>
      </trkpt>
      <trkpt lat="43.13255" lon="-0.41513">
        <ele>497</ele>
        <time>2021-10-07T09:17:42.999Z</time>
      </trkpt>
      <trkpt lat="43.13239" lon="-0.41519">
        <ele>495</ele>
        <time>2021-10-07T09:17:47.999Z</time>
      </trkpt>
      <trkpt lat="43.1322" lon="-0.41524">
        <ele>496</ele>
        <time>2021-10-07T09:17:52.999Z</time>
      </trkpt>
      <trkpt lat="43.13201" lon="-0.41527">
        <ele>497</ele>
        <time>2021-10-07T09:17:56.999Z</time>
      </trkpt>
      <trkpt lat="43.13182" lon="-0.4153">
        <ele>497</ele>
        <time>2021-10-07T09:18:01.999Z</time>
      </trkpt>
      <trkpt lat="43.13161" lon="-0.41534">
        <ele>498</ele>
        <time>2021-10-07T09:18:06.999Z</time>
      </trkpt>
      <trkpt lat="43.13142" lon="-0.41538">
        <ele>499</ele>
        <time>2021-10-07T09:18:10.999Z</time>
      </trkpt>
      <trkpt lat="43.13125" lon="-0.41539">
        <ele>500</ele>
        <time>2021-10-07T09:18:14.999Z</time>
      </trkpt>
      <trkpt lat="43.13107" lon="-0.41542">
        <ele>500</ele>
        <time>2021-10-07T09:18:19.999Z</time>
      </trkpt>
      <trkpt lat="43.1309" lon="-0.41543">
        <ele>501</ele>
        <time>2021-10-07T09:18:24.999Z</time>
      </trkpt>
      <trkpt lat="43.13073" lon="-0.41544">
        <ele>501</ele>
        <time>2021-10-07T09:18:29.999Z</time>
      </trkpt>
      <trkpt lat="43.13054" lon="-0.41545">
        <ele>504</ele>
        <time>2021-10-07T09:18:34.999Z</time>
      </trkpt>
      <trkpt lat="43.13034" lon="-0.41546">
        <ele>504</ele>
        <time>2021-10-07T09:18:40Z</time>
      </trkpt>
      <trkpt lat="43.13014" lon="-0.41549">
        <ele>504</ele>
        <time>2021-10-07T09:18:44.999Z</time>
      </trkpt>
      <trkpt lat="43.12993" lon="-0.41552">
        <ele>504</ele>
        <time>2021-10-07T09:18:49.999Z</time>
      </trkpt>
      <trkpt lat="43.12972" lon="-0.41553">
        <ele>506</ele>
        <time>2021-10-07T09:18:54.999Z</time>
      </trkpt>
      <trkpt lat="43.12951" lon="-0.41555">
        <ele>505</ele>
        <time>2021-10-07T09:18:59.999Z</time>
      </trkpt>
      <trkpt lat="43.12934" lon="-0.41553">
        <ele>505</ele>
        <time>2021-10-07T09:19:04.999Z</time>
      </trkpt>
      <trkpt lat="43.12913" lon="-0.4155">
        <ele>505</ele>
        <time>2021-10-07T09:19:09.999Z</time>
      </trkpt>
      <trkpt lat="43.12892" lon="-0.41544">
        <ele>507</ele>
        <time>2021-10-07T09:19:14.999Z</time>
      </trkpt>
      <trkpt lat="43.12869" lon="-0.41535">
        <ele>509</ele>
        <time>2021-10-07T09:19:19.999Z</time>
      </trkpt>
      <trkpt lat="43.12846" lon="-0.41528">
        <ele>509</ele>
        <time>2021-10-07T09:19:24.999Z</time>
      </trkpt>
      <trkpt lat="43.12826" lon="-0.41524">
        <ele>509</ele>
        <time>2021-10-07T09:19:29.999Z</time>
      </trkpt>
      <trkpt lat="43.12819" lon="-0.41512">
        <ele>508</ele>
        <time>2021-10-07T09:19:34.999Z</time>
      </trkpt>
      <trkpt lat="43.1281" lon="-0.41503">
        <ele>508</ele>
        <time>2021-10-07T09:19:39.999Z</time>
      </trkpt>
      <trkpt lat="43.12798" lon="-0.41499">
        <ele>508</ele>
        <time>2021-10-07T09:19:43.999Z</time>
      </trkpt>
      <trkpt lat="43.12797" lon="-0.41499">
        <ele>508</ele>
        <time>2021-10-07T09:19:48.999Z</time>
      </trkpt>
      <trkpt lat="43.12791" lon="-0.41503">
        <ele>505</ele>
        <time>2021-10-07T09:19:53.999Z</time>
      </trkpt>
      <trkpt lat="43.12781" lon="-0.41501">
        <ele>505</ele>
        <time>2021-10-07T09:19:58.999Z</time>
      </trkpt>
      <trkpt lat="43.12766" lon="-0.415">
        <ele>505</ele>
        <time>2021-10-07T09:20:03.999Z</time>
      </trkpt>
      <trkpt lat="43.12751" lon="-0.41499">
        <ele>506</ele>
        <time>2021-10-07T09:20:08.999Z</time>
      </trkpt>
      <trkpt lat="43.1275" lon="-0.41499">
        <ele>506</ele>
        <time>2021-10-07T09:20:13.999Z</time>
      </trkpt>
      <trkpt lat="43.12748" lon="-0.41497">
        <ele>506</ele>
        <time>2021-10-07T09:20:18.999Z</time>
      </trkpt>
      <trkpt lat="43.12736" lon="-0.41492">
        <ele>506</ele>
        <time>2021-10-07T09:25:48.999Z</time>
      </trkpt>
      <trkpt lat="43.12725" lon="-0.4149">
        <ele>510</ele>
        <time>2021-10-07T09:25:53.999Z</time>
      </trkpt>
      <trkpt lat="43.12704" lon="-0.41487">
        <ele>509</ele>
        <time>2021-10-07T09:25:58.999Z</time>
      </trkpt>
      <trkpt lat="43.12687" lon="-0.41483">
        <ele>507</ele>
        <time>2021-10-07T09:26:03.999Z</time>
      </trkpt>
      <trkpt lat="43.12671" lon="-0.41478">
        <ele>508</ele>
        <time>2021-10-07T09:26:08.999Z</time>
      </trkpt>
      <trkpt lat="43.12657" lon="-0.41472">
        <ele>508</ele>
        <time>2021-10-07T09:26:13.999Z</time>
      </trkpt>
      <trkpt lat="43.12646" lon="-0.41466">
        <ele>510</ele>
        <time>2021-10-07T09:26:18.999Z</time>
      </trkpt>
      <trkpt lat="43.12636" lon="-0.41471">
        <ele>510</ele>
        <time>2021-10-07T09:26:23.999Z</time>
      </trkpt>
      <trkpt lat="43.12623" lon="-0.4147">
        <ele>513</ele>
        <time>2021-10-07T09:26:28.999Z</time>
      </trkpt>
      <trkpt lat="43.12614" lon="-0.41467">
        <ele>513</ele>
        <time>2021-10-07T09:26:33.999Z</time>
      </trkpt>
      <trkpt lat="43.12602" lon="-0.41465">
        <ele>513</ele>
        <time>2021-10-07T09:26:38.999Z</time>
      </trkpt>
      <trkpt lat="43.1259" lon="-0.41466">
        <ele>516</ele>
        <time>2021-10-07T09:26:43.999Z</time>
      </trkpt>
      <trkpt lat="43.12577" lon="-0.41468">
        <ele>516</ele>
        <time>2021-10-07T09:26:48.999Z</time>
      </trkpt>
      <trkpt lat="43.12566" lon="-0.41472">
        <ele>521</ele>
        <time>2021-10-07T09:26:53.999Z</time>
      </trkpt>
      <trkpt lat="43.12556" lon="-0.41476">
        <ele>521</ele>
        <time>2021-10-07T09:26:58.999Z</time>
      </trkpt>
      <trkpt lat="43.12548" lon="-0.41478">
        <ele>521</ele>
        <time>2021-10-07T09:27:02.999Z</time>
      </trkpt>
      <trkpt lat="43.1254" lon="-0.41478">
        <ele>524</ele>
        <time>2021-10-07T09:27:07.999Z</time>
      </trkpt>
      <trkpt lat="43.12534" lon="-0.4147">
        <ele>524</ele>
        <time>2021-10-07T09:27:11.999Z</time>
      </trkpt>
      <trkpt lat="43.12528" lon="-0.41464">
        <ele>524</ele>
        <time>2021-10-07T09:27:16.999Z</time>
      </trkpt>
      <trkpt lat="43.1252" lon="-0.41459">
        <ele>524</ele>
        <time>2021-10-07T09:27:21.999Z</time>
      </trkpt>
      <trkpt lat="43.12511" lon="-0.41456">
        <ele>526</ele>
        <time>2021-10-07T09:27:26.999Z</time>
      </trkpt>
      <trkpt lat="43.125" lon="-0.4145">
        <ele>526</ele>
        <time>2021-10-07T09:27:31.999Z</time>
      </trkpt>
      <trkpt lat="43.12493" lon="-0.41439">
        <ele>526</ele>
        <time>2021-10-07T09:27:36.999Z</time>
      </trkpt>
      <trkpt lat="43.1249" lon="-0.41425">
        <ele>526</ele>
        <time>2021-10-07T09:27:40.999Z</time>
      </trkpt>
      <trkpt lat="43.12484" lon="-0.41411">
        <ele>531</ele>
        <time>2021-10-07T09:27:45.999Z</time>
      </trkpt>
      <trkpt lat="43.12475" lon="-0.414">
        <ele>531</ele>
        <time>2021-10-07T09:27:50.999Z</time>
      </trkpt>
      <trkpt lat="43.12465" lon="-0.41392">
        <ele>531</ele>
        <time>2021-10-07T09:27:54.999Z</time>
      </trkpt>
      <trkpt lat="43.12455" lon="-0.41384">
        <ele>536</ele>
        <time>2021-10-07T09:27:59.999Z</time>
      </trkpt>
      <trkpt lat="43.12446" lon="-0.41378">
        <ele>536</ele>
        <time>2021-10-07T09:28:04.999Z</time>
      </trkpt>
      <trkpt lat="43.12441" lon="-0.41374">
        <ele>532</ele>
        <time>2021-10-07T09:28:09.999Z</time>
      </trkpt>
      <trkpt lat="43.12435" lon="-0.41368">
        <ele>532</ele>
        <time>2021-10-07T09:28:14.999Z</time>
      </trkpt>
      <trkpt lat="43.12427" lon="-0.41368">
        <ele>535</ele>
        <time>2021-10-07T09:28:19.999Z</time>
      </trkpt>
      <trkpt lat="43.1242" lon="-0.41374">
        <ele>535</ele>
        <time>2021-10-07T09:28:24.999Z</time>
      </trkpt>
      <trkpt lat="43.12415" lon="-0.41383">
        <ele>541</ele>
        <time>2021-10-07T09:28:29.999Z</time>
      </trkpt>
      <trkpt lat="43.12412" lon="-0.41391">
        <ele>541</ele>
        <time>2021-10-07T09:28:34.999Z</time>
      </trkpt>
      <trkpt lat="43.1241" lon="-0.41399">
        <ele>541</ele>
        <time>2021-10-07T09:28:39.999Z</time>
      </trkpt>
      <trkpt lat="43.12406" lon="-0.41408">
        <ele>544</ele>
        <time>2021-10-07T09:28:44.999Z</time>
      </trkpt>
      <trkpt lat="43.12399" lon="-0.41415">
        <ele>546</ele>
        <time>2021-10-07T09:28:49.999Z</time>
      </trkpt>
      <trkpt lat="43.12389" lon="-0.41421">
        <ele>546</ele>
        <time>2021-10-07T09:28:54.999Z</time>
      </trkpt>
      <trkpt lat="43.1238" lon="-0.41424">
        <ele>546</ele>
        <time>2021-10-07T09:28:59.999Z</time>
      </trkpt>
      <trkpt lat="43.12373" lon="-0.41425">
        <ele>550</ele>
        <time>2021-10-07T09:29:03.999Z</time>
      </trkpt>
      <trkpt lat="43.12364" lon="-0.41423">
        <ele>550</ele>
        <time>2021-10-07T09:29:08.999Z</time>
      </trkpt>
      <trkpt lat="43.12353" lon="-0.41424">
        <ele>550</ele>
        <time>2021-10-07T09:29:13.999Z</time>
      </trkpt>
      <trkpt lat="43.1234" lon="-0.41423">
        <ele>553</ele>
        <time>2021-10-07T09:29:18.999Z</time>
      </trkpt>
      <trkpt lat="43.1233" lon="-0.4142">
        <ele>553</ele>
        <time>2021-10-07T09:29:23.999Z</time>
      </trkpt>
      <trkpt lat="43.12318" lon="-0.41418">
        <ele>555</ele>
        <time>2021-10-07T09:29:28.999Z</time>
      </trkpt>
      <trkpt lat="43.12306" lon="-0.41415">
        <ele>555</ele>
        <time>2021-10-07T09:29:33.999Z</time>
      </trkpt>
      <trkpt lat="43.12297" lon="-0.41415">
        <ele>555</ele>
        <time>2021-10-07T09:29:38.999Z</time>
      </trkpt>
      <trkpt lat="43.12286" lon="-0.41415">
        <ele>555</ele>
        <time>2021-10-07T09:29:42.999Z</time>
      </trkpt>
      <trkpt lat="43.12274" lon="-0.41412">
        <ele>555</ele>
        <time>2021-10-07T09:29:47.999Z</time>
      </trkpt>
      <trkpt lat="43.12263" lon="-0.41408">
        <ele>557</ele>
        <time>2021-10-07T09:29:51.999Z</time>
      </trkpt>
      <trkpt lat="43.12251" lon="-0.4141">
        <ele>557</ele>
        <time>2021-10-07T09:29:56.999Z</time>
      </trkpt>
      <trkpt lat="43.12241" lon="-0.41412">
        <ele>557</ele>
        <time>2021-10-07T09:30:01.999Z</time>
      </trkpt>
      <trkpt lat="43.12229" lon="-0.41416">
        <ele>562</ele>
        <time>2021-10-07T09:30:06.999Z</time>
      </trkpt>
      <trkpt lat="43.12216" lon="-0.41416">
        <ele>562</ele>
        <time>2021-10-07T09:30:11.999Z</time>
      </trkpt>
      <trkpt lat="43.12209" lon="-0.41418">
        <ele>562</ele>
        <time>2021-10-07T09:30:16.999Z</time>
      </trkpt>
      <trkpt lat="43.122" lon="-0.41418">
        <ele>566</ele>
        <time>2021-10-07T09:30:21.999Z</time>
      </trkpt>
      <trkpt lat="43.12188" lon="-0.41415">
        <ele>566</ele>
        <time>2021-10-07T09:30:26.999Z</time>
      </trkpt>
      <trkpt lat="43.12181" lon="-0.4141">
        <ele>566</ele>
        <time>2021-10-07T09:30:31.999Z</time>
      </trkpt>
      <trkpt lat="43.1217" lon="-0.41406">
        <ele>564</ele>
        <time>2021-10-07T09:30:36.999Z</time>
      </trkpt>
      <trkpt lat="43.12155" lon="-0.41404">
        <ele>564</ele>
        <time>2021-10-07T09:30:40.999Z</time>
      </trkpt>
      <trkpt lat="43.12141" lon="-0.41405">
        <ele>562</ele>
        <time>2021-10-07T09:30:45.999Z</time>
      </trkpt>
      <trkpt lat="43.12132" lon="-0.41409">
        <ele>562</ele>
        <time>2021-10-07T09:30:50.999Z</time>
      </trkpt>
      <trkpt lat="43.12119" lon="-0.41409">
        <ele>564</ele>
        <time>2021-10-07T09:30:55.999Z</time>
      </trkpt>
      <trkpt lat="43.12105" lon="-0.41403">
        <ele>561</ele>
        <time>2021-10-07T09:31:00.999Z</time>
      </trkpt>
      <trkpt lat="43.12091" lon="-0.41399">
        <ele>562</ele>
        <time>2021-10-07T09:31:05.999Z</time>
      </trkpt>
      <trkpt lat="43.12079" lon="-0.41393">
        <ele>562</ele>
        <time>2021-10-07T09:31:09.999Z</time>
      </trkpt>
      <trkpt lat="43.12073" lon="-0.41386">
        <ele>562</ele>
        <time>2021-10-07T09:31:14.999Z</time>
      </trkpt>
      <trkpt lat="43.12067" lon="-0.41376">
        <ele>562</ele>
        <time>2021-10-07T09:31:19.999Z</time>
      </trkpt>
      <trkpt lat="43.12064" lon="-0.41366">
        <ele>561</ele>
        <time>2021-10-07T09:31:24.999Z</time>
      </trkpt>
      <trkpt lat="43.12059" lon="-0.41356">
        <ele>561</ele>
        <time>2021-10-07T09:31:28.999Z</time>
      </trkpt>
      <trkpt lat="43.12049" lon="-0.4135">
        <ele>561</ele>
        <time>2021-10-07T09:31:33.999Z</time>
      </trkpt>
      <trkpt lat="43.12042" lon="-0.41338">
        <ele>563</ele>
        <time>2021-10-07T09:31:38.999Z</time>
      </trkpt>
      <trkpt lat="43.12038" lon="-0.41325">
        <ele>568</ele>
        <time>2021-10-07T09:31:43.999Z</time>
      </trkpt>
      <trkpt lat="43.12033" lon="-0.41316">
        <ele>567</ele>
        <time>2021-10-07T09:31:48.999Z</time>
      </trkpt>
      <trkpt lat="43.12023" lon="-0.41315">
        <ele>567</ele>
        <time>2021-10-07T09:31:53.999Z</time>
      </trkpt>
      <trkpt lat="43.12021" lon="-0.41313">
        <ele>567</ele>
        <time>2021-10-07T09:31:58.999Z</time>
      </trkpt>
      <trkpt lat="43.12019" lon="-0.41313">
        <ele>567</ele>
        <time>2021-10-07T09:32:03.999Z</time>
      </trkpt>
      <trkpt lat="43.12011" lon="-0.41317">
        <ele>568</ele>
        <time>2021-10-07T09:32:08.999Z</time>
      </trkpt>
      <trkpt lat="43.12004" lon="-0.41316">
        <ele>568</ele>
        <time>2021-10-07T09:32:13.999Z</time>
      </trkpt>
      <trkpt lat="43.11996" lon="-0.41314">
        <ele>568</ele>
        <time>2021-10-07T09:32:18.999Z</time>
      </trkpt>
      <trkpt lat="43.11986" lon="-0.41309">
        <ele>568</ele>
        <time>2021-10-07T09:32:23.999Z</time>
      </trkpt>
      <trkpt lat="43.11975" lon="-0.41302">
        <ele>568</ele>
        <time>2021-10-07T09:32:28.999Z</time>
      </trkpt>
      <trkpt lat="43.11965" lon="-0.41292">
        <ele>568</ele>
        <time>2021-10-07T09:32:33.999Z</time>
      </trkpt>
      <trkpt lat="43.11954" lon="-0.41282">
        <ele>569</ele>
        <time>2021-10-07T09:32:38.999Z</time>
      </trkpt>
      <trkpt lat="43.11946" lon="-0.41269">
        <ele>569</ele>
        <time>2021-10-07T09:32:42.999Z</time>
      </trkpt>
      <trkpt lat="43.11931" lon="-0.41261">
        <ele>569</ele>
        <time>2021-10-07T09:32:47.999Z</time>
      </trkpt>
      <trkpt lat="43.11917" lon="-0.41254">
        <ele>570</ele>
        <time>2021-10-07T09:32:52.999Z</time>
      </trkpt>
      <trkpt lat="43.11904" lon="-0.41251">
        <ele>570</ele>
        <time>2021-10-07T09:32:57.999Z</time>
      </trkpt>
      <trkpt lat="43.11894" lon="-0.41246">
        <ele>571</ele>
        <time>2021-10-07T09:33:01.999Z</time>
      </trkpt>
      <trkpt lat="43.11881" lon="-0.41235">
        <ele>569</ele>
        <time>2021-10-07T09:33:06.999Z</time>
      </trkpt>
      <trkpt lat="43.11874" lon="-0.41223">
        <ele>567</ele>
        <time>2021-10-07T09:33:11.999Z</time>
      </trkpt>
      <trkpt lat="43.11872" lon="-0.4121">
        <ele>567</ele>
        <time>2021-10-07T09:33:16.999Z</time>
      </trkpt>
      <trkpt lat="43.11869" lon="-0.41196">
        <ele>565</ele>
        <time>2021-10-07T09:33:21.999Z</time>
      </trkpt>
      <trkpt lat="43.11864" lon="-0.41184">
        <ele>565</ele>
        <time>2021-10-07T09:33:26.999Z</time>
      </trkpt>
      <trkpt lat="43.1186" lon="-0.41175">
        <ele>564</ele>
        <time>2021-10-07T09:33:31.999Z</time>
      </trkpt>
      <trkpt lat="43.11854" lon="-0.41161">
        <ele>564</ele>
        <time>2021-10-07T09:33:36.999Z</time>
      </trkpt>
      <trkpt lat="43.11851" lon="-0.41149">
        <ele>564</ele>
        <time>2021-10-07T09:33:41.999Z</time>
      </trkpt>
      <trkpt lat="43.11851" lon="-0.41145">
        <ele>564</ele>
        <time>2021-10-07T09:33:46.999Z</time>
      </trkpt>
      <trkpt lat="43.11852" lon="-0.41141">
        <ele>564</ele>
        <time>2021-10-07T09:33:51.999Z</time>
      </trkpt>
      <trkpt lat="43.1185" lon="-0.41135">
        <ele>564</ele>
        <time>2021-10-07T09:33:56.999Z</time>
      </trkpt>
      <trkpt lat="43.1185" lon="-0.41126">
        <ele>564</ele>
        <time>2021-10-07T09:34:01.999Z</time>
      </trkpt>
      <trkpt lat="43.11848" lon="-0.41118">
        <ele>559</ele>
        <time>2021-10-07T09:34:06.999Z</time>
      </trkpt>
      <trkpt lat="43.11847" lon="-0.41107">
        <ele>554</ele>
        <time>2021-10-07T09:34:10.999Z</time>
      </trkpt>
      <trkpt lat="43.11845" lon="-0.41098">
        <ele>554</ele>
        <time>2021-10-07T09:34:15.999Z</time>
      </trkpt>
      <trkpt lat="43.11842" lon="-0.41086">
        <ele>549</ele>
        <time>2021-10-07T09:34:20.999Z</time>
      </trkpt>
      <trkpt lat="43.11842" lon="-0.41079">
        <ele>549</ele>
        <time>2021-10-07T09:34:25.999Z</time>
      </trkpt>
      <trkpt lat="43.11847" lon="-0.41069">
        <ele>545</ele>
        <time>2021-10-07T09:34:30.999Z</time>
      </trkpt>
      <trkpt lat="43.11852" lon="-0.41053">
        <ele>549</ele>
        <time>2021-10-07T09:34:34.999Z</time>
      </trkpt>
      <trkpt lat="43.11853" lon="-0.41052">
        <ele>549</ele>
        <time>2021-10-07T09:34:39.999Z</time>
      </trkpt>
      <trkpt lat="43.11853" lon="-0.41052">
        <ele>549</ele>
        <time>2021-10-07T09:34:43.999Z</time>
      </trkpt>
      <trkpt lat="43.11853" lon="-0.41052">
        <ele>549</ele>
        <time>2021-10-07T09:34:48.999Z</time>
      </trkpt>
      <trkpt lat="43.11848" lon="-0.4105">
        <ele>549</ele>
        <time>2021-10-07T09:34:52.999Z</time>
      </trkpt>
      <trkpt lat="43.11837" lon="-0.41045">
        <ele>545</ele>
        <time>2021-10-07T09:34:57.999Z</time>
      </trkpt>
      <trkpt lat="43.1183" lon="-0.41048">
        <ele>545</ele>
        <time>2021-10-07T09:35:02.999Z</time>
      </trkpt>
      <trkpt lat="43.11818" lon="-0.4106">
        <ele>540</ele>
        <time>2021-10-07T09:35:06.999Z</time>
      </trkpt>
      <trkpt lat="43.11808" lon="-0.41067">
        <ele>540</ele>
        <time>2021-10-07T09:35:11.999Z</time>
      </trkpt>
      <trkpt lat="43.1179" lon="-0.41079">
        <ele>536</ele>
        <time>2021-10-07T09:35:16.999Z</time>
      </trkpt>
      <trkpt lat="43.11779" lon="-0.41085">
        <ele>536</ele>
        <time>2021-10-07T09:35:21.999Z</time>
      </trkpt>
      <trkpt lat="43.11765" lon="-0.41096">
        <ele>536</ele>
        <time>2021-10-07T09:35:26.999Z</time>
      </trkpt>
      <trkpt lat="43.11749" lon="-0.41107">
        <ele>532</ele>
        <time>2021-10-07T09:35:31.999Z</time>
      </trkpt>
      <trkpt lat="43.11742" lon="-0.41112">
        <ele>532</ele>
        <time>2021-10-07T09:35:36.999Z</time>
      </trkpt>
      <trkpt lat="43.11737" lon="-0.41115">
        <ele>532</ele>
        <time>2021-10-07T09:35:40.999Z</time>
      </trkpt>
      <trkpt lat="43.11726" lon="-0.4112">
        <ele>526</ele>
        <time>2021-10-07T09:35:45.999Z</time>
      </trkpt>
      <trkpt lat="43.11712" lon="-0.41125">
        <ele>525</ele>
        <time>2021-10-07T09:35:50.999Z</time>
      </trkpt>
      <trkpt lat="43.11694" lon="-0.4113">
        <ele>523</ele>
        <time>2021-10-07T09:35:55.999Z</time>
      </trkpt>
      <trkpt lat="43.11677" lon="-0.41137">
        <ele>522</ele>
        <time>2021-10-07T09:36:00.999Z</time>
      </trkpt>
      <trkpt lat="43.11667" lon="-0.41146">
        <ele>522</ele>
        <time>2021-10-07T09:36:05.999Z</time>
      </trkpt>
      <trkpt lat="43.11652" lon="-0.41157">
        <ele>516</ele>
        <time>2021-10-07T09:36:10.993Z</time>
      </trkpt>
      <trkpt lat="43.11633" lon="-0.41162">
        <ele>516</ele>
        <time>2021-10-07T09:36:14.999Z</time>
      </trkpt>
      <trkpt lat="43.11622" lon="-0.41164">
        <ele>508</ele>
        <time>2021-10-07T09:36:18.999Z</time>
      </trkpt>
      <trkpt lat="43.11609" lon="-0.41168">
        <ele>508</ele>
        <time>2021-10-07T09:36:22.999Z</time>
      </trkpt>
      <trkpt lat="43.11602" lon="-0.41173">
        <ele>508</ele>
        <time>2021-10-07T09:36:27.999Z</time>
      </trkpt>
      <trkpt lat="43.11593" lon="-0.41171">
        <ele>500</ele>
        <time>2021-10-07T09:36:31.999Z</time>
      </trkpt>
      <trkpt lat="43.11593" lon="-0.4117">
        <ele>500</ele>
        <time>2021-10-07T09:36:36.999Z</time>
      </trkpt>
      <trkpt lat="43.11593" lon="-0.4117">
        <ele>500</ele>
        <time>2021-10-07T09:36:41.999Z</time>
      </trkpt>
      <trkpt lat="43.11592" lon="-0.4117">
        <ele>500</ele>
        <time>2021-10-07T09:36:46.999Z</time>
      </trkpt>
      <trkpt lat="43.1158" lon="-0.41174">
        <ele>500</ele>
        <time>2021-10-07T09:36:51.999Z</time>
      </trkpt>
      <trkpt lat="43.11561" lon="-0.41181">
        <ele>496</ele>
        <time>2021-10-07T09:36:55.999Z</time>
      </trkpt>
      <trkpt lat="43.11547" lon="-0.41184">
        <ele>496</ele>
        <time>2021-10-07T09:37:00.999Z</time>
      </trkpt>
      <trkpt lat="43.11525" lon="-0.41184">
        <ele>494</ele>
        <time>2021-10-07T09:37:05.999Z</time>
      </trkpt>
      <trkpt lat="43.11504" lon="-0.41188">
        <ele>490</ele>
        <time>2021-10-07T09:37:10.999Z</time>
      </trkpt>
      <trkpt lat="43.11481" lon="-0.41194">
        <ele>486</ele>
        <time>2021-10-07T09:37:15.999Z</time>
      </trkpt>
      <trkpt lat="43.11481" lon="-0.41194">
        <ele>486</ele>
        <time>2021-10-07T09:37:19.999Z</time>
      </trkpt>
      <trkpt lat="43.1147" lon="-0.41188">
        <ele>486</ele>
        <time>2021-10-07T09:37:24.999Z</time>
      </trkpt>
      <trkpt lat="43.11457" lon="-0.41172">
        <ele>483</ele>
        <time>2021-10-07T09:37:29.999Z</time>
      </trkpt>
      <trkpt lat="43.11449" lon="-0.41156">
        <ele>483</ele>
        <time>2021-10-07T09:37:34.999Z</time>
      </trkpt>
      <trkpt lat="43.11438" lon="-0.41138">
        <ele>480</ele>
        <time>2021-10-07T09:37:38.999Z</time>
      </trkpt>
      <trkpt lat="43.11418" lon="-0.41128">
        <ele>479</ele>
        <time>2021-10-07T09:37:43.999Z</time>
      </trkpt>
      <trkpt lat="43.11397" lon="-0.41127">
        <ele>477</ele>
        <time>2021-10-07T09:37:48.999Z</time>
      </trkpt>
      <trkpt lat="43.11373" lon="-0.41125">
        <ele>473</ele>
        <time>2021-10-07T09:38:26.999Z</time>
      </trkpt>
      <trkpt lat="43.1135" lon="-0.41136">
        <ele>474</ele>
        <time>2021-10-07T09:38:31.999Z</time>
      </trkpt>
      <trkpt lat="43.11336" lon="-0.41143">
        <ele>472</ele>
        <time>2021-10-07T09:38:36.999Z</time>
      </trkpt>
      <trkpt lat="43.11328" lon="-0.41151">
        <ele>472</ele>
        <time>2021-10-07T09:38:41.999Z</time>
      </trkpt>
      <trkpt lat="43.1133" lon="-0.41163">
        <ele>471</ele>
        <time>2021-10-07T09:38:46.999Z</time>
      </trkpt>
      <trkpt lat="43.11331" lon="-0.41164">
        <ele>471</ele>
        <time>2021-10-07T09:38:51.999Z</time>
      </trkpt>
      <trkpt lat="43.11331" lon="-0.41164">
        <ele>471</ele>
        <time>2021-10-07T09:38:56.999Z</time>
      </trkpt>
      <trkpt lat="43.11332" lon="-0.41166">
        <ele>471</ele>
        <time>2021-10-07T09:39:01.999Z</time>
      </trkpt>
      <trkpt lat="43.11337" lon="-0.4118">
        <ele>471</ele>
        <time>2021-10-07T09:39:06.999Z</time>
      </trkpt>
      <trkpt lat="43.1135" lon="-0.41208">
        <ele>471</ele>
        <time>2021-10-07T09:39:11.999Z</time>
      </trkpt>
      <trkpt lat="43.1136" lon="-0.41232">
        <ele>468</ele>
        <time>2021-10-07T09:39:16.999Z</time>
      </trkpt>
      <trkpt lat="43.11376" lon="-0.4126">
        <ele>466</ele>
        <time>2021-10-07T09:39:21.999Z</time>
      </trkpt>
      <trkpt lat="43.11386" lon="-0.41283">
        <ele>463</ele>
        <time>2021-10-07T09:39:26.999Z</time>
      </trkpt>
      <trkpt lat="43.11387" lon="-0.41305">
        <ele>462</ele>
        <time>2021-10-07T09:39:31.999Z</time>
      </trkpt>
      <trkpt lat="43.11385" lon="-0.41329">
        <ele>462</ele>
        <time>2021-10-07T09:39:36.999Z</time>
      </trkpt>
      <trkpt lat="43.11394" lon="-0.41349">
        <ele>461</ele>
        <time>2021-10-07T09:39:41.999Z</time>
      </trkpt>
      <trkpt lat="43.11402" lon="-0.4136">
        <ele>461</ele>
        <time>2021-10-07T09:39:45.999Z</time>
      </trkpt>
      <trkpt lat="43.11407" lon="-0.41362">
        <ele>460</ele>
        <time>2021-10-07T09:39:50.999Z</time>
      </trkpt>
      <trkpt lat="43.11407" lon="-0.41362">
        <ele>460</ele>
        <time>2021-10-07T09:39:54.999Z</time>
      </trkpt>
      <trkpt lat="43.11407" lon="-0.41362">
        <ele>460</ele>
        <time>2021-10-07T09:39:59.999Z</time>
      </trkpt>
      <trkpt lat="43.11433" lon="-0.41411">
        <ele>458</ele>
        <time>2021-10-07T09:40:04.999Z</time>
      </trkpt>
      <trkpt lat="43.11441" lon="-0.41425">
        <ele>458</ele>
        <time>2021-10-07T09:40:09.999Z</time>
      </trkpt>
      <trkpt lat="43.11456" lon="-0.4144">
        <ele>456</ele>
        <time>2021-10-07T09:40:14.999Z</time>
      </trkpt>
      <trkpt lat="43.11479" lon="-0.4146">
        <ele>448</ele>
        <time>2021-10-07T09:40:19.999Z</time>
      </trkpt>
      <trkpt lat="43.11499" lon="-0.41471">
        <ele>453</ele>
        <time>2021-10-07T09:40:23.999Z</time>
      </trkpt>
      <trkpt lat="43.11526" lon="-0.41479">
        <ele>458</ele>
        <time>2021-10-07T09:41:21.999Z</time>
      </trkpt>
      <trkpt lat="43.11557" lon="-0.415">
        <ele>452</ele>
        <time>2021-10-07T09:41:26.999Z</time>
      </trkpt>
      <trkpt lat="43.11583" lon="-0.41525">
        <ele>452</ele>
        <time>2021-10-07T09:41:31.999Z</time>
      </trkpt>
      <trkpt lat="43.11595" lon="-0.41536">
        <ele>452</ele>
        <time>2021-10-07T09:41:56.999Z</time>
      </trkpt>
      <trkpt lat="43.11607" lon="-0.41551">
        <ele>454</ele>
        <time>2021-10-07T09:42:01.999Z</time>
      </trkpt>
      <trkpt lat="43.11625" lon="-0.41565">
        <ele>454</ele>
        <time>2021-10-07T09:42:05.999Z</time>
      </trkpt>
      <trkpt lat="43.11637" lon="-0.41577">
        <ele>455</ele>
        <time>2021-10-07T09:42:10.999Z</time>
      </trkpt>
      <trkpt lat="43.11652" lon="-0.41609">
        <ele>447</ele>
        <time>2021-10-07T09:42:15.999Z</time>
      </trkpt>
      <trkpt lat="43.11667" lon="-0.41642">
        <ele>449</ele>
        <time>2021-10-07T09:42:20.999Z</time>
      </trkpt>
      <trkpt lat="43.11688" lon="-0.41669">
        <ele>451</ele>
        <time>2021-10-07T09:42:25.999Z</time>
      </trkpt>
      <trkpt lat="43.11708" lon="-0.41681">
        <ele>448</ele>
        <time>2021-10-07T09:42:30.999Z</time>
      </trkpt>
      <trkpt lat="43.11733" lon="-0.41694">
        <ele>448</ele>
        <time>2021-10-07T09:42:35.999Z</time>
      </trkpt>
      <trkpt lat="43.11753" lon="-0.41702">
        <ele>453</ele>
        <time>2021-10-07T09:42:40.999Z</time>
      </trkpt>
      <trkpt lat="43.11781" lon="-0.41703">
        <ele>456</ele>
        <time>2021-10-07T09:42:45.999Z</time>
      </trkpt>
      <trkpt lat="43.11809" lon="-0.41711">
        <ele>453</ele>
        <time>2021-10-07T09:42:50.999Z</time>
      </trkpt>
      <trkpt lat="43.11834" lon="-0.41737">
        <ele>451</ele>
        <time>2021-10-07T09:42:55.999Z</time>
      </trkpt>
      <trkpt lat="43.11856" lon="-0.41758">
        <ele>457</ele>
        <time>2021-10-07T09:43:00.999Z</time>
      </trkpt>
      <trkpt lat="43.1187" lon="-0.41781">
        <ele>452</ele>
        <time>2021-10-07T09:43:05.999Z</time>
      </trkpt>
      <trkpt lat="43.11882" lon="-0.41817">
        <ele>455</ele>
        <time>2021-10-07T09:43:09.999Z</time>
      </trkpt>
      <trkpt lat="43.11896" lon="-0.41856">
        <ele>451</ele>
        <time>2021-10-07T09:43:14.999Z</time>
      </trkpt>
      <trkpt lat="43.1192" lon="-0.41888">
        <ele>452</ele>
        <time>2021-10-07T09:43:18.999Z</time>
      </trkpt>
      <trkpt lat="43.11953" lon="-0.41899">
        <ele>457</ele>
        <time>2021-10-07T09:43:23.999Z</time>
      </trkpt>
      <trkpt lat="43.1198" lon="-0.41913">
        <ele>451</ele>
        <time>2021-10-07T09:43:28.999Z</time>
      </trkpt>
      <trkpt lat="43.11996" lon="-0.41938">
        <ele>441</ele>
        <time>2021-10-07T09:43:33.999Z</time>
      </trkpt>
      <trkpt lat="43.12007" lon="-0.41973">
        <ele>433</ele>
        <time>2021-10-07T09:43:38.999Z</time>
      </trkpt>
      <trkpt lat="43.12028" lon="-0.42014">
        <ele>432</ele>
        <time>2021-10-07T09:43:42.999Z</time>
      </trkpt>
      <trkpt lat="43.12051" lon="-0.4207">
        <ele>431</ele>
        <time>2021-10-07T09:43:47.999Z</time>
      </trkpt>
      <trkpt lat="43.12063" lon="-0.42113">
        <ele>426</ele>
        <time>2021-10-07T09:43:52.999Z</time>
      </trkpt>
      <trkpt lat="43.12079" lon="-0.42155">
        <ele>419</ele>
        <time>2021-10-07T09:43:57.999Z</time>
      </trkpt>
      <trkpt lat="43.12107" lon="-0.42199">
        <ele>416</ele>
        <time>2021-10-07T09:44:02.999Z</time>
      </trkpt>
      <trkpt lat="43.12148" lon="-0.4223">
        <ele>417</ele>
        <time>2021-10-07T09:44:07.999Z</time>
      </trkpt>
      <trkpt lat="43.12172" lon="-0.42275">
        <ele>409</ele>
        <time>2021-10-07T09:44:12.999Z</time>
      </trkpt>
      <trkpt lat="43.122" lon="-0.4231">
        <ele>408</ele>
        <time>2021-10-07T09:44:17.999Z</time>
      </trkpt>
      <trkpt lat="43.12223" lon="-0.42341">
        <ele>409</ele>
        <time>2021-10-07T09:44:22.999Z</time>
      </trkpt>
      <trkpt lat="43.12239" lon="-0.42362">
        <ele>410</ele>
        <time>2021-10-07T09:44:27.999Z</time>
      </trkpt>
      <trkpt lat="43.12257" lon="-0.42391">
        <ele>408</ele>
        <time>2021-10-07T09:44:31.999Z</time>
      </trkpt>
      <trkpt lat="43.12271" lon="-0.42413">
        <ele>408</ele>
        <time>2021-10-07T09:44:36.999Z</time>
      </trkpt>
      <trkpt lat="43.12289" lon="-0.42443">
        <ele>406</ele>
        <time>2021-10-07T09:44:41.999Z</time>
      </trkpt>
      <trkpt lat="43.12306" lon="-0.42472">
        <ele>410</ele>
        <time>2021-10-07T09:44:46.999Z</time>
      </trkpt>
      <trkpt lat="43.12321" lon="-0.42495">
        <ele>414</ele>
        <time>2021-10-07T09:44:51.999Z</time>
      </trkpt>
      <trkpt lat="43.12337" lon="-0.42522">
        <ele>414</ele>
        <time>2021-10-07T09:44:56.999Z</time>
      </trkpt>
      <trkpt lat="43.12354" lon="-0.42546">
        <ele>418</ele>
        <time>2021-10-07T09:45:01.999Z</time>
      </trkpt>
      <trkpt lat="43.12366" lon="-0.42565">
        <ele>418</ele>
        <time>2021-10-07T09:45:05.999Z</time>
      </trkpt>
      <trkpt lat="43.12379" lon="-0.42591">
        <ele>420</ele>
        <time>2021-10-07T09:45:10.999Z</time>
      </trkpt>
      <trkpt lat="43.12392" lon="-0.42615">
        <ele>421</ele>
        <time>2021-10-07T09:45:14.999Z</time>
      </trkpt>
      <trkpt lat="43.12404" lon="-0.42631">
        <ele>427</ele>
        <time>2021-10-07T09:45:19.999Z</time>
      </trkpt>
      <trkpt lat="43.12414" lon="-0.42652">
        <ele>427</ele>
        <time>2021-10-07T09:45:24.999Z</time>
      </trkpt>
      <trkpt lat="43.12422" lon="-0.4267">
        <ele>427</ele>
        <time>2021-10-07T09:45:29.999Z</time>
      </trkpt>
      <trkpt lat="43.12431" lon="-0.42685">
        <ele>431</ele>
        <time>2021-10-07T09:45:34.999Z</time>
      </trkpt>
      <trkpt lat="43.12441" lon="-0.427">
        <ele>431</ele>
        <time>2021-10-07T09:45:39.999Z</time>
      </trkpt>
      <trkpt lat="43.12451" lon="-0.4271">
        <ele>430</ele>
        <time>2021-10-07T09:45:43.999Z</time>
      </trkpt>
      <trkpt lat="43.12458" lon="-0.42697">
        <ele>434</ele>
        <time>2021-10-07T09:45:48.999Z</time>
      </trkpt>
      <trkpt lat="43.12458" lon="-0.42678">
        <ele>431</ele>
        <time>2021-10-07T09:45:53.999Z</time>
      </trkpt>
      <trkpt lat="43.12459" lon="-0.4266">
        <ele>435</ele>
        <time>2021-10-07T09:45:58.999Z</time>
      </trkpt>
      <trkpt lat="43.12467" lon="-0.42647">
        <ele>436</ele>
        <time>2021-10-07T09:46:03.999Z</time>
      </trkpt>
      <trkpt lat="43.12479" lon="-0.4264">
        <ele>436</ele>
        <time>2021-10-07T09:46:08.999Z</time>
      </trkpt>
      <trkpt lat="43.12491" lon="-0.42634">
        <ele>440</ele>
        <time>2021-10-07T09:46:13.999Z</time>
      </trkpt>
      <trkpt lat="43.12501" lon="-0.42636">
        <ele>440</ele>
        <time>2021-10-07T09:46:18.999Z</time>
      </trkpt>
      <trkpt lat="43.12502" lon="-0.42639">
        <ele>440</ele>
        <time>2021-10-07T09:46:23.999Z</time>
      </trkpt>
      <trkpt lat="43.1251" lon="-0.42646">
        <ele>440</ele>
        <time>2021-10-07T09:46:28.999Z</time>
      </trkpt>
      <trkpt lat="43.1252" lon="-0.42646">
        <ele>444</ele>
        <time>2021-10-07T09:46:33.999Z</time>
      </trkpt>
      <trkpt lat="43.12516" lon="-0.42633">
        <ele>444</ele>
        <time>2021-10-07T09:46:38.999Z</time>
      </trkpt>
      <trkpt lat="43.12517" lon="-0.42632">
        <ele>444</ele>
        <time>2021-10-07T09:46:43.999Z</time>
      </trkpt>
      <trkpt lat="43.12517" lon="-0.42632">
        <ele>444</ele>
        <time>2021-10-07T09:46:48.999Z</time>
      </trkpt>
      <trkpt lat="43.12515" lon="-0.42629">
        <ele>444</ele>
        <time>2021-10-07T09:46:53.999Z</time>
      </trkpt>
      <trkpt lat="43.12511" lon="-0.42617">
        <ele>443</ele>
        <time>2021-10-07T09:46:58.999Z</time>
      </trkpt>
      <trkpt lat="43.12509" lon="-0.42602">
        <ele>443</ele>
        <time>2021-10-07T09:47:03.999Z</time>
      </trkpt>
      <trkpt lat="43.12517" lon="-0.42594">
        <ele>449</ele>
        <time>2021-10-07T09:47:07.999Z</time>
      </trkpt>
      <trkpt lat="43.12518" lon="-0.42594">
        <ele>449</ele>
        <time>2021-10-07T09:47:12.999Z</time>
      </trkpt>
      <trkpt lat="43.12518" lon="-0.42594">
        <ele>449</ele>
        <time>2021-10-07T09:47:37.999Z</time>
      </trkpt>
      <trkpt lat="43.12518" lon="-0.42594">
        <ele>449</ele>
        <time>2021-10-07T09:47:41.999Z</time>
      </trkpt>
      <trkpt lat="43.12517" lon="-0.42595">
        <ele>449</ele>
        <time>2021-10-07T09:47:45.999Z</time>
      </trkpt>
      <trkpt lat="43.12517" lon="-0.42595">
        <ele>449</ele>
        <time>2021-10-07T09:47:50.999Z</time>
      </trkpt>
      <trkpt lat="43.12516" lon="-0.42595">
        <ele>449</ele>
        <time>2021-10-07T09:47:55.999Z</time>
      </trkpt>
      <trkpt lat="43.12508" lon="-0.42605">
        <ele>443</ele>
        <time>2021-10-07T09:48:00.999Z</time>
      </trkpt>
      <trkpt lat="43.12512" lon="-0.42627">
        <ele>440</ele>
        <time>2021-10-07T09:48:05.999Z</time>
      </trkpt>
      <trkpt lat="43.12519" lon="-0.42632">
        <ele>444</ele>
        <time>2021-10-07T09:48:10.999Z</time>
      </trkpt>
      <trkpt lat="43.12528" lon="-0.42626">
        <ele>444</ele>
        <time>2021-10-07T09:48:15.999Z</time>
      </trkpt>
      <trkpt lat="43.12535" lon="-0.42617">
        <ele>446</ele>
        <time>2021-10-07T09:48:21Z</time>
      </trkpt>
      <trkpt lat="43.12546" lon="-0.42615">
        <ele>452</ele>
        <time>2021-10-07T09:48:25.999Z</time>
      </trkpt>
      <trkpt lat="43.12555" lon="-0.42613">
        <ele>452</ele>
        <time>2021-10-07T09:48:29.999Z</time>
      </trkpt>
      <trkpt lat="43.12564" lon="-0.42618">
        <ele>452</ele>
        <time>2021-10-07T09:48:34.999Z</time>
      </trkpt>
      <trkpt lat="43.12575" lon="-0.42619">
        <ele>461</ele>
        <time>2021-10-07T09:48:39.999Z</time>
      </trkpt>
      <trkpt lat="43.12587" lon="-0.42621">
        <ele>461</ele>
        <time>2021-10-07T09:48:44.999Z</time>
      </trkpt>
      <trkpt lat="43.12596" lon="-0.42632">
        <ele>458</ele>
        <time>2021-10-07T09:48:49.999Z</time>
      </trkpt>
      <trkpt lat="43.12602" lon="-0.42645">
        <ele>462</ele>
        <time>2021-10-07T09:48:54.999Z</time>
      </trkpt>
      <trkpt lat="43.12609" lon="-0.42657">
        <ele>459</ele>
        <time>2021-10-07T09:48:59.999Z</time>
      </trkpt>
      <trkpt lat="43.12619" lon="-0.42666">
        <ele>459</ele>
        <time>2021-10-07T09:49:04.997Z</time>
      </trkpt>
      <trkpt lat="43.12628" lon="-0.42672">
        <ele>465</ele>
        <time>2021-10-07T09:49:09.999Z</time>
      </trkpt>
      <trkpt lat="43.12637" lon="-0.42671">
        <ele>465</ele>
        <time>2021-10-07T09:49:13.999Z</time>
      </trkpt>
      <trkpt lat="43.12647" lon="-0.42662">
        <ele>465</ele>
        <time>2021-10-07T09:49:18.999Z</time>
      </trkpt>
      <trkpt lat="43.12653" lon="-0.42647">
        <ele>477</ele>
        <time>2021-10-07T09:49:23.999Z</time>
      </trkpt>
      <trkpt lat="43.12657" lon="-0.42634">
        <ele>477</ele>
        <time>2021-10-07T09:49:28.999Z</time>
      </trkpt>
      <trkpt lat="43.12655" lon="-0.42619">
        <ele>480</ele>
        <time>2021-10-07T09:49:33.999Z</time>
      </trkpt>
      <trkpt lat="43.12652" lon="-0.42605">
        <ele>472</ele>
        <time>2021-10-07T09:49:38.999Z</time>
      </trkpt>
      <trkpt lat="43.1265" lon="-0.42592">
        <ele>477</ele>
        <time>2021-10-07T09:49:43.999Z</time>
      </trkpt>
      <trkpt lat="43.12645" lon="-0.42579">
        <ele>477</ele>
        <time>2021-10-07T09:49:48.999Z</time>
      </trkpt>
      <trkpt lat="43.12642" lon="-0.42569">
        <ele>483</ele>
        <time>2021-10-07T09:49:53.999Z</time>
      </trkpt>
      <trkpt lat="43.12635" lon="-0.42554">
        <ele>483</ele>
        <time>2021-10-07T09:49:58.999Z</time>
      </trkpt>
      <trkpt lat="43.12628" lon="-0.42541">
        <ele>490</ele>
        <time>2021-10-07T09:50:03.999Z</time>
      </trkpt>
      <trkpt lat="43.12623" lon="-0.42527">
        <ele>484</ele>
        <time>2021-10-07T09:50:08.999Z</time>
      </trkpt>
      <trkpt lat="43.12618" lon="-0.42514">
        <ele>484</ele>
        <time>2021-10-07T09:50:13.999Z</time>
      </trkpt>
      <trkpt lat="43.12615" lon="-0.42499">
        <ele>492</ele>
        <time>2021-10-07T09:50:18.999Z</time>
      </trkpt>
      <trkpt lat="43.12608" lon="-0.42487">
        <ele>492</ele>
        <time>2021-10-07T09:50:23.999Z</time>
      </trkpt>
      <trkpt lat="43.12602" lon="-0.42474">
        <ele>497</ele>
        <time>2021-10-07T09:50:28.999Z</time>
      </trkpt>
      <trkpt lat="43.12598" lon="-0.42458">
        <ele>500</ele>
        <time>2021-10-07T09:50:32.999Z</time>
      </trkpt>
      <trkpt lat="43.12594" lon="-0.42447">
        <ele>499</ele>
        <time>2021-10-07T09:50:37.999Z</time>
      </trkpt>
      <trkpt lat="43.12585" lon="-0.42435">
        <ele>499</ele>
        <time>2021-10-07T09:50:42.999Z</time>
      </trkpt>
      <trkpt lat="43.12584" lon="-0.42419">
        <ele>504</ele>
        <time>2021-10-07T09:50:47.999Z</time>
      </trkpt>
      <trkpt lat="43.1258" lon="-0.42408">
        <ele>504</ele>
        <time>2021-10-07T09:50:52.999Z</time>
      </trkpt>
      <trkpt lat="43.12571" lon="-0.42405">
        <ele>504</ele>
        <time>2021-10-07T09:50:57.999Z</time>
      </trkpt>
      <trkpt lat="43.12562" lon="-0.42398">
        <ele>505</ele>
        <time>2021-10-07T09:51:02.999Z</time>
      </trkpt>
      <trkpt lat="43.12555" lon="-0.42389">
        <ele>505</ele>
        <time>2021-10-07T09:51:07.999Z</time>
      </trkpt>
      <trkpt lat="43.12545" lon="-0.42378">
        <ele>505</ele>
        <time>2021-10-07T09:51:12.999Z</time>
      </trkpt>
      <trkpt lat="43.12538" lon="-0.42367">
        <ele>505</ele>
        <time>2021-10-07T09:51:16.999Z</time>
      </trkpt>
      <trkpt lat="43.12534" lon="-0.42355">
        <ele>505</ele>
        <time>2021-10-07T09:52:04.999Z</time>
      </trkpt>
      <trkpt lat="43.1253" lon="-0.42349">
        <ele>505</ele>
        <time>2021-10-07T09:52:09.999Z</time>
      </trkpt>
      <trkpt lat="43.12526" lon="-0.42339">
        <ele>512</ele>
        <time>2021-10-07T09:52:14.999Z</time>
      </trkpt>
      <trkpt lat="43.12521" lon="-0.42329">
        <ele>512</ele>
        <time>2021-10-07T09:52:19.999Z</time>
      </trkpt>
      <trkpt lat="43.12517" lon="-0.42319">
        <ele>515</ele>
        <time>2021-10-07T09:52:24.999Z</time>
      </trkpt>
      <trkpt lat="43.12513" lon="-0.42309">
        <ele>515</ele>
        <time>2021-10-07T09:52:29.999Z</time>
      </trkpt>
      <trkpt lat="43.12508" lon="-0.42298">
        <ele>515</ele>
        <time>2021-10-07T09:52:34.999Z</time>
      </trkpt>
      <trkpt lat="43.12501" lon="-0.42288">
        <ele>517</ele>
        <time>2021-10-07T09:52:39.999Z</time>
      </trkpt>
      <trkpt lat="43.12493" lon="-0.42279">
        <ele>517</ele>
        <time>2021-10-07T09:52:44.999Z</time>
      </trkpt>
      <trkpt lat="43.12484" lon="-0.42269">
        <ele>512</ele>
        <time>2021-10-07T09:52:48.999Z</time>
      </trkpt>
      <trkpt lat="43.12477" lon="-0.42256">
        <ele>516</ele>
        <time>2021-10-07T09:52:53.999Z</time>
      </trkpt>
      <trkpt lat="43.1247" lon="-0.42244">
        <ele>516</ele>
        <time>2021-10-07T09:52:58.999Z</time>
      </trkpt>
      <trkpt lat="43.1246" lon="-0.42232">
        <ele>517</ele>
        <time>2021-10-07T09:53:03.999Z</time>
      </trkpt>
      <trkpt lat="43.12453" lon="-0.42217">
        <ele>514</ele>
        <time>2021-10-07T09:53:08.999Z</time>
      </trkpt>
      <trkpt lat="43.12443" lon="-0.42205">
        <ele>517</ele>
        <time>2021-10-07T09:53:13.999Z</time>
      </trkpt>
      <trkpt lat="43.12434" lon="-0.42196">
        <ele>517</ele>
        <time>2021-10-07T09:53:18.999Z</time>
      </trkpt>
      <trkpt lat="43.12424" lon="-0.42185">
        <ele>514</ele>
        <time>2021-10-07T09:53:23.999Z</time>
      </trkpt>
      <trkpt lat="43.12417" lon="-0.4217">
        <ele>519</ele>
        <time>2021-10-07T09:53:28.999Z</time>
      </trkpt>
      <trkpt lat="43.12409" lon="-0.42156">
        <ele>519</ele>
        <time>2021-10-07T09:53:33.999Z</time>
      </trkpt>
      <trkpt lat="43.12401" lon="-0.42143">
        <ele>522</ele>
        <time>2021-10-07T09:53:38.999Z</time>
      </trkpt>
      <trkpt lat="43.12394" lon="-0.42131">
        <ele>522</ele>
        <time>2021-10-07T09:53:43.999Z</time>
      </trkpt>
      <trkpt lat="43.12388" lon="-0.42123">
        <ele>529</ele>
        <time>2021-10-07T09:53:48.999Z</time>
      </trkpt>
      <trkpt lat="43.12384" lon="-0.42111">
        <ele>529</ele>
        <time>2021-10-07T09:53:53.999Z</time>
      </trkpt>
      <trkpt lat="43.12389" lon="-0.421">
        <ele>529</ele>
        <time>2021-10-07T09:53:58.999Z</time>
      </trkpt>
      <trkpt lat="43.12394" lon="-0.42094">
        <ele>535</ele>
        <time>2021-10-07T09:54:03.999Z</time>
      </trkpt>
      <trkpt lat="43.12401" lon="-0.4209">
        <ele>535</ele>
        <time>2021-10-07T09:54:08.999Z</time>
      </trkpt>
      <trkpt lat="43.12408" lon="-0.42084">
        <ele>537</ele>
        <time>2021-10-07T09:54:13.999Z</time>
      </trkpt>
      <trkpt lat="43.12418" lon="-0.42076">
        <ele>537</ele>
        <time>2021-10-07T09:54:18.999Z</time>
      </trkpt>
      <trkpt lat="43.12424" lon="-0.42064">
        <ele>544</ele>
        <time>2021-10-07T09:54:23.999Z</time>
      </trkpt>
      <trkpt lat="43.12422" lon="-0.42052">
        <ele>544</ele>
        <time>2021-10-07T09:54:27.999Z</time>
      </trkpt>
      <trkpt lat="43.1242" lon="-0.42047">
        <ele>544</ele>
        <time>2021-10-07T09:54:32.999Z</time>
      </trkpt>
      <trkpt lat="43.12417" lon="-0.42037">
        <ele>548</ele>
        <time>2021-10-07T09:54:37.999Z</time>
      </trkpt>
      <trkpt lat="43.12411" lon="-0.42026">
        <ele>548</ele>
        <time>2021-10-07T09:54:42.999Z</time>
      </trkpt>
      <trkpt lat="43.12402" lon="-0.42013">
        <ele>552</ele>
        <time>2021-10-07T09:54:47.999Z</time>
      </trkpt>
      <trkpt lat="43.12393" lon="-0.42001">
        <ele>552</ele>
        <time>2021-10-07T09:54:52.999Z</time>
      </trkpt>
      <trkpt lat="43.12381" lon="-0.4199">
        <ele>552</ele>
        <time>2021-10-07T09:54:57.999Z</time>
      </trkpt>
      <trkpt lat="43.12374" lon="-0.41979">
        <ele>556</ele>
        <time>2021-10-07T09:55:02.999Z</time>
      </trkpt>
      <trkpt lat="43.12365" lon="-0.41968">
        <ele>556</ele>
        <time>2021-10-07T09:55:07.999Z</time>
      </trkpt>
      <trkpt lat="43.12356" lon="-0.41957">
        <ele>561</ele>
        <time>2021-10-07T09:55:11.999Z</time>
      </trkpt>
      <trkpt lat="43.12349" lon="-0.41945">
        <ele>561</ele>
        <time>2021-10-07T09:55:16.999Z</time>
      </trkpt>
      <trkpt lat="43.1234" lon="-0.41934">
        <ele>555</ele>
        <time>2021-10-07T09:55:21.999Z</time>
      </trkpt>
      <trkpt lat="43.12332" lon="-0.4192">
        <ele>559</ele>
        <time>2021-10-07T09:55:26.999Z</time>
      </trkpt>
      <trkpt lat="43.12332" lon="-0.4192">
        <ele>559</ele>
        <time>2021-10-07T09:55:31.999Z</time>
      </trkpt>
      <trkpt lat="43.12332" lon="-0.4192">
        <ele>559</ele>
        <time>2021-10-07T09:55:36.999Z</time>
      </trkpt>
      <trkpt lat="43.12331" lon="-0.41919">
        <ele>559</ele>
        <time>2021-10-07T09:55:41.999Z</time>
      </trkpt>
      <trkpt lat="43.12325" lon="-0.41909">
        <ele>559</ele>
        <time>2021-10-07T09:55:46.999Z</time>
      </trkpt>
      <trkpt lat="43.12316" lon="-0.41895">
        <ele>556</ele>
        <time>2021-10-07T09:55:51.999Z</time>
      </trkpt>
      <trkpt lat="43.12304" lon="-0.41883">
        <ele>556</ele>
        <time>2021-10-07T09:55:56.999Z</time>
      </trkpt>
      <trkpt lat="43.12294" lon="-0.41866">
        <ele>557</ele>
        <time>2021-10-07T09:56:01.999Z</time>
      </trkpt>
      <trkpt lat="43.12286" lon="-0.41851">
        <ele>554</ele>
        <time>2021-10-07T09:56:21.999Z</time>
      </trkpt>
      <trkpt lat="43.12278" lon="-0.41837">
        <ele>558</ele>
        <time>2021-10-07T09:56:26.999Z</time>
      </trkpt>
      <trkpt lat="43.12272" lon="-0.41823">
        <ele>558</ele>
        <time>2021-10-07T09:56:31.999Z</time>
      </trkpt>
      <trkpt lat="43.12264" lon="-0.41812">
        <ele>561</ele>
        <time>2021-10-07T09:56:36.999Z</time>
      </trkpt>
      <trkpt lat="43.12252" lon="-0.41804">
        <ele>556</ele>
        <time>2021-10-07T09:56:41.999Z</time>
      </trkpt>
      <trkpt lat="43.12241" lon="-0.41791">
        <ele>559</ele>
        <time>2021-10-07T09:56:46.999Z</time>
      </trkpt>
      <trkpt lat="43.12229" lon="-0.4178">
        <ele>556</ele>
        <time>2021-10-07T09:56:51.999Z</time>
      </trkpt>
      <trkpt lat="43.12217" lon="-0.41767">
        <ele>556</ele>
        <time>2021-10-07T09:56:56.999Z</time>
      </trkpt>
      <trkpt lat="43.12211" lon="-0.41752">
        <ele>561</ele>
        <time>2021-10-07T09:57:00.999Z</time>
      </trkpt>
      <trkpt lat="43.12207" lon="-0.41735">
        <ele>561</ele>
        <time>2021-10-07T09:57:04.999Z</time>
      </trkpt>
      <trkpt lat="43.1221" lon="-0.41723">
        <ele>564</ele>
        <time>2021-10-07T09:57:09.999Z</time>
      </trkpt>
      <trkpt lat="43.12215" lon="-0.41716">
        <ele>564</ele>
        <time>2021-10-07T09:57:14.999Z</time>
      </trkpt>
      <trkpt lat="43.12218" lon="-0.41707">
        <ele>565</ele>
        <time>2021-10-07T09:57:19.999Z</time>
      </trkpt>
      <trkpt lat="43.12221" lon="-0.41699">
        <ele>565</ele>
        <time>2021-10-07T09:57:24.999Z</time>
      </trkpt>
      <trkpt lat="43.12225" lon="-0.4169">
        <ele>565</ele>
        <time>2021-10-07T09:57:29.999Z</time>
      </trkpt>
      <trkpt lat="43.1223" lon="-0.41682">
        <ele>565</ele>
        <time>2021-10-07T09:57:34.999Z</time>
      </trkpt>
      <trkpt lat="43.12239" lon="-0.41674">
        <ele>568</ele>
        <time>2021-10-07T09:57:39.999Z</time>
      </trkpt>
      <trkpt lat="43.12247" lon="-0.41667">
        <ele>568</ele>
        <time>2021-10-07T09:57:44.999Z</time>
      </trkpt>
      <trkpt lat="43.12255" lon="-0.41661">
        <ele>568</ele>
        <time>2021-10-07T09:57:48.999Z</time>
      </trkpt>
      <trkpt lat="43.12265" lon="-0.41653">
        <ele>571</ele>
        <time>2021-10-07T09:57:53.999Z</time>
      </trkpt>
      <trkpt lat="43.12273" lon="-0.41648">
        <ele>570</ele>
        <time>2021-10-07T09:57:58.999Z</time>
      </trkpt>
      <trkpt lat="43.12281" lon="-0.41646">
        <ele>570</ele>
        <time>2021-10-07T09:58:03.999Z</time>
      </trkpt>
      <trkpt lat="43.12293" lon="-0.41644">
        <ele>571</ele>
        <time>2021-10-07T09:58:08.999Z</time>
      </trkpt>
      <trkpt lat="43.12301" lon="-0.41642">
        <ele>571</ele>
        <time>2021-10-07T09:58:12.999Z</time>
      </trkpt>
      <trkpt lat="43.12312" lon="-0.41637">
        <ele>571</ele>
        <time>2021-10-07T09:58:17.999Z</time>
      </trkpt>
      <trkpt lat="43.1232" lon="-0.41632">
        <ele>571</ele>
        <time>2021-10-07T09:58:22.999Z</time>
      </trkpt>
      <trkpt lat="43.12332" lon="-0.41628">
        <ele>571</ele>
        <time>2021-10-07T09:58:27.999Z</time>
      </trkpt>
      <trkpt lat="43.12341" lon="-0.41622">
        <ele>566</ele>
        <time>2021-10-07T09:58:32.999Z</time>
      </trkpt>
      <trkpt lat="43.12351" lon="-0.4161">
        <ele>563</ele>
        <time>2021-10-07T09:58:37.999Z</time>
      </trkpt>
      <trkpt lat="43.12366" lon="-0.41595">
        <ele>559</ele>
        <time>2021-10-07T09:58:42.999Z</time>
      </trkpt>
      <trkpt lat="43.12382" lon="-0.41581">
        <ele>556</ele>
        <time>2021-10-07T09:58:47.999Z</time>
      </trkpt>
      <trkpt lat="43.12395" lon="-0.4157">
        <ele>556</ele>
        <time>2021-10-07T09:58:51.999Z</time>
      </trkpt>
      <trkpt lat="43.12409" lon="-0.41561">
        <ele>548</ele>
        <time>2021-10-07T09:58:56.999Z</time>
      </trkpt>
      <trkpt lat="43.12422" lon="-0.41552">
        <ele>548</ele>
        <time>2021-10-07T09:59:01.999Z</time>
      </trkpt>
      <trkpt lat="43.12434" lon="-0.41544">
        <ele>543</ele>
        <time>2021-10-07T09:59:06.999Z</time>
      </trkpt>
      <trkpt lat="43.12442" lon="-0.41539">
        <ele>542</ele>
        <time>2021-10-07T09:59:11.999Z</time>
      </trkpt>
      <trkpt lat="43.12449" lon="-0.41527">
        <ele>542</ele>
        <time>2021-10-07T09:59:15.999Z</time>
      </trkpt>
      <trkpt lat="43.12456" lon="-0.41514">
        <ele>542</ele>
        <time>2021-10-07T09:59:20.999Z</time>
      </trkpt>
      <trkpt lat="43.12466" lon="-0.41499">
        <ele>536</ele>
        <time>2021-10-07T09:59:25.999Z</time>
      </trkpt>
      <trkpt lat="43.12475" lon="-0.41489">
        <ele>536</ele>
        <time>2021-10-07T09:59:30.999Z</time>
      </trkpt>
      <trkpt lat="43.12483" lon="-0.41484">
        <ele>534</ele>
        <time>2021-10-07T09:59:35.999Z</time>
      </trkpt>
      <trkpt lat="43.12496" lon="-0.41482">
        <ele>528</ele>
        <time>2021-10-07T09:59:40.999Z</time>
      </trkpt>
      <trkpt lat="43.1251" lon="-0.41482">
        <ele>528</ele>
        <time>2021-10-07T09:59:45.999Z</time>
      </trkpt>
      <trkpt lat="43.12517" lon="-0.41483">
        <ele>524</ele>
        <time>2021-10-07T09:59:50.999Z</time>
      </trkpt>
      <trkpt lat="43.12527" lon="-0.41482">
        <ele>524</ele>
        <time>2021-10-07T09:59:55.999Z</time>
      </trkpt>
      <trkpt lat="43.12542" lon="-0.41474">
        <ele>521</ele>
        <time>2021-10-07T09:59:59.999Z</time>
      </trkpt>
      <trkpt lat="43.12536" lon="-0.41469">
        <ele>524</ele>
        <time>2021-10-07T10:00:04.999Z</time>
      </trkpt>
      <trkpt lat="43.1253" lon="-0.41464">
        <ele>524</ele>
        <time>2021-10-07T10:00:09.999Z</time>
      </trkpt>
      <trkpt lat="43.12522" lon="-0.41459">
        <ele>524</ele>
        <time>2021-10-07T10:00:14.999Z</time>
      </trkpt>
      <trkpt lat="43.12515" lon="-0.41458">
        <ele>523</ele>
        <time>2021-10-07T10:00:18.999Z</time>
      </trkpt>
      <trkpt lat="43.12516" lon="-0.41459">
        <ele>524</ele>
        <time>2021-10-07T10:00:23.999Z</time>
      </trkpt>
      <trkpt lat="43.12516" lon="-0.41459">
        <ele>524</ele>
        <time>2021-10-07T10:00:27.999Z</time>
      </trkpt>
      <trkpt lat="43.12516" lon="-0.41458">
        <ele>524</ele>
        <time>2021-10-07T10:00:32.999Z</time>
      </trkpt>
      <trkpt lat="43.12509" lon="-0.41456">
        <ele>526</ele>
        <time>2021-10-07T10:01:07.999Z</time>
      </trkpt>
      <trkpt lat="43.12499" lon="-0.41445">
        <ele>526</ele>
        <time>2021-10-07T10:01:12.999Z</time>
      </trkpt>
      <trkpt lat="43.12495" lon="-0.4143">
        <ele>526</ele>
        <time>2021-10-07T10:01:16.999Z</time>
      </trkpt>
      <trkpt lat="43.1249" lon="-0.41419">
        <ele>526</ele>
        <time>2021-10-07T10:01:21.999Z</time>
      </trkpt>
      <trkpt lat="43.12481" lon="-0.41407">
        <ele>531</ele>
        <time>2021-10-07T10:01:26.999Z</time>
      </trkpt>
      <trkpt lat="43.12474" lon="-0.41398">
        <ele>531</ele>
        <time>2021-10-07T10:01:45.999Z</time>
      </trkpt>
      <trkpt lat="43.12467" lon="-0.41389">
        <ele>531</ele>
        <time>2021-10-07T10:01:49.999Z</time>
      </trkpt>
      <trkpt lat="43.1246" lon="-0.41382">
        <ele>531</ele>
        <time>2021-10-07T10:01:54.999Z</time>
      </trkpt>
      <trkpt lat="43.12452" lon="-0.41375">
        <ele>536</ele>
        <time>2021-10-07T10:01:59.999Z</time>
      </trkpt>
      <trkpt lat="43.12444" lon="-0.41368">
        <ele>532</ele>
        <time>2021-10-07T10:02:04.999Z</time>
      </trkpt>
      <trkpt lat="43.12434" lon="-0.41366">
        <ele>532</ele>
        <time>2021-10-07T10:02:09.999Z</time>
      </trkpt>
      <trkpt lat="43.12425" lon="-0.41372">
        <ele>535</ele>
        <time>2021-10-07T10:02:14.999Z</time>
      </trkpt>
      <trkpt lat="43.12419" lon="-0.41382">
        <ele>541</ele>
        <time>2021-10-07T10:02:19.999Z</time>
      </trkpt>
      <trkpt lat="43.12412" lon="-0.4139">
        <ele>541</ele>
        <time>2021-10-07T10:02:24.999Z</time>
      </trkpt>
      <trkpt lat="43.12408" lon="-0.41397">
        <ele>541</ele>
        <time>2021-10-07T10:02:29.999Z</time>
      </trkpt>
      <trkpt lat="43.12402" lon="-0.41406">
        <ele>546</ele>
        <time>2021-10-07T10:02:34.999Z</time>
      </trkpt>
      <trkpt lat="43.12394" lon="-0.41415">
        <ele>546</ele>
        <time>2021-10-07T10:02:39.999Z</time>
      </trkpt>
      <trkpt lat="43.12384" lon="-0.4142">
        <ele>546</ele>
        <time>2021-10-07T10:02:44.999Z</time>
      </trkpt>
      <trkpt lat="43.12375" lon="-0.41425">
        <ele>546</ele>
        <time>2021-10-07T10:02:49.999Z</time>
      </trkpt>
      <trkpt lat="43.12367" lon="-0.41425">
        <ele>550</ele>
        <time>2021-10-07T10:02:54.999Z</time>
      </trkpt>
      <trkpt lat="43.12353" lon="-0.41423">
        <ele>550</ele>
        <time>2021-10-07T10:02:59.999Z</time>
      </trkpt>
      <trkpt lat="43.12343" lon="-0.4142">
        <ele>553</ele>
        <time>2021-10-07T10:03:04.999Z</time>
      </trkpt>
      <trkpt lat="43.12332" lon="-0.41419">
        <ele>553</ele>
        <time>2021-10-07T10:03:08.999Z</time>
      </trkpt>
      <trkpt lat="43.12319" lon="-0.41416">
        <ele>555</ele>
        <time>2021-10-07T10:03:13.999Z</time>
      </trkpt>
      <trkpt lat="43.12306" lon="-0.41411">
        <ele>555</ele>
        <time>2021-10-07T10:03:18.999Z</time>
      </trkpt>
      <trkpt lat="43.12294" lon="-0.41409">
        <ele>555</ele>
        <time>2021-10-07T10:03:23.999Z</time>
      </trkpt>
      <trkpt lat="43.12283" lon="-0.4141">
        <ele>555</ele>
        <time>2021-10-07T10:03:28.999Z</time>
      </trkpt>
      <trkpt lat="43.12272" lon="-0.41406">
        <ele>555</ele>
        <time>2021-10-07T10:03:32.999Z</time>
      </trkpt>
      <trkpt lat="43.12256" lon="-0.41405">
        <ele>557</ele>
        <time>2021-10-07T10:03:37.999Z</time>
      </trkpt>
      <trkpt lat="43.12242" lon="-0.4141">
        <ele>557</ele>
        <time>2021-10-07T10:03:42.999Z</time>
      </trkpt>
      <trkpt lat="43.12228" lon="-0.41414">
        <ele>562</ele>
        <time>2021-10-07T10:03:46.999Z</time>
      </trkpt>
      <trkpt lat="43.12213" lon="-0.41415">
        <ele>562</ele>
        <time>2021-10-07T10:03:51.999Z</time>
      </trkpt>
      <trkpt lat="43.12199" lon="-0.41414">
        <ele>566</ele>
        <time>2021-10-07T10:03:56.999Z</time>
      </trkpt>
      <trkpt lat="43.12185" lon="-0.41406">
        <ele>566</ele>
        <time>2021-10-07T10:04:01.999Z</time>
      </trkpt>
      <trkpt lat="43.12174" lon="-0.41402">
        <ele>560</ele>
        <time>2021-10-07T10:04:06.999Z</time>
      </trkpt>
      <trkpt lat="43.12161" lon="-0.41401">
        <ele>560</ele>
        <time>2021-10-07T10:04:11.999Z</time>
      </trkpt>
      <trkpt lat="43.12146" lon="-0.41397">
        <ele>559</ele>
        <time>2021-10-07T10:04:16.999Z</time>
      </trkpt>
      <trkpt lat="43.12134" lon="-0.414">
        <ele>559</ele>
        <time>2021-10-07T10:04:21.999Z</time>
      </trkpt>
      <trkpt lat="43.12126" lon="-0.41407">
        <ele>562</ele>
        <time>2021-10-07T10:04:26.999Z</time>
      </trkpt>
      <trkpt lat="43.12112" lon="-0.41403">
        <ele>564</ele>
        <time>2021-10-07T10:04:31.999Z</time>
      </trkpt>
      <trkpt lat="43.12099" lon="-0.41398">
        <ele>561</ele>
        <time>2021-10-07T10:04:36.999Z</time>
      </trkpt>
      <trkpt lat="43.12089" lon="-0.41395">
        <ele>562</ele>
        <time>2021-10-07T10:04:41.998Z</time>
      </trkpt>
      <trkpt lat="43.12082" lon="-0.41389">
        <ele>562</ele>
        <time>2021-10-07T10:04:46.999Z</time>
      </trkpt>
      <trkpt lat="43.12079" lon="-0.41382">
        <ele>562</ele>
        <time>2021-10-07T10:04:51.999Z</time>
      </trkpt>
      <trkpt lat="43.12071" lon="-0.41373">
        <ele>559</ele>
        <time>2021-10-07T10:04:56.999Z</time>
      </trkpt>
      <trkpt lat="43.12064" lon="-0.41362">
        <ele>561</ele>
        <time>2021-10-07T10:05:01.999Z</time>
      </trkpt>
      <trkpt lat="43.12058" lon="-0.41351">
        <ele>561</ele>
        <time>2021-10-07T10:05:06.999Z</time>
      </trkpt>
      <trkpt lat="43.12052" lon="-0.41341">
        <ele>563</ele>
        <time>2021-10-07T10:05:11.999Z</time>
      </trkpt>
      <trkpt lat="43.12044" lon="-0.41329">
        <ele>563</ele>
        <time>2021-10-07T10:05:16.999Z</time>
      </trkpt>
      <trkpt lat="43.1204" lon="-0.41318">
        <ele>567</ele>
        <time>2021-10-07T10:05:21.999Z</time>
      </trkpt>
      <trkpt lat="43.12032" lon="-0.41315">
        <ele>567</ele>
        <time>2021-10-07T10:05:26.999Z</time>
      </trkpt>
      <trkpt lat="43.12024" lon="-0.41317">
        <ele>567</ele>
        <time>2021-10-07T10:05:30.999Z</time>
      </trkpt>
      <trkpt lat="43.12015" lon="-0.41317">
        <ele>567</ele>
        <time>2021-10-07T10:05:35.999Z</time>
      </trkpt>
      <trkpt lat="43.12009" lon="-0.41316">
        <ele>568</ele>
        <time>2021-10-07T10:05:40.999Z</time>
      </trkpt>
      <trkpt lat="43.12009" lon="-0.41316">
        <ele>568</ele>
        <time>2021-10-07T10:05:45.999Z</time>
      </trkpt>
      <trkpt lat="43.12002" lon="-0.41314">
        <ele>568</ele>
        <time>2021-10-07T10:05:49.999Z</time>
      </trkpt>
      <trkpt lat="43.1199" lon="-0.41309">
        <ele>568</ele>
        <time>2021-10-07T10:05:54.999Z</time>
      </trkpt>
      <trkpt lat="43.11973" lon="-0.41297">
        <ele>568</ele>
        <time>2021-10-07T10:05:59.999Z</time>
      </trkpt>
      <trkpt lat="43.11965" lon="-0.41288">
        <ele>568</ele>
        <time>2021-10-07T10:06:04.999Z</time>
      </trkpt>
      <trkpt lat="43.11954" lon="-0.41278">
        <ele>569</ele>
        <time>2021-10-07T10:06:09.999Z</time>
      </trkpt>
      <trkpt lat="43.11939" lon="-0.41271">
        <ele>569</ele>
        <time>2021-10-07T10:06:14.999Z</time>
      </trkpt>
      <trkpt lat="43.11929" lon="-0.41265">
        <ele>569</ele>
        <time>2021-10-07T10:06:19.999Z</time>
      </trkpt>
      <trkpt lat="43.1192" lon="-0.41261">
        <ele>570</ele>
        <time>2021-10-07T10:06:24.999Z</time>
      </trkpt>
      <trkpt lat="43.11908" lon="-0.41251">
        <ele>570</ele>
        <time>2021-10-07T10:06:29.999Z</time>
      </trkpt>
      <trkpt lat="43.11893" lon="-0.41242">
        <ele>571</ele>
        <time>2021-10-07T10:06:34.999Z</time>
      </trkpt>
      <trkpt lat="43.11882" lon="-0.41231">
        <ele>569</ele>
        <time>2021-10-07T10:06:39.999Z</time>
      </trkpt>
      <trkpt lat="43.11875" lon="-0.41215">
        <ele>567</ele>
        <time>2021-10-07T10:06:43.999Z</time>
      </trkpt>
      <trkpt lat="43.11869" lon="-0.41203">
        <ele>565</ele>
        <time>2021-10-07T10:06:48.999Z</time>
      </trkpt>
      <trkpt lat="43.11865" lon="-0.4119">
        <ele>565</ele>
        <time>2021-10-07T10:06:53.999Z</time>
      </trkpt>
      <trkpt lat="43.11863" lon="-0.41173">
        <ele>564</ele>
        <time>2021-10-07T10:06:58.999Z</time>
      </trkpt>
      <trkpt lat="43.11857" lon="-0.41158">
        <ele>564</ele>
        <time>2021-10-07T10:07:03.999Z</time>
      </trkpt>
      <trkpt lat="43.11855" lon="-0.41144">
        <ele>564</ele>
        <time>2021-10-07T10:07:08.999Z</time>
      </trkpt>
      <trkpt lat="43.11855" lon="-0.41134">
        <ele>564</ele>
        <time>2021-10-07T10:07:13.999Z</time>
      </trkpt>
      <trkpt lat="43.11854" lon="-0.4112">
        <ele>559</ele>
        <time>2021-10-07T10:07:17.999Z</time>
      </trkpt>
      <trkpt lat="43.11852" lon="-0.41111">
        <ele>559</ele>
        <time>2021-10-07T10:07:22.999Z</time>
      </trkpt>
      <trkpt lat="43.11849" lon="-0.41101">
        <ele>559</ele>
        <time>2021-10-07T10:07:27.999Z</time>
      </trkpt>
      <trkpt lat="43.11846" lon="-0.41093">
        <ele>549</ele>
        <time>2021-10-07T10:07:32.999Z</time>
      </trkpt>
      <trkpt lat="43.11849" lon="-0.41079">
        <ele>554</ele>
        <time>2021-10-07T10:07:37.999Z</time>
      </trkpt>
      <trkpt lat="43.11849" lon="-0.41063">
        <ele>549</ele>
        <time>2021-10-07T10:07:42.999Z</time>
      </trkpt>
      <trkpt lat="43.11839" lon="-0.41055">
        <ele>545</ele>
        <time>2021-10-07T10:07:47.999Z</time>
      </trkpt>
      <trkpt lat="43.11828" lon="-0.41054">
        <ele>545</ele>
        <time>2021-10-07T10:07:52.999Z</time>
      </trkpt>
      <trkpt lat="43.11817" lon="-0.41061">
        <ele>540</ele>
        <time>2021-10-07T10:07:57.999Z</time>
      </trkpt>
      <trkpt lat="43.11804" lon="-0.41071">
        <ele>542</ele>
        <time>2021-10-07T10:08:01.999Z</time>
      </trkpt>
      <trkpt lat="43.11788" lon="-0.41079">
        <ele>536</ele>
        <time>2021-10-07T10:08:06.995Z</time>
      </trkpt>
      <trkpt lat="43.1178" lon="-0.41085">
        <ele>536</ele>
        <time>2021-10-07T10:08:10.999Z</time>
      </trkpt>
      <trkpt lat="43.11759" lon="-0.411">
        <ele>532</ele>
        <time>2021-10-07T10:08:15.999Z</time>
      </trkpt>
      <trkpt lat="43.11747" lon="-0.41108">
        <ele>532</ele>
        <time>2021-10-07T10:08:20.999Z</time>
      </trkpt>
      <trkpt lat="43.11734" lon="-0.41116">
        <ele>526</ele>
        <time>2021-10-07T10:08:25.999Z</time>
      </trkpt>
      <trkpt lat="43.11714" lon="-0.41123">
        <ele>526</ele>
        <time>2021-10-07T10:08:30.999Z</time>
      </trkpt>
      <trkpt lat="43.11699" lon="-0.41129">
        <ele>523</ele>
        <time>2021-10-07T10:08:35.999Z</time>
      </trkpt>
      <trkpt lat="43.11685" lon="-0.41134">
        <ele>523</ele>
        <time>2021-10-07T10:08:40.999Z</time>
      </trkpt>
      <trkpt lat="43.11668" lon="-0.41147">
        <ele>522</ele>
        <time>2021-10-07T10:08:45.999Z</time>
      </trkpt>
      <trkpt lat="43.11654" lon="-0.41157">
        <ele>522</ele>
        <time>2021-10-07T10:08:50.999Z</time>
      </trkpt>
      <trkpt lat="43.11636" lon="-0.41163">
        <ele>516</ele>
        <time>2021-10-07T10:08:55.999Z</time>
      </trkpt>
      <trkpt lat="43.11616" lon="-0.41168">
        <ele>508</ele>
        <time>2021-10-07T10:09:00.999Z</time>
      </trkpt>
      <trkpt lat="43.11595" lon="-0.41174">
        <ele>500</ele>
        <time>2021-10-07T10:09:05.999Z</time>
      </trkpt>
      <trkpt lat="43.11582" lon="-0.41177">
        <ele>500</ele>
        <time>2021-10-07T10:09:10.999Z</time>
      </trkpt>
      <trkpt lat="43.11556" lon="-0.41183">
        <ele>496</ele>
        <time>2021-10-07T10:09:15.999Z</time>
      </trkpt>
      <trkpt lat="43.11539" lon="-0.41185">
        <ele>494</ele>
        <time>2021-10-07T10:09:19.999Z</time>
      </trkpt>
      <trkpt lat="43.11506" lon="-0.4119">
        <ele>490</ele>
        <time>2021-10-07T10:09:24.999Z</time>
      </trkpt>
      <trkpt lat="43.11484" lon="-0.41195">
        <ele>486</ele>
        <time>2021-10-07T10:09:29.999Z</time>
      </trkpt>
      <trkpt lat="43.11463" lon="-0.41179">
        <ele>484</ele>
        <time>2021-10-07T10:09:34.999Z</time>
      </trkpt>
      <trkpt lat="43.11448" lon="-0.41154">
        <ele>483</ele>
        <time>2021-10-07T10:09:39.999Z</time>
      </trkpt>
      <trkpt lat="43.11433" lon="-0.41136">
        <ele>480</ele>
        <time>2021-10-07T10:09:44.999Z</time>
      </trkpt>
      <trkpt lat="43.11411" lon="-0.41132">
        <ele>479</ele>
        <time>2021-10-07T10:09:49.999Z</time>
      </trkpt>
      <trkpt lat="43.11385" lon="-0.4113">
        <ele>477</ele>
        <time>2021-10-07T10:09:54.999Z</time>
      </trkpt>
      <trkpt lat="43.11355" lon="-0.41136">
        <ele>474</ele>
        <time>2021-10-07T10:09:59.999Z</time>
      </trkpt>
      <trkpt lat="43.11336" lon="-0.41147">
        <ele>472</ele>
        <time>2021-10-07T10:10:04.999Z</time>
      </trkpt>
      <trkpt lat="43.11328" lon="-0.41152">
        <ele>472</ele>
        <time>2021-10-07T10:10:09.999Z</time>
      </trkpt>
      <trkpt lat="43.11324" lon="-0.41149">
        <ele>472</ele>
        <time>2021-10-07T10:10:14.999Z</time>
      </trkpt>
      <trkpt lat="43.11324" lon="-0.41149">
        <ele>472</ele>
        <time>2021-10-07T10:10:18.999Z</time>
      </trkpt>
      <trkpt lat="43.11323" lon="-0.41149">
        <ele>472</ele>
        <time>2021-10-07T10:10:23.999Z</time>
      </trkpt>
      <trkpt lat="43.11322" lon="-0.41149">
        <ele>472</ele>
        <time>2021-10-07T10:10:28.999Z</time>
      </trkpt>
      <trkpt lat="43.11319" lon="-0.4115">
        <ele>471</ele>
        <time>2021-10-07T10:10:33.999Z</time>
      </trkpt>
      <trkpt lat="43.11307" lon="-0.4114">
        <ele>471</ele>
        <time>2021-10-07T10:10:38.999Z</time>
      </trkpt>
      <trkpt lat="43.11309" lon="-0.41126">
        <ele>471</ele>
        <time>2021-10-07T10:10:43.999Z</time>
      </trkpt>
      <trkpt lat="43.1132" lon="-0.41109">
        <ele>470</ele>
        <time>2021-10-07T10:10:47.999Z</time>
      </trkpt>
      <trkpt lat="43.11313" lon="-0.41082">
        <ele>467</ele>
        <time>2021-10-07T10:10:52.999Z</time>
      </trkpt>
      <trkpt lat="43.11304" lon="-0.41057">
        <ele>467</ele>
        <time>2021-10-07T10:10:56.999Z</time>
      </trkpt>
      <trkpt lat="43.11298" lon="-0.41036">
        <ele>467</ele>
        <time>2021-10-07T10:11:01.999Z</time>
      </trkpt>
      <trkpt lat="43.11292" lon="-0.41011">
        <ele>470</ele>
        <time>2021-10-07T10:11:06.999Z</time>
      </trkpt>
      <trkpt lat="43.11296" lon="-0.40986">
        <ele>473</ele>
        <time>2021-10-07T10:11:10.999Z</time>
      </trkpt>
      <trkpt lat="43.11311" lon="-0.40965">
        <ele>473</ele>
        <time>2021-10-07T10:11:15.999Z</time>
      </trkpt>
      <trkpt lat="43.11325" lon="-0.40954">
        <ele>470</ele>
        <time>2021-10-07T10:11:20.999Z</time>
      </trkpt>
      <trkpt lat="43.11327" lon="-0.40945">
        <ele>470</ele>
        <time>2021-10-07T10:11:25.999Z</time>
      </trkpt>
      <trkpt lat="43.11315" lon="-0.40948">
        <ele>477</ele>
        <time>2021-10-07T10:11:30.999Z</time>
      </trkpt>
      <trkpt lat="43.11307" lon="-0.40953">
        <ele>477</ele>
        <time>2021-10-07T10:11:35.999Z</time>
      </trkpt>
      <trkpt lat="43.11306" lon="-0.40954">
        <ele>477</ele>
        <time>2021-10-07T10:11:39.999Z</time>
      </trkpt>
      <trkpt lat="43.11306" lon="-0.40953">
        <ele>477</ele>
        <time>2021-10-07T10:11:44.999Z</time>
      </trkpt>
      <trkpt lat="43.113" lon="-0.40955">
        <ele>477</ele>
        <time>2021-10-07T10:11:49.999Z</time>
      </trkpt>
      <trkpt lat="43.11289" lon="-0.40962">
        <ele>476</ele>
        <time>2021-10-07T10:11:54.999Z</time>
      </trkpt>
      <trkpt lat="43.1128" lon="-0.40972">
        <ele>476</ele>
        <time>2021-10-07T10:11:59.999Z</time>
      </trkpt>
      <trkpt lat="43.11294" lon="-0.40959">
        <ele>473</ele>
        <time>2021-10-07T10:12:04.999Z</time>
      </trkpt>
      <trkpt lat="43.11304" lon="-0.4095">
        <ele>477</ele>
        <time>2021-10-07T10:12:09.999Z</time>
      </trkpt>
      <trkpt lat="43.11311" lon="-0.40942">
        <ele>477</ele>
        <time>2021-10-07T10:12:14.999Z</time>
      </trkpt>
      <trkpt lat="43.11317" lon="-0.40932">
        <ele>477</ele>
        <time>2021-10-07T10:12:19.999Z</time>
      </trkpt>
      <trkpt lat="43.11324" lon="-0.40924">
        <ele>476</ele>
        <time>2021-10-07T10:12:25Z</time>
      </trkpt>
      <trkpt lat="43.11333" lon="-0.4092">
        <ele>476</ele>
        <time>2021-10-07T10:12:28.999Z</time>
      </trkpt>
      <trkpt lat="43.11342" lon="-0.40914">
        <ele>476</ele>
        <time>2021-10-07T10:12:33.999Z</time>
      </trkpt>
      <trkpt lat="43.11351" lon="-0.40909">
        <ele>470</ele>
        <time>2021-10-07T10:12:47.999Z</time>
      </trkpt>
      <trkpt lat="43.11359" lon="-0.40904">
        <ele>470</ele>
        <time>2021-10-07T10:12:52.999Z</time>
      </trkpt>
      <trkpt lat="43.11367" lon="-0.40897">
        <ele>477</ele>
        <time>2021-10-07T10:12:56.999Z</time>
      </trkpt>
      <trkpt lat="43.11372" lon="-0.40892">
        <ele>477</ele>
        <time>2021-10-07T10:13:01.998Z</time>
      </trkpt>
      <trkpt lat="43.1138" lon="-0.40885">
        <ele>477</ele>
        <time>2021-10-07T10:13:06.999Z</time>
      </trkpt>
      <trkpt lat="43.11386" lon="-0.40874">
        <ele>482</ele>
        <time>2021-10-07T10:13:11.999Z</time>
      </trkpt>
      <trkpt lat="43.11391" lon="-0.40866">
        <ele>482</ele>
        <time>2021-10-07T10:13:16.999Z</time>
      </trkpt>
      <trkpt lat="43.11396" lon="-0.40859">
        <ele>482</ele>
        <time>2021-10-07T10:13:21.999Z</time>
      </trkpt>
      <trkpt lat="43.11402" lon="-0.40851">
        <ele>482</ele>
        <time>2021-10-07T10:13:26.999Z</time>
      </trkpt>
      <trkpt lat="43.11407" lon="-0.40843">
        <ele>483</ele>
        <time>2021-10-07T10:13:31.999Z</time>
      </trkpt>
      <trkpt lat="43.11412" lon="-0.40832">
        <ele>483</ele>
        <time>2021-10-07T10:13:36.999Z</time>
      </trkpt>
      <trkpt lat="43.1142" lon="-0.40823">
        <ele>483</ele>
        <time>2021-10-07T10:13:40.999Z</time>
      </trkpt>
      <trkpt lat="43.1143" lon="-0.40813">
        <ele>490</ele>
        <time>2021-10-07T10:13:45.999Z</time>
      </trkpt>
      <trkpt lat="43.11437" lon="-0.40807">
        <ele>486</ele>
        <time>2021-10-07T10:13:50.999Z</time>
      </trkpt>
      <trkpt lat="43.11445" lon="-0.40803">
        <ele>486</ele>
        <time>2021-10-07T10:13:54.999Z</time>
      </trkpt>
      <trkpt lat="43.11455" lon="-0.40796">
        <ele>486</ele>
        <time>2021-10-07T10:13:58.999Z</time>
      </trkpt>
      <trkpt lat="43.11462" lon="-0.40788">
        <ele>489</ele>
        <time>2021-10-07T10:14:03.999Z</time>
      </trkpt>
      <trkpt lat="43.11468" lon="-0.40781">
        <ele>489</ele>
        <time>2021-10-07T10:14:07.999Z</time>
      </trkpt>
      <trkpt lat="43.11475" lon="-0.40769">
        <ele>489</ele>
        <time>2021-10-07T10:14:12.999Z</time>
      </trkpt>
      <trkpt lat="43.11482" lon="-0.40756">
        <ele>492</ele>
        <time>2021-10-07T10:14:17.999Z</time>
      </trkpt>
      <trkpt lat="43.11487" lon="-0.40742">
        <ele>485</ele>
        <time>2021-10-07T10:14:22.999Z</time>
      </trkpt>
      <trkpt lat="43.11491" lon="-0.40733">
        <ele>487</ele>
        <time>2021-10-07T10:14:26.999Z</time>
      </trkpt>
      <trkpt lat="43.11496" lon="-0.40721">
        <ele>487</ele>
        <time>2021-10-07T10:14:30.999Z</time>
      </trkpt>
      <trkpt lat="43.11499" lon="-0.40711">
        <ele>487</ele>
        <time>2021-10-07T10:14:35.999Z</time>
      </trkpt>
      <trkpt lat="43.11504" lon="-0.40696">
        <ele>492</ele>
        <time>2021-10-07T10:14:40.999Z</time>
      </trkpt>
      <trkpt lat="43.11511" lon="-0.40683">
        <ele>492</ele>
        <time>2021-10-07T10:14:44.999Z</time>
      </trkpt>
      <trkpt lat="43.11518" lon="-0.40672">
        <ele>491</ele>
        <time>2021-10-07T10:14:49.999Z</time>
      </trkpt>
      <trkpt lat="43.11523" lon="-0.4066">
        <ele>491</ele>
        <time>2021-10-07T10:14:54.999Z</time>
      </trkpt>
      <trkpt lat="43.11528" lon="-0.40647">
        <ele>499</ele>
        <time>2021-10-07T10:14:59.999Z</time>
      </trkpt>
      <trkpt lat="43.11534" lon="-0.40631">
        <ele>499</ele>
        <time>2021-10-07T10:15:03.999Z</time>
      </trkpt>
      <trkpt lat="43.11537" lon="-0.40616">
        <ele>503</ele>
        <time>2021-10-07T10:15:08.999Z</time>
      </trkpt>
      <trkpt lat="43.11541" lon="-0.40604">
        <ele>503</ele>
        <time>2021-10-07T10:15:12.999Z</time>
      </trkpt>
      <trkpt lat="43.11543" lon="-0.40596">
        <ele>498</ele>
        <time>2021-10-07T10:15:17.999Z</time>
      </trkpt>
      <trkpt lat="43.11545" lon="-0.40584">
        <ele>498</ele>
        <time>2021-10-07T10:15:22.999Z</time>
      </trkpt>
      <trkpt lat="43.11547" lon="-0.40571">
        <ele>498</ele>
        <time>2021-10-07T10:15:27.999Z</time>
      </trkpt>
      <trkpt lat="43.11548" lon="-0.40562">
        <ele>500</ele>
        <time>2021-10-07T10:15:32.999Z</time>
      </trkpt>
      <trkpt lat="43.11544" lon="-0.40549">
        <ele>500</ele>
        <time>2021-10-07T10:15:37.999Z</time>
      </trkpt>
      <trkpt lat="43.1154" lon="-0.40532">
        <ele>502</ele>
        <time>2021-10-07T10:15:42.999Z</time>
      </trkpt>
      <trkpt lat="43.11534" lon="-0.40513">
        <ele>501</ele>
        <time>2021-10-07T10:15:47.999Z</time>
      </trkpt>
      <trkpt lat="43.11529" lon="-0.40499">
        <ele>501</ele>
        <time>2021-10-07T10:15:52.999Z</time>
      </trkpt>
      <trkpt lat="43.11525" lon="-0.40485">
        <ele>498</ele>
        <time>2021-10-07T10:15:56.999Z</time>
      </trkpt>
      <trkpt lat="43.11517" lon="-0.40473">
        <ele>498</ele>
        <time>2021-10-07T10:16:01.999Z</time>
      </trkpt>
      <trkpt lat="43.11511" lon="-0.40467">
        <ele>505</ele>
        <time>2021-10-07T10:16:06.999Z</time>
      </trkpt>
      <trkpt lat="43.11504" lon="-0.40456">
        <ele>500</ele>
        <time>2021-10-07T10:16:11.999Z</time>
      </trkpt>
      <trkpt lat="43.11501" lon="-0.40444">
        <ele>500</ele>
        <time>2021-10-07T10:16:16.999Z</time>
      </trkpt>
      <trkpt lat="43.115" lon="-0.40433">
        <ele>500</ele>
        <time>2021-10-07T10:16:21.999Z</time>
      </trkpt>
      <trkpt lat="43.115" lon="-0.40433">
        <ele>500</ele>
        <time>2021-10-07T10:16:26.999Z</time>
      </trkpt>
      <trkpt lat="43.115" lon="-0.40433">
        <ele>500</ele>
        <time>2021-10-07T10:16:31.999Z</time>
      </trkpt>
      <trkpt lat="43.11501" lon="-0.4043">
        <ele>496</ele>
        <time>2021-10-07T10:16:36.999Z</time>
      </trkpt>
      <trkpt lat="43.11498" lon="-0.40424">
        <ele>496</ele>
        <time>2021-10-07T10:16:41.999Z</time>
      </trkpt>
      <trkpt lat="43.11495" lon="-0.4042">
        <ele>496</ele>
        <time>2021-10-07T10:16:46.999Z</time>
      </trkpt>
      <trkpt lat="43.11494" lon="-0.40417">
        <ele>496</ele>
        <time>2021-10-07T10:16:51.999Z</time>
      </trkpt>
      <trkpt lat="43.1149" lon="-0.40409">
        <ele>496</ele>
        <time>2021-10-07T10:16:56.999Z</time>
      </trkpt>
      <trkpt lat="43.11488" lon="-0.40398">
        <ele>494</ele>
        <time>2021-10-07T10:17:11.999Z</time>
      </trkpt>
      <trkpt lat="43.11491" lon="-0.40385">
        <ele>494</ele>
        <time>2021-10-07T10:17:16.999Z</time>
      </trkpt>
      <trkpt lat="43.1149" lon="-0.40375">
        <ele>494</ele>
        <time>2021-10-07T10:17:20.999Z</time>
      </trkpt>
      <trkpt lat="43.11492" lon="-0.40362">
        <ele>494</ele>
        <time>2021-10-07T10:17:25.992Z</time>
      </trkpt>
      <trkpt lat="43.11492" lon="-0.40348">
        <ele>494</ele>
        <time>2021-10-07T10:17:29.999Z</time>
      </trkpt>
      <trkpt lat="43.11494" lon="-0.40342">
        <ele>493</ele>
        <time>2021-10-07T10:17:34.999Z</time>
      </trkpt>
      <trkpt lat="43.11494" lon="-0.4034">
        <ele>493</ele>
        <time>2021-10-07T10:17:39.999Z</time>
      </trkpt>
      <trkpt lat="43.11496" lon="-0.40337">
        <ele>493</ele>
        <time>2021-10-07T10:17:44.999Z</time>
      </trkpt>
      <trkpt lat="43.11495" lon="-0.40336">
        <ele>493</ele>
        <time>2021-10-07T10:17:49.999Z</time>
      </trkpt>
      <trkpt lat="43.11495" lon="-0.40331">
        <ele>493</ele>
        <time>2021-10-07T10:17:54.999Z</time>
      </trkpt>
      <trkpt lat="43.11491" lon="-0.40322">
        <ele>493</ele>
        <time>2021-10-07T10:17:58.999Z</time>
      </trkpt>
      <trkpt lat="43.11487" lon="-0.4031">
        <ele>492</ele>
        <time>2021-10-07T10:18:03.999Z</time>
      </trkpt>
      <trkpt lat="43.11483" lon="-0.40299">
        <ele>500</ele>
        <time>2021-10-07T10:18:07.999Z</time>
      </trkpt>
      <trkpt lat="43.11482" lon="-0.40285">
        <ele>497</ele>
        <time>2021-10-07T10:18:17.999Z</time>
      </trkpt>
      <trkpt lat="43.1148" lon="-0.40271">
        <ele>497</ele>
        <time>2021-10-07T10:18:22.999Z</time>
      </trkpt>
      <trkpt lat="43.11476" lon="-0.40258">
        <ele>495</ele>
        <time>2021-10-07T10:18:26.999Z</time>
      </trkpt>
      <trkpt lat="43.11475" lon="-0.40257">
        <ele>495</ele>
        <time>2021-10-07T10:18:31.999Z</time>
      </trkpt>
      <trkpt lat="43.11474" lon="-0.4025">
        <ele>495</ele>
        <time>2021-10-07T10:18:36.999Z</time>
      </trkpt>
      <trkpt lat="43.11473" lon="-0.40245">
        <ele>495</ele>
        <time>2021-10-07T10:18:40.999Z</time>
      </trkpt>
      <trkpt lat="43.11472" lon="-0.40245">
        <ele>495</ele>
        <time>2021-10-07T10:18:45.999Z</time>
      </trkpt>
      <trkpt lat="43.11466" lon="-0.40239">
        <ele>495</ele>
        <time>2021-10-07T10:18:50.999Z</time>
      </trkpt>
      <trkpt lat="43.11455" lon="-0.40225">
        <ele>492</ele>
        <time>2021-10-07T10:18:55.999Z</time>
      </trkpt>
      <trkpt lat="43.1144" lon="-0.40208">
        <ele>492</ele>
        <time>2021-10-07T10:18:59.999Z</time>
      </trkpt>
      <trkpt lat="43.11432" lon="-0.40198">
        <ele>488</ele>
        <time>2021-10-07T10:19:04.999Z</time>
      </trkpt>
      <trkpt lat="43.11419" lon="-0.40181">
        <ele>488</ele>
        <time>2021-10-07T10:19:09.999Z</time>
      </trkpt>
      <trkpt lat="43.1141" lon="-0.40172">
        <ele>485</ele>
        <time>2021-10-07T10:19:13.999Z</time>
      </trkpt>
      <trkpt lat="43.11403" lon="-0.40163">
        <ele>485</ele>
        <time>2021-10-07T10:20:32.999Z</time>
      </trkpt>
      <trkpt lat="43.11389" lon="-0.40147">
        <ele>485</ele>
        <time>2021-10-07T10:20:37.999Z</time>
      </trkpt>
      <trkpt lat="43.11382" lon="-0.40141">
        <ele>485</ele>
        <time>2021-10-07T10:20:42.999Z</time>
      </trkpt>
      <trkpt lat="43.11374" lon="-0.40132">
        <ele>489</ele>
        <time>2021-10-07T10:20:47.999Z</time>
      </trkpt>
      <trkpt lat="43.11367" lon="-0.40123">
        <ele>485</ele>
        <time>2021-10-07T10:20:52.999Z</time>
      </trkpt>
      <trkpt lat="43.11359" lon="-0.4011">
        <ele>485</ele>
        <time>2021-10-07T10:20:57.999Z</time>
      </trkpt>
      <trkpt lat="43.11353" lon="-0.40096">
        <ele>482</ele>
        <time>2021-10-07T10:21:02.996Z</time>
      </trkpt>
      <trkpt lat="43.11349" lon="-0.40087">
        <ele>482</ele>
        <time>2021-10-07T10:21:06.999Z</time>
      </trkpt>
      <trkpt lat="43.1134" lon="-0.40076">
        <ele>490</ele>
        <time>2021-10-07T10:21:11.999Z</time>
      </trkpt>
      <trkpt lat="43.11336" lon="-0.4007">
        <ele>490</ele>
        <time>2021-10-07T10:21:16.989Z</time>
      </trkpt>
      <trkpt lat="43.11339" lon="-0.40053">
        <ele>487</ele>
        <time>2021-10-07T10:21:20.999Z</time>
      </trkpt>
      <trkpt lat="43.11348" lon="-0.40033">
        <ele>481</ele>
        <time>2021-10-07T10:21:25.999Z</time>
      </trkpt>
      <trkpt lat="43.11353" lon="-0.40019">
        <ele>481</ele>
        <time>2021-10-07T10:21:29.999Z</time>
      </trkpt>
      <trkpt lat="43.11354" lon="-0.40016">
        <ele>481</ele>
        <time>2021-10-07T10:21:34.999Z</time>
      </trkpt>
      <trkpt lat="43.11352" lon="-0.40018">
        <ele>481</ele>
        <time>2021-10-07T10:21:39.999Z</time>
      </trkpt>
      <trkpt lat="43.1135" lon="-0.40019">
        <ele>481</ele>
        <time>2021-10-07T10:21:44.999Z</time>
      </trkpt>
      <trkpt lat="43.11347" lon="-0.40027">
        <ele>484</ele>
        <time>2021-10-07T10:21:49.999Z</time>
      </trkpt>
      <trkpt lat="43.11341" lon="-0.4004">
        <ele>484</ele>
        <time>2021-10-07T10:21:53.999Z</time>
      </trkpt>
      <trkpt lat="43.11338" lon="-0.4005">
        <ele>487</ele>
        <time>2021-10-07T10:21:58.999Z</time>
      </trkpt>
      <trkpt lat="43.11333" lon="-0.40063">
        <ele>487</ele>
        <time>2021-10-07T10:22:03.999Z</time>
      </trkpt>
      <trkpt lat="43.11333" lon="-0.40071">
        <ele>490</ele>
        <time>2021-10-07T10:22:08.999Z</time>
      </trkpt>
      <trkpt lat="43.1134" lon="-0.4008">
        <ele>490</ele>
        <time>2021-10-07T10:22:33.999Z</time>
      </trkpt>
      <trkpt lat="43.11346" lon="-0.40089">
        <ele>490</ele>
        <time>2021-10-07T10:22:38.999Z</time>
      </trkpt>
      <trkpt lat="43.11355" lon="-0.40105">
        <ele>485</ele>
        <time>2021-10-07T10:22:43.999Z</time>
      </trkpt>
      <trkpt lat="43.11363" lon="-0.4012">
        <ele>485</ele>
        <time>2021-10-07T10:22:47.999Z</time>
      </trkpt>
      <trkpt lat="43.11371" lon="-0.40129">
        <ele>489</ele>
        <time>2021-10-07T10:22:52.999Z</time>
      </trkpt>
      <trkpt lat="43.1138" lon="-0.40138">
        <ele>485</ele>
        <time>2021-10-07T10:22:56.999Z</time>
      </trkpt>
      <trkpt lat="43.11389" lon="-0.40148">
        <ele>485</ele>
        <time>2021-10-07T10:23:01.999Z</time>
      </trkpt>
      <trkpt lat="43.11399" lon="-0.40158">
        <ele>489</ele>
        <time>2021-10-07T10:23:06.999Z</time>
      </trkpt>
      <trkpt lat="43.11408" lon="-0.40169">
        <ele>485</ele>
        <time>2021-10-07T10:23:11.999Z</time>
      </trkpt>
      <trkpt lat="43.1142" lon="-0.40186">
        <ele>488</ele>
        <time>2021-10-07T10:23:15.999Z</time>
      </trkpt>
      <trkpt lat="43.1142" lon="-0.40186">
        <ele>488</ele>
        <time>2021-10-07T10:23:20.999Z</time>
      </trkpt>
      <trkpt lat="43.11421" lon="-0.40187">
        <ele>488</ele>
        <time>2021-10-07T10:23:25.999Z</time>
      </trkpt>
      <trkpt lat="43.11422" lon="-0.40188">
        <ele>488</ele>
        <time>2021-10-07T10:23:29.999Z</time>
      </trkpt>
      <trkpt lat="43.11429" lon="-0.40198">
        <ele>488</ele>
        <time>2021-10-07T10:23:34.999Z</time>
      </trkpt>
      <trkpt lat="43.11436" lon="-0.40206">
        <ele>488</ele>
        <time>2021-10-07T10:23:38.999Z</time>
      </trkpt>
      <trkpt lat="43.11436" lon="-0.40206">
        <ele>488</ele>
        <time>2021-10-07T10:23:43.999Z</time>
      </trkpt>
      <trkpt lat="43.11434" lon="-0.40202">
        <ele>488</ele>
        <time>2021-10-07T10:23:48.999Z</time>
      </trkpt>
      <trkpt lat="43.11431" lon="-0.40196">
        <ele>488</ele>
        <time>2021-10-07T10:24:16.999Z</time>
      </trkpt>
      <trkpt lat="43.11424" lon="-0.40187">
        <ele>488</ele>
        <time>2021-10-07T10:24:20.999Z</time>
      </trkpt>
      <trkpt lat="43.11415" lon="-0.40177">
        <ele>485</ele>
        <time>2021-10-07T10:24:25.999Z</time>
      </trkpt>
      <trkpt lat="43.11406" lon="-0.40166">
        <ele>485</ele>
        <time>2021-10-07T10:24:29.999Z</time>
      </trkpt>
      <trkpt lat="43.11386" lon="-0.40143">
        <ele>485</ele>
        <time>2021-10-07T10:24:34.999Z</time>
      </trkpt>
      <trkpt lat="43.11377" lon="-0.40134">
        <ele>485</ele>
        <time>2021-10-07T10:24:58.999Z</time>
      </trkpt>
      <trkpt lat="43.1137" lon="-0.40126">
        <ele>489</ele>
        <time>2021-10-07T10:25:03.999Z</time>
      </trkpt>
      <trkpt lat="43.1136" lon="-0.40112">
        <ele>485</ele>
        <time>2021-10-07T10:25:07.999Z</time>
      </trkpt>
      <trkpt lat="43.11352" lon="-0.40095">
        <ele>482</ele>
        <time>2021-10-07T10:25:12.999Z</time>
      </trkpt>
      <trkpt lat="43.11345" lon="-0.40081">
        <ele>490</ele>
        <time>2021-10-07T10:25:17.999Z</time>
      </trkpt>
      <trkpt lat="43.11336" lon="-0.40073">
        <ele>490</ele>
        <time>2021-10-07T10:25:22.999Z</time>
      </trkpt>
      <trkpt lat="43.11333" lon="-0.40073">
        <ele>490</ele>
        <time>2021-10-07T10:25:27.999Z</time>
      </trkpt>
      <trkpt lat="43.11333" lon="-0.40073">
        <ele>490</ele>
        <time>2021-10-07T10:25:32.999Z</time>
      </trkpt>
      <trkpt lat="43.11331" lon="-0.40071">
        <ele>490</ele>
        <time>2021-10-07T10:25:37.999Z</time>
      </trkpt>
      <trkpt lat="43.11329" lon="-0.40069">
        <ele>487</ele>
        <time>2021-10-07T10:25:42.999Z</time>
      </trkpt>
      <trkpt lat="43.11345" lon="-0.40083">
        <ele>490</ele>
        <time>2021-10-07T10:25:47.999Z</time>
      </trkpt>
      <trkpt lat="43.11352" lon="-0.40097">
        <ele>482</ele>
        <time>2021-10-07T10:25:52.999Z</time>
      </trkpt>
      <trkpt lat="43.1136" lon="-0.40114">
        <ele>485</ele>
        <time>2021-10-07T10:25:57.999Z</time>
      </trkpt>
      <trkpt lat="43.11369" lon="-0.40125">
        <ele>489</ele>
        <time>2021-10-07T10:26:12.999Z</time>
      </trkpt>
      <trkpt lat="43.11379" lon="-0.40135">
        <ele>485</ele>
        <time>2021-10-07T10:26:16.999Z</time>
      </trkpt>
      <trkpt lat="43.11386" lon="-0.40144">
        <ele>485</ele>
        <time>2021-10-07T10:26:21.999Z</time>
      </trkpt>
      <trkpt lat="43.11394" lon="-0.40153">
        <ele>489</ele>
        <time>2021-10-07T10:26:26.999Z</time>
      </trkpt>
      <trkpt lat="43.11404" lon="-0.40163">
        <ele>485</ele>
        <time>2021-10-07T10:26:32.001Z</time>
      </trkpt>
      <trkpt lat="43.11412" lon="-0.40173">
        <ele>485</ele>
        <time>2021-10-07T10:28:16.999Z</time>
      </trkpt>
      <trkpt lat="43.1142" lon="-0.40183">
        <ele>488</ele>
        <time>2021-10-07T10:28:21.999Z</time>
      </trkpt>
      <trkpt lat="43.11427" lon="-0.40192">
        <ele>488</ele>
        <time>2021-10-07T10:28:26.999Z</time>
      </trkpt>
      <trkpt lat="43.11433" lon="-0.402">
        <ele>488</ele>
        <time>2021-10-07T10:28:31.999Z</time>
      </trkpt>
      <trkpt lat="43.11441" lon="-0.4021">
        <ele>492</ele>
        <time>2021-10-07T10:28:36.999Z</time>
      </trkpt>
      <trkpt lat="43.11449" lon="-0.40221">
        <ele>492</ele>
        <time>2021-10-07T10:28:41.999Z</time>
      </trkpt>
      <trkpt lat="43.11459" lon="-0.4023">
        <ele>492</ele>
        <time>2021-10-07T10:28:46.999Z</time>
      </trkpt>
      <trkpt lat="43.11466" lon="-0.40241">
        <ele>495</ele>
        <time>2021-10-07T10:28:51.999Z</time>
      </trkpt>
      <trkpt lat="43.11471" lon="-0.40248">
        <ele>495</ele>
        <time>2021-10-07T10:28:56.999Z</time>
      </trkpt>
      <trkpt lat="43.11471" lon="-0.40247">
        <ele>495</ele>
        <time>2021-10-07T10:29:01.999Z</time>
      </trkpt>
      <trkpt lat="43.11472" lon="-0.40247">
        <ele>495</ele>
        <time>2021-10-07T10:29:06.999Z</time>
      </trkpt>
      <trkpt lat="43.11474" lon="-0.40248">
        <ele>495</ele>
        <time>2021-10-07T10:29:11.999Z</time>
      </trkpt>
      <trkpt lat="43.11476" lon="-0.40248">
        <ele>495</ele>
        <time>2021-10-07T10:29:16.999Z</time>
      </trkpt>
      <trkpt lat="43.11484" lon="-0.40244">
        <ele>495</ele>
        <time>2021-10-07T10:29:21.999Z</time>
      </trkpt>
      <trkpt lat="43.11489" lon="-0.40239">
        <ele>489</ele>
        <time>2021-10-07T10:29:26.999Z</time>
      </trkpt>
      <trkpt lat="43.11496" lon="-0.4024">
        <ele>489</ele>
        <time>2021-10-07T10:29:31.999Z</time>
      </trkpt>
      <trkpt lat="43.11503" lon="-0.40241">
        <ele>489</ele>
        <time>2021-10-07T10:29:36.999Z</time>
      </trkpt>
      <trkpt lat="43.11518" lon="-0.40234">
        <ele>486</ele>
        <time>2021-10-07T10:29:55.999Z</time>
      </trkpt>
      <trkpt lat="43.11533" lon="-0.40217">
        <ele>486</ele>
        <time>2021-10-07T10:30:00.999Z</time>
      </trkpt>
      <trkpt lat="43.11536" lon="-0.40216">
        <ele>486</ele>
        <time>2021-10-07T10:30:04.999Z</time>
      </trkpt>
      <trkpt lat="43.11539" lon="-0.40215">
        <ele>486</ele>
        <time>2021-10-07T10:30:09.999Z</time>
      </trkpt>
      <trkpt lat="43.11539" lon="-0.40211">
        <ele>486</ele>
        <time>2021-10-07T10:30:14.999Z</time>
      </trkpt>
      <trkpt lat="43.11548" lon="-0.40202">
        <ele>484</ele>
        <time>2021-10-07T10:30:19.999Z</time>
      </trkpt>
      <trkpt lat="43.11557" lon="-0.4019">
        <ele>484</ele>
        <time>2021-10-07T10:30:24.999Z</time>
      </trkpt>
      <trkpt lat="43.11566" lon="-0.40182">
        <ele>484</ele>
        <time>2021-10-07T10:30:29.999Z</time>
      </trkpt>
      <trkpt lat="43.11569" lon="-0.40181">
        <ele>484</ele>
        <time>2021-10-07T10:30:34.999Z</time>
      </trkpt>
      <trkpt lat="43.11577" lon="-0.40177">
        <ele>481</ele>
        <time>2021-10-07T10:30:49.999Z</time>
      </trkpt>
      <trkpt lat="43.116" lon="-0.40177">
        <ele>479</ele>
        <time>2021-10-07T10:30:54.999Z</time>
      </trkpt>
      <trkpt lat="43.116" lon="-0.40176">
        <ele>479</ele>
        <time>2021-10-07T10:30:59.999Z</time>
      </trkpt>
      <trkpt lat="43.11601" lon="-0.40172">
        <ele>479</ele>
        <time>2021-10-07T10:31:04.999Z</time>
      </trkpt>
      <trkpt lat="43.11602" lon="-0.4016">
        <ele>479</ele>
        <time>2021-10-07T10:31:09.999Z</time>
      </trkpt>
      <trkpt lat="43.11607" lon="-0.40141">
        <ele>478</ele>
        <time>2021-10-07T10:31:14.999Z</time>
      </trkpt>
      <trkpt lat="43.11613" lon="-0.40114">
        <ele>479</ele>
        <time>2021-10-07T10:31:19.999Z</time>
      </trkpt>
      <trkpt lat="43.11614" lon="-0.40089">
        <ele>479</ele>
        <time>2021-10-07T10:31:24.999Z</time>
      </trkpt>
      <trkpt lat="43.11609" lon="-0.40065">
        <ele>479</ele>
        <time>2021-10-07T10:31:29.999Z</time>
      </trkpt>
      <trkpt lat="43.11601" lon="-0.40042">
        <ele>479</ele>
        <time>2021-10-07T10:32:52.999Z</time>
      </trkpt>
      <trkpt lat="43.11594" lon="-0.40025">
        <ele>474</ele>
        <time>2021-10-07T10:32:57.999Z</time>
      </trkpt>
      <trkpt lat="43.11583" lon="-0.40005">
        <ele>475</ele>
        <time>2021-10-07T10:33:02.999Z</time>
      </trkpt>
      <trkpt lat="43.11571" lon="-0.39986">
        <ele>477</ele>
        <time>2021-10-07T10:33:07.999Z</time>
      </trkpt>
      <trkpt lat="43.11559" lon="-0.39966">
        <ele>476</ele>
        <time>2021-10-07T10:33:12.999Z</time>
      </trkpt>
      <trkpt lat="43.11548" lon="-0.39943">
        <ele>478</ele>
        <time>2021-10-07T10:33:17.993Z</time>
      </trkpt>
      <trkpt lat="43.1154" lon="-0.3992">
        <ele>477</ele>
        <time>2021-10-07T10:33:22.999Z</time>
      </trkpt>
      <trkpt lat="43.11531" lon="-0.39894">
        <ele>479</ele>
        <time>2021-10-07T10:33:27.999Z</time>
      </trkpt>
      <trkpt lat="43.11523" lon="-0.39869">
        <ele>482</ele>
        <time>2021-10-07T10:33:32.999Z</time>
      </trkpt>
      <trkpt lat="43.11514" lon="-0.39845">
        <ele>481</ele>
        <time>2021-10-07T10:33:36.999Z</time>
      </trkpt>
      <trkpt lat="43.11505" lon="-0.39819">
        <ele>482</ele>
        <time>2021-10-07T10:33:41.999Z</time>
      </trkpt>
      <trkpt lat="43.11497" lon="-0.39794">
        <ele>482</ele>
        <time>2021-10-07T10:33:46.999Z</time>
      </trkpt>
      <trkpt lat="43.11489" lon="-0.39768">
        <ele>481</ele>
        <time>2021-10-07T10:33:51.999Z</time>
      </trkpt>
      <trkpt lat="43.11482" lon="-0.39744">
        <ele>482</ele>
        <time>2021-10-07T10:33:56.999Z</time>
      </trkpt>
      <trkpt lat="43.11469" lon="-0.39724">
        <ele>481</ele>
        <time>2021-10-07T10:34:01.999Z</time>
      </trkpt>
      <trkpt lat="43.11449" lon="-0.39714">
        <ele>484</ele>
        <time>2021-10-07T10:34:06.999Z</time>
      </trkpt>
      <trkpt lat="43.1143" lon="-0.39706">
        <ele>490</ele>
        <time>2021-10-07T10:34:11.999Z</time>
      </trkpt>
      <trkpt lat="43.11418" lon="-0.39687">
        <ele>490</ele>
        <time>2021-10-07T10:34:16.999Z</time>
      </trkpt>
      <trkpt lat="43.11422" lon="-0.39659">
        <ele>490</ele>
        <time>2021-10-07T10:34:21.999Z</time>
      </trkpt>
      <trkpt lat="43.11429" lon="-0.3963">
        <ele>487</ele>
        <time>2021-10-07T10:34:26.999Z</time>
      </trkpt>
      <trkpt lat="43.11432" lon="-0.39601">
        <ele>482</ele>
        <time>2021-10-07T10:34:31.999Z</time>
      </trkpt>
      <trkpt lat="43.11434" lon="-0.39575">
        <ele>482</ele>
        <time>2021-10-07T10:34:36.999Z</time>
      </trkpt>
      <trkpt lat="43.1143" lon="-0.39543">
        <ele>487</ele>
        <time>2021-10-07T10:34:41.999Z</time>
      </trkpt>
      <trkpt lat="43.11412" lon="-0.39523">
        <ele>488</ele>
        <time>2021-10-07T10:34:46.999Z</time>
      </trkpt>
      <trkpt lat="43.11393" lon="-0.39501">
        <ele>492</ele>
        <time>2021-10-07T10:34:51.999Z</time>
      </trkpt>
      <trkpt lat="43.11389" lon="-0.39469">
        <ele>491</ele>
        <time>2021-10-07T10:34:56.999Z</time>
      </trkpt>
      <trkpt lat="43.11389" lon="-0.39436">
        <ele>491</ele>
        <time>2021-10-07T10:35:01.999Z</time>
      </trkpt>
      <trkpt lat="43.11384" lon="-0.3941">
        <ele>492</ele>
        <time>2021-10-07T10:35:06.999Z</time>
      </trkpt>
      <trkpt lat="43.11379" lon="-0.39381">
        <ele>493</ele>
        <time>2021-10-07T10:35:11.999Z</time>
      </trkpt>
      <trkpt lat="43.11376" lon="-0.39356">
        <ele>492</ele>
        <time>2021-10-07T10:35:15.999Z</time>
      </trkpt>
      <trkpt lat="43.1136" lon="-0.39357">
        <ele>495</ele>
        <time>2021-10-07T10:35:20.999Z</time>
      </trkpt>
      <trkpt lat="43.11346" lon="-0.39361">
        <ele>495</ele>
        <time>2021-10-07T10:35:25.999Z</time>
      </trkpt>
      <trkpt lat="43.1133" lon="-0.39361">
        <ele>495</ele>
        <time>2021-10-07T10:35:30.999Z</time>
      </trkpt>
      <trkpt lat="43.11335" lon="-0.39324">
        <ele>493</ele>
        <time>2021-10-07T10:35:35.999Z</time>
      </trkpt>
      <trkpt lat="43.11335" lon="-0.39324">
        <ele>493</ele>
        <time>2021-10-07T10:35:41Z</time>
      </trkpt>
      <trkpt lat="43.11335" lon="-0.39324">
        <ele>493</ele>
        <time>2021-10-07T10:35:45.999Z</time>
      </trkpt>
      <trkpt lat="43.11336" lon="-0.3932">
        <ele>493</ele>
        <time>2021-10-07T10:35:50.999Z</time>
      </trkpt>
      <trkpt lat="43.11343" lon="-0.39301">
        <ele>493</ele>
        <time>2021-10-07T10:35:55.999Z</time>
      </trkpt>
      <trkpt lat="43.11352" lon="-0.39281">
        <ele>494</ele>
        <time>2021-10-07T10:36:00.999Z</time>
      </trkpt>
      <trkpt lat="43.11363" lon="-0.39253">
        <ele>497</ele>
        <time>2021-10-07T10:36:05.999Z</time>
      </trkpt>
      <trkpt lat="43.11378" lon="-0.39237">
        <ele>497</ele>
        <time>2021-10-07T10:36:10.999Z</time>
      </trkpt>
      <trkpt lat="43.11395" lon="-0.39221">
        <ele>499</ele>
        <time>2021-10-07T10:36:28.999Z</time>
      </trkpt>
      <trkpt lat="43.11412" lon="-0.39206">
        <ele>501</ele>
        <time>2021-10-07T10:36:33.999Z</time>
      </trkpt>
      <trkpt lat="43.11428" lon="-0.39188">
        <ele>501</ele>
        <time>2021-10-07T10:36:38.999Z</time>
      </trkpt>
      <trkpt lat="43.11445" lon="-0.3917">
        <ele>503</ele>
        <time>2021-10-07T10:36:43.999Z</time>
      </trkpt>
      <trkpt lat="43.11463" lon="-0.39153">
        <ele>502</ele>
        <time>2021-10-07T10:36:48.999Z</time>
      </trkpt>
      <trkpt lat="43.11478" lon="-0.39144">
        <ele>505</ele>
        <time>2021-10-07T10:36:52.999Z</time>
      </trkpt>
      <trkpt lat="43.11493" lon="-0.39139">
        <ele>506</ele>
        <time>2021-10-07T10:36:57.999Z</time>
      </trkpt>
      <trkpt lat="43.11507" lon="-0.39131">
        <ele>506</ele>
        <time>2021-10-07T10:37:02.999Z</time>
      </trkpt>
      <trkpt lat="43.11521" lon="-0.39124">
        <ele>515</ele>
        <time>2021-10-07T10:37:07.999Z</time>
      </trkpt>
      <trkpt lat="43.11532" lon="-0.39117">
        <ele>515</ele>
        <time>2021-10-07T10:37:12.999Z</time>
      </trkpt>
      <trkpt lat="43.11544" lon="-0.39107">
        <ele>514</ele>
        <time>2021-10-07T10:37:17.999Z</time>
      </trkpt>
      <trkpt lat="43.11557" lon="-0.39098">
        <ele>514</ele>
        <time>2021-10-07T10:37:22.999Z</time>
      </trkpt>
      <trkpt lat="43.11573" lon="-0.39085">
        <ele>515</ele>
        <time>2021-10-07T10:37:27.999Z</time>
      </trkpt>
      <trkpt lat="43.11586" lon="-0.39074">
        <ele>515</ele>
        <time>2021-10-07T10:37:32.999Z</time>
      </trkpt>
      <trkpt lat="43.11599" lon="-0.39065">
        <ele>515</ele>
        <time>2021-10-07T10:37:37.999Z</time>
      </trkpt>
      <trkpt lat="43.11612" lon="-0.39052">
        <ele>515</ele>
        <time>2021-10-07T10:37:42.990Z</time>
      </trkpt>
      <trkpt lat="43.1162" lon="-0.39038">
        <ele>518</ele>
        <time>2021-10-07T10:37:47.999Z</time>
      </trkpt>
      <trkpt lat="43.11628" lon="-0.39016">
        <ele>515</ele>
        <time>2021-10-07T10:37:51.999Z</time>
      </trkpt>
      <trkpt lat="43.11635" lon="-0.38998">
        <ele>517</ele>
        <time>2021-10-07T10:37:56.999Z</time>
      </trkpt>
      <trkpt lat="43.11644" lon="-0.38973">
        <ele>518</ele>
        <time>2021-10-07T10:38:01.999Z</time>
      </trkpt>
      <trkpt lat="43.11653" lon="-0.38947">
        <ele>519</ele>
        <time>2021-10-07T10:38:06.999Z</time>
      </trkpt>
      <trkpt lat="43.1166" lon="-0.38927">
        <ele>521</ele>
        <time>2021-10-07T10:38:11.999Z</time>
      </trkpt>
      <trkpt lat="43.1167" lon="-0.38906">
        <ele>521</ele>
        <time>2021-10-07T10:38:16.999Z</time>
      </trkpt>
      <trkpt lat="43.1168" lon="-0.38894">
        <ele>521</ele>
        <time>2021-10-07T10:38:21.999Z</time>
      </trkpt>
      <trkpt lat="43.1169" lon="-0.38881">
        <ele>522</ele>
        <time>2021-10-07T10:38:25.999Z</time>
      </trkpt>
      <trkpt lat="43.11703" lon="-0.38867">
        <ele>520</ele>
        <time>2021-10-07T10:38:30.999Z</time>
      </trkpt>
      <trkpt lat="43.11712" lon="-0.38856">
        <ele>523</ele>
        <time>2021-10-07T10:38:34.999Z</time>
      </trkpt>
      <trkpt lat="43.11723" lon="-0.38842">
        <ele>521</ele>
        <time>2021-10-07T10:38:39.999Z</time>
      </trkpt>
      <trkpt lat="43.11735" lon="-0.38828">
        <ele>521</ele>
        <time>2021-10-07T10:38:44.999Z</time>
      </trkpt>
      <trkpt lat="43.11746" lon="-0.38816">
        <ele>524</ele>
        <time>2021-10-07T10:38:48.999Z</time>
      </trkpt>
      <trkpt lat="43.11752" lon="-0.38808">
        <ele>524</ele>
        <time>2021-10-07T10:38:53.999Z</time>
      </trkpt>
      <trkpt lat="43.11773" lon="-0.38789">
        <ele>526</ele>
        <time>2021-10-07T10:38:58.999Z</time>
      </trkpt>
      <trkpt lat="43.1178" lon="-0.38784">
        <ele>526</ele>
        <time>2021-10-07T10:39:02.999Z</time>
      </trkpt>
      <trkpt lat="43.11799" lon="-0.38765">
        <ele>532</ele>
        <time>2021-10-07T10:39:07.999Z</time>
      </trkpt>
      <trkpt lat="43.11808" lon="-0.38749">
        <ele>529</ele>
        <time>2021-10-07T10:39:11.999Z</time>
      </trkpt>
      <trkpt lat="43.1182" lon="-0.38719">
        <ele>532</ele>
        <time>2021-10-07T10:39:16.999Z</time>
      </trkpt>
      <trkpt lat="43.11829" lon="-0.38701">
        <ele>531</ele>
        <time>2021-10-07T10:39:21.999Z</time>
      </trkpt>
      <trkpt lat="43.1184" lon="-0.38686">
        <ele>531</ele>
        <time>2021-10-07T10:39:26.999Z</time>
      </trkpt>
      <trkpt lat="43.1185" lon="-0.38675">
        <ele>526</ele>
        <time>2021-10-07T10:39:31.999Z</time>
      </trkpt>
      <trkpt lat="43.11859" lon="-0.38669">
        <ele>526</ele>
        <time>2021-10-07T10:39:36.999Z</time>
      </trkpt>
      <trkpt lat="43.11866" lon="-0.38666">
        <ele>526</ele>
        <time>2021-10-07T10:39:40.999Z</time>
      </trkpt>
      <trkpt lat="43.11873" lon="-0.38658">
        <ele>526</ele>
        <time>2021-10-07T10:39:45.999Z</time>
      </trkpt>
      <trkpt lat="43.11882" lon="-0.38648">
        <ele>523</ele>
        <time>2021-10-07T10:39:50.999Z</time>
      </trkpt>
      <trkpt lat="43.11892" lon="-0.38639">
        <ele>523</ele>
        <time>2021-10-07T10:39:55.999Z</time>
      </trkpt>
      <trkpt lat="43.119" lon="-0.38633">
        <ele>523</ele>
        <time>2021-10-07T10:40:00.999Z</time>
      </trkpt>
      <trkpt lat="43.11908" lon="-0.38621">
        <ele>518</ele>
        <time>2021-10-07T10:40:05.999Z</time>
      </trkpt>
      <trkpt lat="43.11919" lon="-0.3861">
        <ele>518</ele>
        <time>2021-10-07T10:40:10.999Z</time>
      </trkpt>
      <trkpt lat="43.1193" lon="-0.38603">
        <ele>518</ele>
        <time>2021-10-07T10:40:14.999Z</time>
      </trkpt>
      <trkpt lat="43.11942" lon="-0.38596">
        <ele>510</ele>
        <time>2021-10-07T10:40:19.999Z</time>
      </trkpt>
      <trkpt lat="43.11959" lon="-0.38585">
        <ele>511</ele>
        <time>2021-10-07T10:40:24.999Z</time>
      </trkpt>
      <trkpt lat="43.11972" lon="-0.38576">
        <ele>511</ele>
        <time>2021-10-07T10:40:29.999Z</time>
      </trkpt>
      <trkpt lat="43.11983" lon="-0.3857">
        <ele>511</ele>
        <time>2021-10-07T10:40:34.999Z</time>
      </trkpt>
      <trkpt lat="43.11992" lon="-0.3856">
        <ele>512</ele>
        <time>2021-10-07T10:40:39.999Z</time>
      </trkpt>
      <trkpt lat="43.11999" lon="-0.38554">
        <ele>512</ele>
        <time>2021-10-07T10:40:44.999Z</time>
      </trkpt>
      <trkpt lat="43.12005" lon="-0.38549">
        <ele>512</ele>
        <time>2021-10-07T10:40:49.999Z</time>
      </trkpt>
      <trkpt lat="43.12011" lon="-0.3854">
        <ele>510</ele>
        <time>2021-10-07T10:40:54.999Z</time>
      </trkpt>
      <trkpt lat="43.12017" lon="-0.38532">
        <ele>511</ele>
        <time>2021-10-07T10:40:59.999Z</time>
      </trkpt>
      <trkpt lat="43.12022" lon="-0.38526">
        <ele>511</ele>
        <time>2021-10-07T10:41:04.999Z</time>
      </trkpt>
      <trkpt lat="43.12027" lon="-0.38518">
        <ele>511</ele>
        <time>2021-10-07T10:41:09.999Z</time>
      </trkpt>
      <trkpt lat="43.12032" lon="-0.38514">
        <ele>511</ele>
        <time>2021-10-07T10:41:14.999Z</time>
      </trkpt>
      <trkpt lat="43.1204" lon="-0.38509">
        <ele>505</ele>
        <time>2021-10-07T10:41:19.999Z</time>
      </trkpt>
      <trkpt lat="43.12046" lon="-0.38504">
        <ele>507</ele>
        <time>2021-10-07T10:41:23.999Z</time>
      </trkpt>
      <trkpt lat="43.12056" lon="-0.38496">
        <ele>507</ele>
        <time>2021-10-07T10:41:28.999Z</time>
      </trkpt>
      <trkpt lat="43.12065" lon="-0.38486">
        <ele>507</ele>
        <time>2021-10-07T10:41:33.999Z</time>
      </trkpt>
      <trkpt lat="43.12069" lon="-0.38485">
        <ele>501</ele>
        <time>2021-10-07T10:41:38.999Z</time>
      </trkpt>
      <trkpt lat="43.12078" lon="-0.38478">
        <ele>504</ele>
        <time>2021-10-07T10:41:43.999Z</time>
      </trkpt>
      <trkpt lat="43.12087" lon="-0.38468">
        <ele>504</ele>
        <time>2021-10-07T10:41:49Z</time>
      </trkpt>
      <trkpt lat="43.12099" lon="-0.38457">
        <ele>498</ele>
        <time>2021-10-07T10:41:53.999Z</time>
      </trkpt>
      <trkpt lat="43.12107" lon="-0.38454">
        <ele>498</ele>
        <time>2021-10-07T10:41:58.999Z</time>
      </trkpt>
      <trkpt lat="43.12124" lon="-0.38448">
        <ele>498</ele>
        <time>2021-10-07T10:42:02.999Z</time>
      </trkpt>
      <trkpt lat="43.12146" lon="-0.38444">
        <ele>492</ele>
        <time>2021-10-07T10:42:07.999Z</time>
      </trkpt>
      <trkpt lat="43.12164" lon="-0.3845">
        <ele>484</ele>
        <time>2021-10-07T10:42:12.999Z</time>
      </trkpt>
      <trkpt lat="43.1218" lon="-0.38448">
        <ele>484</ele>
        <time>2021-10-07T10:42:17.999Z</time>
      </trkpt>
      <trkpt lat="43.12196" lon="-0.38425">
        <ele>473</ele>
        <time>2021-10-07T10:42:22.999Z</time>
      </trkpt>
      <trkpt lat="43.12209" lon="-0.38407">
        <ele>467</ele>
        <time>2021-10-07T10:42:27.999Z</time>
      </trkpt>
      <trkpt lat="43.12233" lon="-0.38378">
        <ele>466</ele>
        <time>2021-10-07T10:42:32.999Z</time>
      </trkpt>
      <trkpt lat="43.12261" lon="-0.38349">
        <ele>460</ele>
        <time>2021-10-07T10:42:37.999Z</time>
      </trkpt>
      <trkpt lat="43.12289" lon="-0.38322">
        <ele>458</ele>
        <time>2021-10-07T10:42:42.999Z</time>
      </trkpt>
      <trkpt lat="43.12315" lon="-0.38294">
        <ele>458</ele>
        <time>2021-10-07T10:42:47.999Z</time>
      </trkpt>
      <trkpt lat="43.12335" lon="-0.38278">
        <ele>457</ele>
        <time>2021-10-07T10:42:52.999Z</time>
      </trkpt>
      <trkpt lat="43.12354" lon="-0.38271">
        <ele>457</ele>
        <time>2021-10-07T10:42:57.999Z</time>
      </trkpt>
      <trkpt lat="43.12372" lon="-0.38265">
        <ele>457</ele>
        <time>2021-10-07T10:43:02.999Z</time>
      </trkpt>
      <trkpt lat="43.12397" lon="-0.38264">
        <ele>459</ele>
        <time>2021-10-07T10:43:06.999Z</time>
      </trkpt>
      <trkpt lat="43.12425" lon="-0.38264">
        <ele>459</ele>
        <time>2021-10-07T10:43:11.999Z</time>
      </trkpt>
      <trkpt lat="43.12447" lon="-0.38259">
        <ele>460</ele>
        <time>2021-10-07T10:43:16.999Z</time>
      </trkpt>
      <trkpt lat="43.12475" lon="-0.38248">
        <ele>456</ele>
        <time>2021-10-07T10:43:21.999Z</time>
      </trkpt>
      <trkpt lat="43.12493" lon="-0.38242">
        <ele>454</ele>
        <time>2021-10-07T10:43:26.994Z</time>
      </trkpt>
      <trkpt lat="43.12496" lon="-0.38242">
        <ele>454</ele>
        <time>2021-10-07T10:43:30.999Z</time>
      </trkpt>
      <trkpt lat="43.12498" lon="-0.38248">
        <ele>454</ele>
        <time>2021-10-07T10:43:35.999Z</time>
      </trkpt>
      <trkpt lat="43.12501" lon="-0.38264">
        <ele>454</ele>
        <time>2021-10-07T10:43:40.999Z</time>
      </trkpt>
      <trkpt lat="43.12504" lon="-0.38279">
        <ele>453</ele>
        <time>2021-10-07T10:43:45.999Z</time>
      </trkpt>
      <trkpt lat="43.12497" lon="-0.38289">
        <ele>453</ele>
        <time>2021-10-07T10:43:50.999Z</time>
      </trkpt>
      <trkpt lat="43.12486" lon="-0.38293">
        <ele>452</ele>
        <time>2021-10-07T10:43:54.999Z</time>
      </trkpt>
      <trkpt lat="43.12479" lon="-0.38295">
        <ele>453</ele>
        <time>2021-10-07T10:43:59.999Z</time>
      </trkpt>
      <trkpt lat="43.12472" lon="-0.38302">
        <ele>453</ele>
        <time>2021-10-07T10:44:04.999Z</time>
      </trkpt>
      <trkpt lat="43.12467" lon="-0.38315">
        <ele>453</ele>
        <time>2021-10-07T10:44:09.999Z</time>
      </trkpt>
      <trkpt lat="43.12462" lon="-0.38331">
        <ele>450</ele>
        <time>2021-10-07T10:44:14.999Z</time>
      </trkpt>
      <trkpt lat="43.12462" lon="-0.38355">
        <ele>446</ele>
        <time>2021-10-07T10:44:19.999Z</time>
      </trkpt>
      <trkpt lat="43.12464" lon="-0.38363">
        <ele>446</ele>
        <time>2021-10-07T10:44:24.999Z</time>
      </trkpt>
      <trkpt lat="43.12463" lon="-0.38376">
        <ele>445</ele>
        <time>2021-10-07T10:44:29.999Z</time>
      </trkpt>
      <trkpt lat="43.12465" lon="-0.38395">
        <ele>445</ele>
        <time>2021-10-07T10:44:34.999Z</time>
      </trkpt>
      <trkpt lat="43.12462" lon="-0.38408">
        <ele>447</ele>
        <time>2021-10-07T10:44:39.999Z</time>
      </trkpt>
      <trkpt lat="43.12458" lon="-0.38412">
        <ele>449</ele>
        <time>2021-10-07T10:44:44.999Z</time>
      </trkpt>
      <trkpt lat="43.12459" lon="-0.38417">
        <ele>447</ele>
        <time>2021-10-07T10:44:49.999Z</time>
      </trkpt>
      <trkpt lat="43.12456" lon="-0.3843">
        <ele>449</ele>
        <time>2021-10-07T10:44:54.999Z</time>
      </trkpt>
      <trkpt lat="43.12455" lon="-0.38437">
        <ele>450</ele>
        <time>2021-10-07T10:45:09.999Z</time>
      </trkpt>
      <trkpt lat="43.12455" lon="-0.38439">
        <ele>450</ele>
        <time>2021-10-07T10:45:14.999Z</time>
      </trkpt>
      <trkpt lat="43.12455" lon="-0.38438">
        <ele>450</ele>
        <time>2021-10-07T10:45:19.999Z</time>
      </trkpt>
      <trkpt lat="43.12456" lon="-0.38439">
        <ele>450</ele>
        <time>2021-10-07T10:45:24.999Z</time>
      </trkpt>
      <trkpt lat="43.12456" lon="-0.38451">
        <ele>450</ele>
        <time>2021-10-07T10:45:29.999Z</time>
      </trkpt>
      <trkpt lat="43.12456" lon="-0.38461">
        <ele>449</ele>
        <time>2021-10-07T10:46:03.999Z</time>
      </trkpt>
      <trkpt lat="43.1246" lon="-0.38469">
        <ele>447</ele>
        <time>2021-10-07T10:46:08.999Z</time>
      </trkpt>
      <trkpt lat="43.12462" lon="-0.38479">
        <ele>447</ele>
        <time>2021-10-07T10:46:13.999Z</time>
      </trkpt>
      <trkpt lat="43.12459" lon="-0.38489">
        <ele>444</ele>
        <time>2021-10-07T10:46:18.999Z</time>
      </trkpt>
      <trkpt lat="43.12457" lon="-0.38494">
        <ele>446</ele>
        <time>2021-10-07T10:46:23.999Z</time>
      </trkpt>
      <trkpt lat="43.12457" lon="-0.38496">
        <ele>446</ele>
        <time>2021-10-07T10:46:28.999Z</time>
      </trkpt>
      <trkpt lat="43.1246" lon="-0.38506">
        <ele>444</ele>
        <time>2021-10-07T10:46:33.999Z</time>
      </trkpt>
      <trkpt lat="43.12467" lon="-0.38514">
        <ele>444</ele>
        <time>2021-10-07T10:46:38.999Z</time>
      </trkpt>
      <trkpt lat="43.12468" lon="-0.38521">
        <ele>438</ele>
        <time>2021-10-07T10:46:43.999Z</time>
      </trkpt>
      <trkpt lat="43.12472" lon="-0.38527">
        <ele>438</ele>
        <time>2021-10-07T10:46:47.999Z</time>
      </trkpt>
      <trkpt lat="43.12483" lon="-0.38531">
        <ele>438</ele>
        <time>2021-10-07T10:46:52.999Z</time>
      </trkpt>
      <trkpt lat="43.1249" lon="-0.38532">
        <ele>431</ele>
        <time>2021-10-07T10:46:57.999Z</time>
      </trkpt>
      <trkpt lat="43.12501" lon="-0.3853">
        <ele>431</ele>
        <time>2021-10-07T10:47:02.998Z</time>
      </trkpt>
      <trkpt lat="43.12512" lon="-0.38523">
        <ele>431</ele>
        <time>2021-10-07T10:47:06.999Z</time>
      </trkpt>
      <trkpt lat="43.12522" lon="-0.38512">
        <ele>425</ele>
        <time>2021-10-07T10:47:11.999Z</time>
      </trkpt>
      <trkpt lat="43.12533" lon="-0.38513">
        <ele>425</ele>
        <time>2021-10-07T10:47:16.999Z</time>
      </trkpt>
      <trkpt lat="43.1254" lon="-0.38518">
        <ele>422</ele>
        <time>2021-10-07T10:47:21.999Z</time>
      </trkpt>
      <trkpt lat="43.12539" lon="-0.38534">
        <ele>422</ele>
        <time>2021-10-07T10:47:26.999Z</time>
      </trkpt>
      <trkpt lat="43.12535" lon="-0.38549">
        <ele>419</ele>
        <time>2021-10-07T10:47:31.999Z</time>
      </trkpt>
      <trkpt lat="43.12529" lon="-0.38562">
        <ele>419</ele>
        <time>2021-10-07T10:47:35.999Z</time>
      </trkpt>
      <trkpt lat="43.12523" lon="-0.38573">
        <ele>415</ele>
        <time>2021-10-07T10:47:40.999Z</time>
      </trkpt>
      <trkpt lat="43.12517" lon="-0.38591">
        <ele>415</ele>
        <time>2021-10-07T10:47:45.999Z</time>
      </trkpt>
      <trkpt lat="43.12514" lon="-0.38606">
        <ele>409</ele>
        <time>2021-10-07T10:47:50.999Z</time>
      </trkpt>
      <trkpt lat="43.12509" lon="-0.38615">
        <ele>412</ele>
        <time>2021-10-07T10:47:55.999Z</time>
      </trkpt>
      <trkpt lat="43.12503" lon="-0.38624">
        <ele>412</ele>
        <time>2021-10-07T10:47:59.999Z</time>
      </trkpt>
      <trkpt lat="43.12498" lon="-0.38634">
        <ele>405</ele>
        <time>2021-10-07T10:48:04.999Z</time>
      </trkpt>
      <trkpt lat="43.1249" lon="-0.38644">
        <ele>405</ele>
        <time>2021-10-07T10:48:09.999Z</time>
      </trkpt>
      <trkpt lat="43.12481" lon="-0.38654">
        <ele>402</ele>
        <time>2021-10-07T10:48:14.999Z</time>
      </trkpt>
      <trkpt lat="43.1247" lon="-0.38658">
        <ele>402</ele>
        <time>2021-10-07T10:48:19.999Z</time>
      </trkpt>
      <trkpt lat="43.12459" lon="-0.38662">
        <ele>402</ele>
        <time>2021-10-07T10:48:24.999Z</time>
      </trkpt>
      <trkpt lat="43.12453" lon="-0.38665">
        <ele>403</ele>
        <time>2021-10-07T10:48:29.999Z</time>
      </trkpt>
      <trkpt lat="43.12452" lon="-0.38669">
        <ele>403</ele>
        <time>2021-10-07T10:48:33.999Z</time>
      </trkpt>
      <trkpt lat="43.12453" lon="-0.38674">
        <ele>403</ele>
        <time>2021-10-07T10:48:38.999Z</time>
      </trkpt>
      <trkpt lat="43.12463" lon="-0.38684">
        <ele>397</ele>
        <time>2021-10-07T10:48:43.999Z</time>
      </trkpt>
      <trkpt lat="43.12472" lon="-0.3869">
        <ele>397</ele>
        <time>2021-10-07T10:48:48.999Z</time>
      </trkpt>
      <trkpt lat="43.12472" lon="-0.38693">
        <ele>397</ele>
        <time>2021-10-07T10:48:53.999Z</time>
      </trkpt>
      <trkpt lat="43.12476" lon="-0.38697">
        <ele>397</ele>
        <time>2021-10-07T10:48:58.999Z</time>
      </trkpt>
      <trkpt lat="43.12479" lon="-0.38705">
        <ele>397</ele>
        <time>2021-10-07T10:49:04Z</time>
      </trkpt>
      <trkpt lat="43.12482" lon="-0.38705">
        <ele>397</ele>
        <time>2021-10-07T10:49:08.999Z</time>
      </trkpt>
      <trkpt lat="43.12488" lon="-0.38708">
        <ele>394</ele>
        <time>2021-10-07T10:49:13.999Z</time>
      </trkpt>
      <trkpt lat="43.1249" lon="-0.3871">
        <ele>391</ele>
        <time>2021-10-07T10:49:18.999Z</time>
      </trkpt>
      <trkpt lat="43.12491" lon="-0.38711">
        <ele>391</ele>
        <time>2021-10-07T10:49:23.999Z</time>
      </trkpt>
      <trkpt lat="43.12491" lon="-0.38711">
        <ele>391</ele>
        <time>2021-10-07T10:49:28.999Z</time>
      </trkpt>
      <trkpt lat="43.12493" lon="-0.38711">
        <ele>391</ele>
        <time>2021-10-07T10:49:33.999Z</time>
      </trkpt>
      <trkpt lat="43.12501" lon="-0.38716">
        <ele>391</ele>
        <time>2021-10-07T10:49:38.999Z</time>
      </trkpt>
      <trkpt lat="43.1251" lon="-0.38714">
        <ele>391</ele>
        <time>2021-10-07T10:50:21.999Z</time>
      </trkpt>
      <trkpt lat="43.1252" lon="-0.38712">
        <ele>388</ele>
        <time>2021-10-07T10:50:25.999Z</time>
      </trkpt>
      <trkpt lat="43.12522" lon="-0.38712">
        <ele>388</ele>
        <time>2021-10-07T10:50:30.999Z</time>
      </trkpt>
      <trkpt lat="43.12523" lon="-0.38712">
        <ele>388</ele>
        <time>2021-10-07T10:50:34.999Z</time>
      </trkpt>
      <trkpt lat="43.12536" lon="-0.38709">
        <ele>388</ele>
        <time>2021-10-07T10:50:39.999Z</time>
      </trkpt>
      <trkpt lat="43.12549" lon="-0.38702">
        <ele>385</ele>
        <time>2021-10-07T10:50:44.999Z</time>
      </trkpt>
      <trkpt lat="43.12556" lon="-0.3869">
        <ele>385</ele>
        <time>2021-10-07T10:50:49.999Z</time>
      </trkpt>
      <trkpt lat="43.12562" lon="-0.3868">
        <ele>388</ele>
        <time>2021-10-07T10:50:54.999Z</time>
      </trkpt>
      <trkpt lat="43.12569" lon="-0.3867">
        <ele>388</ele>
        <time>2021-10-07T10:50:59.999Z</time>
      </trkpt>
      <trkpt lat="43.12581" lon="-0.38667">
        <ele>384</ele>
        <time>2021-10-07T10:51:04.999Z</time>
      </trkpt>
      <trkpt lat="43.12599" lon="-0.38668">
        <ele>382</ele>
        <time>2021-10-07T10:51:09.999Z</time>
      </trkpt>
      <trkpt lat="43.1261" lon="-0.38673">
        <ele>382</ele>
        <time>2021-10-07T10:51:14.998Z</time>
      </trkpt>
      <trkpt lat="43.1262" lon="-0.38673">
        <ele>382</ele>
        <time>2021-10-07T10:51:18.999Z</time>
      </trkpt>
      <trkpt lat="43.12632" lon="-0.38673">
        <ele>380</ele>
        <time>2021-10-07T10:51:23.999Z</time>
      </trkpt>
      <trkpt lat="43.12642" lon="-0.38668">
        <ele>380</ele>
        <time>2021-10-07T10:51:27.999Z</time>
      </trkpt>
      <trkpt lat="43.12651" lon="-0.38664">
        <ele>380</ele>
        <time>2021-10-07T10:51:31.999Z</time>
      </trkpt>
      <trkpt lat="43.12668" lon="-0.38664">
        <ele>380</ele>
        <time>2021-10-07T10:51:36.999Z</time>
      </trkpt>
      <trkpt lat="43.12688" lon="-0.38669">
        <ele>380</ele>
        <time>2021-10-07T10:51:41.999Z</time>
      </trkpt>
      <trkpt lat="43.12695" lon="-0.38679">
        <ele>380</ele>
        <time>2021-10-07T10:51:46.999Z</time>
      </trkpt>
      <trkpt lat="43.12701" lon="-0.38692">
        <ele>374</ele>
        <time>2021-10-07T10:51:51.999Z</time>
      </trkpt>
      <trkpt lat="43.12711" lon="-0.38695">
        <ele>374</ele>
        <time>2021-10-07T10:51:56.999Z</time>
      </trkpt>
      <trkpt lat="43.12727" lon="-0.38695">
        <ele>374</ele>
        <time>2021-10-07T10:52:01.999Z</time>
      </trkpt>
      <trkpt lat="43.12738" lon="-0.38693">
        <ele>378</ele>
        <time>2021-10-07T10:52:05.999Z</time>
      </trkpt>
      <trkpt lat="43.12749" lon="-0.38698">
        <ele>378</ele>
        <time>2021-10-07T10:52:10.999Z</time>
      </trkpt>
      <trkpt lat="43.12763" lon="-0.38711">
        <ele>372</ele>
        <time>2021-10-07T10:52:15.999Z</time>
      </trkpt>
      <trkpt lat="43.1278" lon="-0.38733">
        <ele>372</ele>
        <time>2021-10-07T10:52:20.999Z</time>
      </trkpt>
      <trkpt lat="43.12792" lon="-0.3876">
        <ele>369</ele>
        <time>2021-10-07T10:52:25.999Z</time>
      </trkpt>
      <trkpt lat="43.12797" lon="-0.38774">
        <ele>367</ele>
        <time>2021-10-07T10:52:30.999Z</time>
      </trkpt>
      <trkpt lat="43.12805" lon="-0.38789">
        <ele>367</ele>
        <time>2021-10-07T10:52:35.999Z</time>
      </trkpt>
      <trkpt lat="43.12811" lon="-0.38804">
        <ele>366</ele>
        <time>2021-10-07T10:52:40.999Z</time>
      </trkpt>
      <trkpt lat="43.12825" lon="-0.38826">
        <ele>364</ele>
        <time>2021-10-07T10:52:45.999Z</time>
      </trkpt>
      <trkpt lat="43.12838" lon="-0.38838">
        <ele>364</ele>
        <time>2021-10-07T10:52:50.999Z</time>
      </trkpt>
      <trkpt lat="43.12845" lon="-0.38847">
        <ele>364</ele>
        <time>2021-10-07T10:52:55.999Z</time>
      </trkpt>
      <trkpt lat="43.12859" lon="-0.38858">
        <ele>364</ele>
        <time>2021-10-07T10:53:00.999Z</time>
      </trkpt>
      <trkpt lat="43.12877" lon="-0.38876">
        <ele>364</ele>
        <time>2021-10-07T10:53:05.997Z</time>
      </trkpt>
      <trkpt lat="43.12887" lon="-0.38886">
        <ele>364</ele>
        <time>2021-10-07T10:53:10.997Z</time>
      </trkpt>
      <trkpt lat="43.12894" lon="-0.38891">
        <ele>364</ele>
        <time>2021-10-07T10:53:14.998Z</time>
      </trkpt>
      <trkpt lat="43.12906" lon="-0.38904">
        <ele>362</ele>
        <time>2021-10-07T10:53:18.997Z</time>
      </trkpt>
      <trkpt lat="43.12919" lon="-0.38914">
        <ele>362</ele>
        <time>2021-10-07T10:53:23.993Z</time>
      </trkpt>
      <trkpt lat="43.12929" lon="-0.3892">
        <ele>362</ele>
        <time>2021-10-07T10:53:27.999Z</time>
      </trkpt>
      <trkpt lat="43.12948" lon="-0.3893">
        <ele>361</ele>
        <time>2021-10-07T10:53:32.999Z</time>
      </trkpt>
      <trkpt lat="43.12956" lon="-0.38935">
        <ele>362</ele>
        <time>2021-10-07T10:53:37.999Z</time>
      </trkpt>
      <trkpt lat="43.12967" lon="-0.38942">
        <ele>362</ele>
        <time>2021-10-07T10:53:42.994Z</time>
      </trkpt>
      <trkpt lat="43.12978" lon="-0.38948">
        <ele>362</ele>
        <time>2021-10-07T10:53:47.999Z</time>
      </trkpt>
      <trkpt lat="43.12989" lon="-0.38953">
        <ele>363</ele>
        <time>2021-10-07T10:53:51.999Z</time>
      </trkpt>
      <trkpt lat="43.13005" lon="-0.38963">
        <ele>365</ele>
        <time>2021-10-07T10:53:56.999Z</time>
      </trkpt>
      <trkpt lat="43.13016" lon="-0.38968">
        <ele>365</ele>
        <time>2021-10-07T10:54:01.999Z</time>
      </trkpt>
      <trkpt lat="43.13027" lon="-0.38971">
        <ele>365</ele>
        <time>2021-10-07T10:54:06.999Z</time>
      </trkpt>
      <trkpt lat="43.13046" lon="-0.38976">
        <ele>365</ele>
        <time>2021-10-07T10:54:11.999Z</time>
      </trkpt>
      <trkpt lat="43.13057" lon="-0.38977">
        <ele>365</ele>
        <time>2021-10-07T10:54:16.999Z</time>
      </trkpt>
      <trkpt lat="43.13073" lon="-0.38973">
        <ele>365</ele>
        <time>2021-10-07T10:54:21.995Z</time>
      </trkpt>
      <trkpt lat="43.1308" lon="-0.38959">
        <ele>365</ele>
        <time>2021-10-07T10:54:26.994Z</time>
      </trkpt>
      <trkpt lat="43.1309" lon="-0.38937">
        <ele>365</ele>
        <time>2021-10-07T10:54:30.999Z</time>
      </trkpt>
      <trkpt lat="43.13099" lon="-0.38915">
        <ele>363</ele>
        <time>2021-10-07T10:54:35.987Z</time>
      </trkpt>
      <trkpt lat="43.13105" lon="-0.38891">
        <ele>361</ele>
        <time>2021-10-07T10:54:40.999Z</time>
      </trkpt>
      <trkpt lat="43.13111" lon="-0.38874">
        <ele>360</ele>
        <time>2021-10-07T10:54:45.999Z</time>
      </trkpt>
      <trkpt lat="43.13116" lon="-0.38857">
        <ele>360</ele>
        <time>2021-10-07T10:54:50.999Z</time>
      </trkpt>
      <trkpt lat="43.13124" lon="-0.38838">
        <ele>358</ele>
        <time>2021-10-07T10:54:55.999Z</time>
      </trkpt>
      <trkpt lat="43.13132" lon="-0.38829">
        <ele>356</ele>
        <time>2021-10-07T10:55:00.994Z</time>
      </trkpt>
      <trkpt lat="43.13148" lon="-0.38838">
        <ele>356</ele>
        <time>2021-10-07T10:55:04.999Z</time>
      </trkpt>
      <trkpt lat="43.13155" lon="-0.38845">
        <ele>355</ele>
        <time>2021-10-07T10:55:09.994Z</time>
      </trkpt>
      <trkpt lat="43.13168" lon="-0.38856">
        <ele>356</ele>
        <time>2021-10-07T10:55:14.999Z</time>
      </trkpt>
      <trkpt lat="43.13163" lon="-0.38856">
        <ele>356</ele>
        <time>2021-10-07T10:55:19.999Z</time>
      </trkpt>
      <trkpt lat="43.13152" lon="-0.38843">
        <ele>356</ele>
        <time>2021-10-07T10:55:24.999Z</time>
      </trkpt>
      <trkpt lat="43.13136" lon="-0.38827">
        <ele>356</ele>
        <time>2021-10-07T10:55:29.999Z</time>
      </trkpt>
      <trkpt lat="43.13137" lon="-0.38809">
        <ele>355</ele>
        <time>2021-10-07T10:55:34.999Z</time>
      </trkpt>
      <trkpt lat="43.13145" lon="-0.38792">
        <ele>355</ele>
        <time>2021-10-07T10:55:39.999Z</time>
      </trkpt>
      <trkpt lat="43.1315" lon="-0.38779">
        <ele>355</ele>
        <time>2021-10-07T10:55:44.999Z</time>
      </trkpt>
      <trkpt lat="43.13155" lon="-0.38762">
        <ele>355</ele>
        <time>2021-10-07T10:55:49.999Z</time>
      </trkpt>
      <trkpt lat="43.1316" lon="-0.38744">
        <ele>355</ele>
        <time>2021-10-07T10:55:54.999Z</time>
      </trkpt>
      <trkpt lat="43.13164" lon="-0.38728">
        <ele>357</ele>
        <time>2021-10-07T10:55:59.999Z</time>
      </trkpt>
      <trkpt lat="43.13168" lon="-0.3871">
        <ele>357</ele>
        <time>2021-10-07T10:56:03.999Z</time>
      </trkpt>
      <trkpt lat="43.13171" lon="-0.38692">
        <ele>363</ele>
        <time>2021-10-07T10:56:08.999Z</time>
      </trkpt>
      <trkpt lat="43.13172" lon="-0.38682">
        <ele>363</ele>
        <time>2021-10-07T10:56:13.999Z</time>
      </trkpt>
      <trkpt lat="43.13172" lon="-0.38682">
        <ele>363</ele>
        <time>2021-10-07T10:56:18.999Z</time>
      </trkpt>
      <trkpt lat="43.13172" lon="-0.38677">
        <ele>372</ele>
        <time>2021-10-07T10:56:23.999Z</time>
      </trkpt>
      <trkpt lat="43.13171" lon="-0.38664">
        <ele>372</ele>
        <time>2021-10-07T10:56:28.999Z</time>
      </trkpt>
      <trkpt lat="43.13172" lon="-0.38664">
        <ele>372</ele>
        <time>2021-10-07T10:56:33.999Z</time>
      </trkpt>
      <trkpt lat="43.13171" lon="-0.38677">
        <ele>372</ele>
        <time>2021-10-07T10:56:37.999Z</time>
      </trkpt>
      <trkpt lat="43.13171" lon="-0.38677">
        <ele>372</ele>
        <time>2021-10-07T10:56:42.999Z</time>
      </trkpt>
      <trkpt lat="43.13171" lon="-0.38677">
        <ele>372</ele>
        <time>2021-10-07T10:56:47.999Z</time>
      </trkpt>
      <trkpt lat="43.13171" lon="-0.38677">
        <ele>372</ele>
        <time>2021-10-07T10:57:07.999Z</time>
      </trkpt>
      <trkpt lat="43.13171" lon="-0.38677">
        <ele>372</ele>
        <time>2021-10-07T10:57:12.998Z</time>
      </trkpt>
      <trkpt lat="43.1319" lon="-0.38661">
        <ele>377</ele>
        <time>2021-10-07T10:57:16.999Z</time>
      </trkpt>
      <trkpt lat="43.1319" lon="-0.3866">
        <ele>377</ele>
        <time>2021-10-07T10:57:21.998Z</time>
      </trkpt>
      <trkpt lat="43.1319" lon="-0.38659">
        <ele>377</ele>
        <time>2021-10-07T10:57:26.995Z</time>
      </trkpt>
      <trkpt lat="43.13194" lon="-0.38662">
        <ele>377</ele>
        <time>2021-10-07T10:58:58.999Z</time>
      </trkpt>
      <trkpt lat="43.13194" lon="-0.3866">
        <ele>377</ele>
        <time>2021-10-07T10:59:02.999Z</time>
      </trkpt>
      <trkpt lat="43.13198" lon="-0.38656">
        <ele>377</ele>
        <time>2021-10-07T10:59:07.999Z</time>
      </trkpt>
      <trkpt lat="43.13198" lon="-0.38656">
        <ele>377</ele>
        <time>2021-10-07T10:59:12.998Z</time>
      </trkpt>
      <trkpt lat="43.13204" lon="-0.3866">
        <ele>377</ele>
        <time>2021-10-07T10:59:18Z</time>
      </trkpt>
      <trkpt lat="43.13212" lon="-0.38662">
        <ele>383</ele>
        <time>2021-10-07T11:06:22.997Z</time>
      </trkpt>
      <trkpt lat="43.1322" lon="-0.3866">
        <ele>383</ele>
        <time>2021-10-07T11:06:27.999Z</time>
      </trkpt>
      <trkpt lat="43.13229" lon="-0.38665">
        <ele>383</ele>
        <time>2021-10-07T11:06:32.998Z</time>
      </trkpt>
      <trkpt lat="43.13229" lon="-0.38666">
        <ele>383</ele>
        <time>2021-10-07T11:06:37.999Z</time>
      </trkpt>
      <trkpt lat="43.13229" lon="-0.38666">
        <ele>383</ele>
        <time>2021-10-07T11:06:42.999Z</time>
      </trkpt>
      <trkpt lat="43.13231" lon="-0.38666">
        <ele>383</ele>
        <time>2021-10-07T11:07:12.999Z</time>
      </trkpt>
      <trkpt lat="43.13232" lon="-0.38666">
        <ele>383</ele>
        <time>2021-10-07T11:07:16.999Z</time>
      </trkpt>
      <trkpt lat="43.13236" lon="-0.38665">
        <ele>390</ele>
        <time>2021-10-07T11:07:21.999Z</time>
      </trkpt>
      <trkpt lat="43.13243" lon="-0.38668">
        <ele>390</ele>
        <time>2021-10-07T11:07:26.999Z</time>
      </trkpt>
      <trkpt lat="43.13247" lon="-0.38669">
        <ele>390</ele>
        <time>2021-10-07T11:07:31.999Z</time>
      </trkpt>
      <trkpt lat="43.1325" lon="-0.38669">
        <ele>390</ele>
        <time>2021-10-07T11:08:09.999Z</time>
      </trkpt>
      <trkpt lat="43.13253" lon="-0.38667">
        <ele>390</ele>
        <time>2021-10-07T11:08:14.999Z</time>
      </trkpt>
      <trkpt lat="43.13254" lon="-0.38668">
        <ele>390</ele>
        <time>2021-10-07T11:08:19.999Z</time>
      </trkpt>
      <trkpt lat="43.13255" lon="-0.38668">
        <ele>390</ele>
        <time>2021-10-07T11:08:24.999Z</time>
      </trkpt>
      <trkpt lat="43.1326" lon="-0.38664">
        <ele>390</ele>
        <time>2021-10-07T11:08:30Z</time>
      </trkpt>
      <trkpt lat="43.1327" lon="-0.38664">
        <ele>398</ele>
        <time>2021-10-07T11:08:34.999Z</time>
      </trkpt>
      <trkpt lat="43.1328" lon="-0.38662">
        <ele>398</ele>
        <time>2021-10-07T11:08:39.999Z</time>
      </trkpt>
      <trkpt lat="43.13288" lon="-0.3866">
        <ele>398</ele>
        <time>2021-10-07T11:08:44.999Z</time>
      </trkpt>
      <trkpt lat="43.13294" lon="-0.38659">
        <ele>399</ele>
        <time>2021-10-07T11:08:48.999Z</time>
      </trkpt>
      <trkpt lat="43.13301" lon="-0.3866">
        <ele>399</ele>
        <time>2021-10-07T11:09:22.998Z</time>
      </trkpt>
      <trkpt lat="43.13307" lon="-0.38661">
        <ele>399</ele>
        <time>2021-10-07T11:09:27.999Z</time>
      </trkpt>
      <trkpt lat="43.13315" lon="-0.3866">
        <ele>399</ele>
        <time>2021-10-07T11:09:32.999Z</time>
      </trkpt>
      <trkpt lat="43.13324" lon="-0.38658">
        <ele>399</ele>
        <time>2021-10-07T11:09:37.999Z</time>
      </trkpt>
      <trkpt lat="43.13333" lon="-0.38656">
        <ele>399</ele>
        <time>2021-10-07T11:09:42.999Z</time>
      </trkpt>
      <trkpt lat="43.13341" lon="-0.38657">
        <ele>399</ele>
        <time>2021-10-07T11:09:47.999Z</time>
      </trkpt>
      <trkpt lat="43.13345" lon="-0.3866">
        <ele>399</ele>
        <time>2021-10-07T11:09:51.999Z</time>
      </trkpt>
      <trkpt lat="43.1335" lon="-0.38659">
        <ele>399</ele>
        <time>2021-10-07T11:09:56.999Z</time>
      </trkpt>
      <trkpt lat="43.13352" lon="-0.38656">
        <ele>399</ele>
        <time>2021-10-07T11:10:01.997Z</time>
      </trkpt>
      <trkpt lat="43.13355" lon="-0.38653">
        <ele>399</ele>
        <time>2021-10-07T11:10:05.999Z</time>
      </trkpt>
      <trkpt lat="43.13361" lon="-0.38655">
        <ele>399</ele>
        <time>2021-10-07T11:10:10.999Z</time>
      </trkpt>
      <trkpt lat="43.13366" lon="-0.38653">
        <ele>406</ele>
        <time>2021-10-07T11:10:15.999Z</time>
      </trkpt>
      <trkpt lat="43.13369" lon="-0.38648">
        <ele>406</ele>
        <time>2021-10-07T11:10:19.999Z</time>
      </trkpt>
      <trkpt lat="43.13375" lon="-0.38649">
        <ele>406</ele>
        <time>2021-10-07T11:10:24.999Z</time>
      </trkpt>
      <trkpt lat="43.13376" lon="-0.38647">
        <ele>407</ele>
        <time>2021-10-07T11:10:29.999Z</time>
      </trkpt>
      <trkpt lat="43.13377" lon="-0.38645">
        <ele>407</ele>
        <time>2021-10-07T11:10:34.998Z</time>
      </trkpt>
      <trkpt lat="43.13379" lon="-0.38643">
        <ele>407</ele>
        <time>2021-10-07T11:10:39.999Z</time>
      </trkpt>
      <trkpt lat="43.13382" lon="-0.3864">
        <ele>407</ele>
        <time>2021-10-07T11:10:44.999Z</time>
      </trkpt>
      <trkpt lat="43.13385" lon="-0.38635">
        <ele>407</ele>
        <time>2021-10-07T11:10:50Z</time>
      </trkpt>
      <trkpt lat="43.13387" lon="-0.38632">
        <ele>407</ele>
        <time>2021-10-07T11:10:54.999Z</time>
      </trkpt>
      <trkpt lat="43.13391" lon="-0.3863">
        <ele>407</ele>
        <time>2021-10-07T11:10:59.999Z</time>
      </trkpt>
      <trkpt lat="43.13395" lon="-0.38626">
        <ele>407</ele>
        <time>2021-10-07T11:11:39.999Z</time>
      </trkpt>
      <trkpt lat="43.13399" lon="-0.38624">
        <ele>412</ele>
        <time>2021-10-07T11:11:43.999Z</time>
      </trkpt>
      <trkpt lat="43.134" lon="-0.38622">
        <ele>412</ele>
        <time>2021-10-07T11:11:48.999Z</time>
      </trkpt>
      <trkpt lat="43.13402" lon="-0.38619">
        <ele>412</ele>
        <time>2021-10-07T11:11:52.999Z</time>
      </trkpt>
      <trkpt lat="43.13404" lon="-0.38617">
        <ele>414</ele>
        <time>2021-10-07T11:11:57.999Z</time>
      </trkpt>
      <trkpt lat="43.13405" lon="-0.38616">
        <ele>414</ele>
        <time>2021-10-07T11:12:02.999Z</time>
      </trkpt>
      <trkpt lat="43.13407" lon="-0.38614">
        <ele>414</ele>
        <time>2021-10-07T11:12:07.999Z</time>
      </trkpt>
      <trkpt lat="43.13407" lon="-0.38611">
        <ele>414</ele>
        <time>2021-10-07T11:12:12.999Z</time>
      </trkpt>
      <trkpt lat="43.13411" lon="-0.38606">
        <ele>414</ele>
        <time>2021-10-07T11:12:17.999Z</time>
      </trkpt>
      <trkpt lat="43.13415" lon="-0.38604">
        <ele>414</ele>
        <time>2021-10-07T11:13:11.999Z</time>
      </trkpt>
      <trkpt lat="43.13416" lon="-0.386">
        <ele>414</ele>
        <time>2021-10-07T11:13:16.999Z</time>
      </trkpt>
      <trkpt lat="43.13416" lon="-0.386">
        <ele>414</ele>
        <time>2021-10-07T11:13:20.999Z</time>
      </trkpt>
      <trkpt lat="43.13416" lon="-0.38599">
        <ele>414</ele>
        <time>2021-10-07T11:13:25.999Z</time>
      </trkpt>
      <trkpt lat="43.13418" lon="-0.38595">
        <ele>422</ele>
        <time>2021-10-07T11:13:31Z</time>
      </trkpt>
      <trkpt lat="43.13418" lon="-0.38589">
        <ele>422</ele>
        <time>2021-10-07T11:13:35.999Z</time>
      </trkpt>
      <trkpt lat="43.1342" lon="-0.38586">
        <ele>422</ele>
        <time>2021-10-07T11:13:40.999Z</time>
      </trkpt>
      <trkpt lat="43.13423" lon="-0.38582">
        <ele>422</ele>
        <time>2021-10-07T11:13:45.999Z</time>
      </trkpt>
      <trkpt lat="43.13424" lon="-0.3858">
        <ele>422</ele>
        <time>2021-10-07T11:13:50.999Z</time>
      </trkpt>
      <trkpt lat="43.13426" lon="-0.38575">
        <ele>422</ele>
        <time>2021-10-07T11:14:19.999Z</time>
      </trkpt>
      <trkpt lat="43.13428" lon="-0.38567">
        <ele>428</ele>
        <time>2021-10-07T11:14:23.999Z</time>
      </trkpt>
      <trkpt lat="43.1343" lon="-0.38561">
        <ele>428</ele>
        <time>2021-10-07T11:14:28.999Z</time>
      </trkpt>
      <trkpt lat="43.13432" lon="-0.38555">
        <ele>424</ele>
        <time>2021-10-07T11:14:33.999Z</time>
      </trkpt>
      <trkpt lat="43.13431" lon="-0.38547">
        <ele>424</ele>
        <time>2021-10-07T11:14:38.999Z</time>
      </trkpt>
      <trkpt lat="43.13437" lon="-0.38547">
        <ele>424</ele>
        <time>2021-10-07T11:14:42.999Z</time>
      </trkpt>
      <trkpt lat="43.13437" lon="-0.38547">
        <ele>424</ele>
        <time>2021-10-07T11:14:48Z</time>
      </trkpt>
      <trkpt lat="43.13437" lon="-0.38544">
        <ele>424</ele>
        <time>2021-10-07T11:14:51.999Z</time>
      </trkpt>
      <trkpt lat="43.13439" lon="-0.3854">
        <ele>431</ele>
        <time>2021-10-07T11:14:56.999Z</time>
      </trkpt>
      <trkpt lat="43.13443" lon="-0.38536">
        <ele>431</ele>
        <time>2021-10-07T11:15:01.999Z</time>
      </trkpt>
      <trkpt lat="43.13443" lon="-0.3853">
        <ele>431</ele>
        <time>2021-10-07T11:15:06.999Z</time>
      </trkpt>
      <trkpt lat="43.13445" lon="-0.38525">
        <ele>431</ele>
        <time>2021-10-07T11:15:10.999Z</time>
      </trkpt>
      <trkpt lat="43.13447" lon="-0.38519">
        <ele>431</ele>
        <time>2021-10-07T11:15:15.999Z</time>
      </trkpt>
      <trkpt lat="43.1345" lon="-0.38511">
        <ele>434</ele>
        <time>2021-10-07T11:15:53.999Z</time>
      </trkpt>
      <trkpt lat="43.13452" lon="-0.38509">
        <ele>434</ele>
        <time>2021-10-07T11:15:59.001Z</time>
      </trkpt>
      <trkpt lat="43.13452" lon="-0.38509">
        <ele>434</ele>
        <time>2021-10-07T11:16:03.998Z</time>
      </trkpt>
      <trkpt lat="43.13452" lon="-0.38509">
        <ele>434</ele>
        <time>2021-10-07T11:16:08.996Z</time>
      </trkpt>
      <trkpt lat="43.13454" lon="-0.38503">
        <ele>434</ele>
        <time>2021-10-07T11:16:13.999Z</time>
      </trkpt>
      <trkpt lat="43.13455" lon="-0.38496">
        <ele>434</ele>
        <time>2021-10-07T11:16:17.996Z</time>
      </trkpt>
      <trkpt lat="43.13461" lon="-0.38488">
        <ele>431</ele>
        <time>2021-10-07T11:16:22.999Z</time>
      </trkpt>
      <trkpt lat="43.13462" lon="-0.38488">
        <ele>431</ele>
        <time>2021-10-07T11:16:26.999Z</time>
      </trkpt>
      <trkpt lat="43.13463" lon="-0.38486">
        <ele>431</ele>
        <time>2021-10-07T11:16:31.999Z</time>
      </trkpt>
      <trkpt lat="43.13463" lon="-0.38482">
        <ele>434</ele>
        <time>2021-10-07T11:16:36.994Z</time>
      </trkpt>
      <trkpt lat="43.13463" lon="-0.38477">
        <ele>434</ele>
        <time>2021-10-07T11:16:41.999Z</time>
      </trkpt>
      <trkpt lat="43.13461" lon="-0.38474">
        <ele>434</ele>
        <time>2021-10-07T11:16:46.999Z</time>
      </trkpt>
      <trkpt lat="43.13463" lon="-0.38473">
        <ele>434</ele>
        <time>2021-10-07T11:16:51.999Z</time>
      </trkpt>
      <trkpt lat="43.13467" lon="-0.38468">
        <ele>434</ele>
        <time>2021-10-07T11:16:56.995Z</time>
      </trkpt>
      <trkpt lat="43.13468" lon="-0.38464">
        <ele>434</ele>
        <time>2021-10-07T11:17:05.999Z</time>
      </trkpt>
      <trkpt lat="43.1347" lon="-0.3846">
        <ele>434</ele>
        <time>2021-10-07T11:17:11Z</time>
      </trkpt>
      <trkpt lat="43.1347" lon="-0.38453">
        <ele>436</ele>
        <time>2021-10-07T11:17:14.999Z</time>
      </trkpt>
      <trkpt lat="43.1347" lon="-0.38452">
        <ele>436</ele>
        <time>2021-10-07T11:17:19.999Z</time>
      </trkpt>
      <trkpt lat="43.1347" lon="-0.38451">
        <ele>436</ele>
        <time>2021-10-07T11:17:25Z</time>
      </trkpt>
      <trkpt lat="43.1347" lon="-0.38451">
        <ele>436</ele>
        <time>2021-10-07T11:17:53.999Z</time>
      </trkpt>
      <trkpt lat="43.1347" lon="-0.38445">
        <ele>436</ele>
        <time>2021-10-07T11:17:58.999Z</time>
      </trkpt>
      <trkpt lat="43.13469" lon="-0.38437">
        <ele>436</ele>
        <time>2021-10-07T11:18:03.999Z</time>
      </trkpt>
      <trkpt lat="43.13469" lon="-0.38426">
        <ele>439</ele>
        <time>2021-10-07T11:18:08.999Z</time>
      </trkpt>
      <trkpt lat="43.13469" lon="-0.38414">
        <ele>439</ele>
        <time>2021-10-07T11:18:13.997Z</time>
      </trkpt>
      <trkpt lat="43.13473" lon="-0.38401">
        <ele>441</ele>
        <time>2021-10-07T11:18:36.999Z</time>
      </trkpt>
      <trkpt lat="43.13474" lon="-0.38392">
        <ele>441</ele>
        <time>2021-10-07T11:18:41.999Z</time>
      </trkpt>
      <trkpt lat="43.13478" lon="-0.38377">
        <ele>441</ele>
        <time>2021-10-07T11:18:46.999Z</time>
      </trkpt>
      <trkpt lat="43.13481" lon="-0.38362">
        <ele>442</ele>
        <time>2021-10-07T11:18:50.999Z</time>
      </trkpt>
      <trkpt lat="43.1348" lon="-0.3835">
        <ele>442</ele>
        <time>2021-10-07T11:18:55.996Z</time>
      </trkpt>
      <trkpt lat="43.13478" lon="-0.38336">
        <ele>445</ele>
        <time>2021-10-07T11:18:59.999Z</time>
      </trkpt>
      <trkpt lat="43.13472" lon="-0.38327">
        <ele>445</ele>
        <time>2021-10-07T11:19:04.999Z</time>
      </trkpt>
      <trkpt lat="43.13472" lon="-0.38323">
        <ele>445</ele>
        <time>2021-10-07T11:19:09.995Z</time>
      </trkpt>
      <trkpt lat="43.13471" lon="-0.38321">
        <ele>445</ele>
        <time>2021-10-07T11:19:14.999Z</time>
      </trkpt>
      <trkpt lat="43.13475" lon="-0.38312">
        <ele>447</ele>
        <time>2021-10-07T11:19:18.999Z</time>
      </trkpt>
      <trkpt lat="43.13474" lon="-0.38309">
        <ele>447</ele>
        <time>2021-10-07T11:19:23.999Z</time>
      </trkpt>
      <trkpt lat="43.13474" lon="-0.38307">
        <ele>447</ele>
        <time>2021-10-07T11:19:29Z</time>
      </trkpt>
      <trkpt lat="43.13474" lon="-0.38306">
        <ele>447</ele>
        <time>2021-10-07T11:19:34Z</time>
      </trkpt>
      <trkpt lat="43.13473" lon="-0.38306">
        <ele>447</ele>
        <time>2021-10-07T11:19:39.002Z</time>
      </trkpt>
      <trkpt lat="43.13473" lon="-0.38305">
        <ele>447</ele>
        <time>2021-10-07T11:19:43.999Z</time>
      </trkpt>
      <trkpt lat="43.13475" lon="-0.38295">
        <ele>447</ele>
        <time>2021-10-07T11:19:48.991Z</time>
      </trkpt>
      <trkpt lat="43.13479" lon="-0.38286">
        <ele>449</ele>
        <time>2021-10-07T11:19:53.998Z</time>
      </trkpt>
      <trkpt lat="43.13484" lon="-0.38278">
        <ele>449</ele>
        <time>2021-10-07T11:20:48.999Z</time>
      </trkpt>
      <trkpt lat="43.1349" lon="-0.38272">
        <ele>444</ele>
        <time>2021-10-07T11:20:53.999Z</time>
      </trkpt>
      <trkpt lat="43.13496" lon="-0.38265">
        <ele>444</ele>
        <time>2021-10-07T11:20:59Z</time>
      </trkpt>
      <trkpt lat="43.13501" lon="-0.38259">
        <ele>448</ele>
        <time>2021-10-07T11:21:03.999Z</time>
      </trkpt>
      <trkpt lat="43.13502" lon="-0.38256">
        <ele>448</ele>
        <time>2021-10-07T11:21:08.999Z</time>
      </trkpt>
      <trkpt lat="43.13503" lon="-0.38255">
        <ele>448</ele>
        <time>2021-10-07T11:21:13.999Z</time>
      </trkpt>
      <trkpt lat="43.13508" lon="-0.38248">
        <ele>448</ele>
        <time>2021-10-07T11:21:18.996Z</time>
      </trkpt>
      <trkpt lat="43.13513" lon="-0.38243">
        <ele>448</ele>
        <time>2021-10-07T11:21:22.999Z</time>
      </trkpt>
      <trkpt lat="43.13517" lon="-0.38238">
        <ele>445</ele>
        <time>2021-10-07T11:21:27.999Z</time>
      </trkpt>
      <trkpt lat="43.13529" lon="-0.38251">
        <ele>445</ele>
        <time>2021-10-07T11:21:32.999Z</time>
      </trkpt>
      <trkpt lat="43.13537" lon="-0.38241">
        <ele>445</ele>
        <time>2021-10-07T11:21:37.999Z</time>
      </trkpt>
      <trkpt lat="43.13542" lon="-0.38233">
        <ele>444</ele>
        <time>2021-10-07T11:21:41.999Z</time>
      </trkpt>
      <trkpt lat="43.13549" lon="-0.38226">
        <ele>444</ele>
        <time>2021-10-07T11:21:46.997Z</time>
      </trkpt>
      <trkpt lat="43.13555" lon="-0.38219">
        <ele>444</ele>
        <time>2021-10-07T11:21:51.995Z</time>
      </trkpt>
      <trkpt lat="43.13562" lon="-0.38208">
        <ele>449</ele>
        <time>2021-10-07T11:21:56.999Z</time>
      </trkpt>
      <trkpt lat="43.13568" lon="-0.382">
        <ele>449</ele>
        <time>2021-10-07T11:22:01.996Z</time>
      </trkpt>
      <trkpt lat="43.13576" lon="-0.38189">
        <ele>443</ele>
        <time>2021-10-07T11:22:06.999Z</time>
      </trkpt>
      <trkpt lat="43.13583" lon="-0.38178">
        <ele>449</ele>
        <time>2021-10-07T11:24:38.999Z</time>
      </trkpt>
      <trkpt lat="43.13589" lon="-0.38172">
        <ele>449</ele>
        <time>2021-10-07T11:24:43.994Z</time>
      </trkpt>
      <trkpt lat="43.13596" lon="-0.38164">
        <ele>449</ele>
        <time>2021-10-07T11:24:48.999Z</time>
      </trkpt>
      <trkpt lat="43.13604" lon="-0.38154">
        <ele>447</ele>
        <time>2021-10-07T11:24:53.993Z</time>
      </trkpt>
      <trkpt lat="43.13612" lon="-0.38145">
        <ele>453</ele>
        <time>2021-10-07T11:24:58.999Z</time>
      </trkpt>
      <trkpt lat="43.13619" lon="-0.38138">
        <ele>453</ele>
        <time>2021-10-07T11:25:03.991Z</time>
      </trkpt>
      <trkpt lat="43.13627" lon="-0.38129">
        <ele>451</ele>
        <time>2021-10-07T11:25:07.994Z</time>
      </trkpt>
      <trkpt lat="43.13635" lon="-0.3812">
        <ele>456</ele>
        <time>2021-10-07T11:25:13Z</time>
      </trkpt>
      <trkpt lat="43.13643" lon="-0.38115">
        <ele>456</ele>
        <time>2021-10-07T11:25:17.993Z</time>
      </trkpt>
      <trkpt lat="43.13652" lon="-0.38108">
        <ele>456</ele>
        <time>2021-10-07T11:25:21.999Z</time>
      </trkpt>
      <trkpt lat="43.13661" lon="-0.38102">
        <ele>453</ele>
        <time>2021-10-07T11:25:27Z</time>
      </trkpt>
      <trkpt lat="43.1367" lon="-0.38094">
        <ele>460</ele>
        <time>2021-10-07T11:25:31.994Z</time>
      </trkpt>
      <trkpt lat="43.1368" lon="-0.38086">
        <ele>460</ele>
        <time>2021-10-07T11:25:36.999Z</time>
      </trkpt>
      <trkpt lat="43.13681" lon="-0.38088">
        <ele>457</ele>
        <time>2021-10-07T11:25:41.993Z</time>
      </trkpt>
      <trkpt lat="43.1369" lon="-0.38082">
        <ele>457</ele>
        <time>2021-10-07T11:25:46.999Z</time>
      </trkpt>
      <trkpt lat="43.13697" lon="-0.38075">
        <ele>457</ele>
        <time>2021-10-07T11:25:51.994Z</time>
      </trkpt>
      <trkpt lat="43.13702" lon="-0.38069">
        <ele>457</ele>
        <time>2021-10-07T11:25:57Z</time>
      </trkpt>
      <trkpt lat="43.13708" lon="-0.38062">
        <ele>461</ele>
        <time>2021-10-07T11:26:01.998Z</time>
      </trkpt>
      <trkpt lat="43.13714" lon="-0.38056">
        <ele>456</ele>
        <time>2021-10-07T11:26:06.996Z</time>
      </trkpt>
      <trkpt lat="43.13724" lon="-0.38052">
        <ele>456</ele>
        <time>2021-10-07T11:26:11.993Z</time>
      </trkpt>
      <trkpt lat="43.13734" lon="-0.38044">
        <ele>456</ele>
        <time>2021-10-07T11:26:16.999Z</time>
      </trkpt>
      <trkpt lat="43.13738" lon="-0.38034">
        <ele>458</ele>
        <time>2021-10-07T11:27:25.993Z</time>
      </trkpt>
      <trkpt lat="43.13738" lon="-0.38037">
        <ele>458</ele>
        <time>2021-10-07T11:27:30.999Z</time>
      </trkpt>
      <trkpt lat="43.13731" lon="-0.38048">
        <ele>456</ele>
        <time>2021-10-07T11:27:35.997Z</time>
      </trkpt>
      <trkpt lat="43.13723" lon="-0.38054">
        <ele>456</ele>
        <time>2021-10-07T11:27:39.996Z</time>
      </trkpt>
      <trkpt lat="43.13716" lon="-0.38055">
        <ele>456</ele>
        <time>2021-10-07T11:27:44.999Z</time>
      </trkpt>
      <trkpt lat="43.13708" lon="-0.38063">
        <ele>461</ele>
        <time>2021-10-07T11:27:49.996Z</time>
      </trkpt>
      <trkpt lat="43.137" lon="-0.3807">
        <ele>457</ele>
        <time>2021-10-07T11:27:53.996Z</time>
      </trkpt>
      <trkpt lat="43.13693" lon="-0.38077">
        <ele>457</ele>
        <time>2021-10-07T11:27:58.999Z</time>
      </trkpt>
      <trkpt lat="43.13683" lon="-0.38085">
        <ele>457</ele>
        <time>2021-10-07T11:28:03.998Z</time>
      </trkpt>
      <trkpt lat="43.13672" lon="-0.38092">
        <ele>460</ele>
        <time>2021-10-07T11:29:00.999Z</time>
      </trkpt>
      <trkpt lat="43.13666" lon="-0.38096">
        <ele>460</ele>
        <time>2021-10-07T11:29:05.997Z</time>
      </trkpt>
      <trkpt lat="43.13659" lon="-0.38104">
        <ele>453</ele>
        <time>2021-10-07T11:29:09.995Z</time>
      </trkpt>
      <trkpt lat="43.13653" lon="-0.38111">
        <ele>456</ele>
        <time>2021-10-07T11:29:13.999Z</time>
      </trkpt>
      <trkpt lat="43.13645" lon="-0.38117">
        <ele>456</ele>
        <time>2021-10-07T11:29:18.998Z</time>
      </trkpt>
      <trkpt lat="43.13634" lon="-0.38122">
        <ele>456</ele>
        <time>2021-10-07T11:29:22.999Z</time>
      </trkpt>
      <trkpt lat="43.13624" lon="-0.38132">
        <ele>453</ele>
        <time>2021-10-07T11:29:27.995Z</time>
      </trkpt>
      <trkpt lat="43.13618" lon="-0.38139">
        <ele>453</ele>
        <time>2021-10-07T11:29:33Z</time>
      </trkpt>
      <trkpt lat="43.13606" lon="-0.38152">
        <ele>453</ele>
        <time>2021-10-07T11:29:37.999Z</time>
      </trkpt>
      <trkpt lat="43.13594" lon="-0.38167">
        <ele>449</ele>
        <time>2021-10-07T11:29:41.999Z</time>
      </trkpt>
      <trkpt lat="43.13586" lon="-0.38177">
        <ele>449</ele>
        <time>2021-10-07T11:29:46.999Z</time>
      </trkpt>
      <trkpt lat="43.13576" lon="-0.38187">
        <ele>443</ele>
        <time>2021-10-07T11:29:51.995Z</time>
      </trkpt>
      <trkpt lat="43.13568" lon="-0.38196">
        <ele>449</ele>
        <time>2021-10-07T11:29:55.998Z</time>
      </trkpt>
      <trkpt lat="43.13559" lon="-0.38211">
        <ele>444</ele>
        <time>2021-10-07T11:30:01Z</time>
      </trkpt>
      <trkpt lat="43.1355" lon="-0.38225">
        <ele>444</ele>
        <time>2021-10-07T11:30:05.996Z</time>
      </trkpt>
      <trkpt lat="43.1354" lon="-0.38234">
        <ele>450</ele>
        <time>2021-10-07T11:30:09.999Z</time>
      </trkpt>
      <trkpt lat="43.1353" lon="-0.38239">
        <ele>445</ele>
        <time>2021-10-07T11:30:14.999Z</time>
      </trkpt>
      <trkpt lat="43.13522" lon="-0.38229">
        <ele>450</ele>
        <time>2021-10-07T11:30:19.993Z</time>
      </trkpt>
      <trkpt lat="43.13522" lon="-0.38227">
        <ele>450</ele>
        <time>2021-10-07T11:30:23.997Z</time>
      </trkpt>
      <trkpt lat="43.13528" lon="-0.38218">
        <ele>450</ele>
        <time>2021-10-07T11:30:28.995Z</time>
      </trkpt>
      <trkpt lat="43.13537" lon="-0.38208">
        <ele>454</ele>
        <time>2021-10-07T11:30:32.999Z</time>
      </trkpt>
      <trkpt lat="43.13545" lon="-0.38199">
        <ele>449</ele>
        <time>2021-10-07T11:30:37.999Z</time>
      </trkpt>
      <trkpt lat="43.13554" lon="-0.38189">
        <ele>449</ele>
        <time>2021-10-07T11:30:42.999Z</time>
      </trkpt>
      <trkpt lat="43.13562" lon="-0.38178">
        <ele>453</ele>
        <time>2021-10-07T11:30:47.999Z</time>
      </trkpt>
      <trkpt lat="43.1357" lon="-0.3817">
        <ele>449</ele>
        <time>2021-10-07T11:30:52.999Z</time>
      </trkpt>
      <trkpt lat="43.13578" lon="-0.38161">
        <ele>449</ele>
        <time>2021-10-07T11:32:30.999Z</time>
      </trkpt>
      <trkpt lat="43.13586" lon="-0.38152">
        <ele>453</ele>
        <time>2021-10-07T11:32:35.999Z</time>
      </trkpt>
      <trkpt lat="43.13597" lon="-0.38143">
        <ele>453</ele>
        <time>2021-10-07T11:32:40.997Z</time>
      </trkpt>
      <trkpt lat="43.13605" lon="-0.38136">
        <ele>453</ele>
        <time>2021-10-07T11:32:45.993Z</time>
      </trkpt>
      <trkpt lat="43.13614" lon="-0.38129">
        <ele>453</ele>
        <time>2021-10-07T11:32:49.999Z</time>
      </trkpt>
      <trkpt lat="43.13622" lon="-0.38119">
        <ele>457</ele>
        <time>2021-10-07T11:32:54.999Z</time>
      </trkpt>
      <trkpt lat="43.13633" lon="-0.38112">
        <ele>456</ele>
        <time>2021-10-07T11:32:59.993Z</time>
      </trkpt>
      <trkpt lat="43.13644" lon="-0.38102">
        <ele>456</ele>
        <time>2021-10-07T11:33:04Z</time>
      </trkpt>
      <trkpt lat="43.13654" lon="-0.38094">
        <ele>460</ele>
        <time>2021-10-07T11:33:08.993Z</time>
      </trkpt>
      <trkpt lat="43.13664" lon="-0.38087">
        <ele>460</ele>
        <time>2021-10-07T11:33:13.995Z</time>
      </trkpt>
      <trkpt lat="43.13671" lon="-0.38077">
        <ele>460</ele>
        <time>2021-10-07T11:33:18.994Z</time>
      </trkpt>
      <trkpt lat="43.13683" lon="-0.38071">
        <ele>457</ele>
        <time>2021-10-07T11:33:23.998Z</time>
      </trkpt>
      <trkpt lat="43.13693" lon="-0.3806">
        <ele>461</ele>
        <time>2021-10-07T11:33:28.996Z</time>
      </trkpt>
      <trkpt lat="43.13704" lon="-0.38049">
        <ele>461</ele>
        <time>2021-10-07T11:33:33.997Z</time>
      </trkpt>
      <trkpt lat="43.13715" lon="-0.38039">
        <ele>461</ele>
        <time>2021-10-07T11:33:38.999Z</time>
      </trkpt>
      <trkpt lat="43.13724" lon="-0.38032">
        <ele>461</ele>
        <time>2021-10-07T11:33:43.992Z</time>
      </trkpt>
      <trkpt lat="43.13734" lon="-0.38028">
        <ele>461</ele>
        <time>2021-10-07T11:33:48.996Z</time>
      </trkpt>
      <trkpt lat="43.13744" lon="-0.38022">
        <ele>458</ele>
        <time>2021-10-07T11:33:53.994Z</time>
      </trkpt>
      <trkpt lat="43.13755" lon="-0.38015">
        <ele>458</ele>
        <time>2021-10-07T11:33:58.999Z</time>
      </trkpt>
      <trkpt lat="43.13766" lon="-0.38006">
        <ele>457</ele>
        <time>2021-10-07T11:34:03.993Z</time>
      </trkpt>
      <trkpt lat="43.13776" lon="-0.37996">
        <ele>457</ele>
        <time>2021-10-07T11:34:08.997Z</time>
      </trkpt>
      <trkpt lat="43.13784" lon="-0.37987">
        <ele>457</ele>
        <time>2021-10-07T11:34:13.995Z</time>
      </trkpt>
      <trkpt lat="43.13796" lon="-0.37975">
        <ele>457</ele>
        <time>2021-10-07T11:34:18.992Z</time>
      </trkpt>
      <trkpt lat="43.13803" lon="-0.37967">
        <ele>457</ele>
        <time>2021-10-07T11:34:23.994Z</time>
      </trkpt>
      <trkpt lat="43.13814" lon="-0.37956">
        <ele>462</ele>
        <time>2021-10-07T11:34:27.999Z</time>
      </trkpt>
      <trkpt lat="43.13824" lon="-0.37945">
        <ele>460</ele>
        <time>2021-10-07T11:34:32.996Z</time>
      </trkpt>
      <trkpt lat="43.13831" lon="-0.37935">
        <ele>460</ele>
        <time>2021-10-07T11:34:37.999Z</time>
      </trkpt>
      <trkpt lat="43.13838" lon="-0.37922">
        <ele>462</ele>
        <time>2021-10-07T11:34:42.999Z</time>
      </trkpt>
      <trkpt lat="43.13852" lon="-0.37921">
        <ele>462</ele>
        <time>2021-10-07T11:34:47.999Z</time>
      </trkpt>
      <trkpt lat="43.13869" lon="-0.37916">
        <ele>462</ele>
        <time>2021-10-07T11:34:52.999Z</time>
      </trkpt>
      <trkpt lat="43.13886" lon="-0.37906">
        <ele>460</ele>
        <time>2021-10-07T11:34:57.993Z</time>
      </trkpt>
      <trkpt lat="43.13901" lon="-0.37883">
        <ele>463</ele>
        <time>2021-10-07T11:35:01.997Z</time>
      </trkpt>
      <trkpt lat="43.13916" lon="-0.3786">
        <ele>461</ele>
        <time>2021-10-07T11:35:06.999Z</time>
      </trkpt>
      <trkpt lat="43.13933" lon="-0.37839">
        <ele>460</ele>
        <time>2021-10-07T11:35:11.996Z</time>
      </trkpt>
      <trkpt lat="43.13944" lon="-0.37829">
        <ele>460</ele>
        <time>2021-10-07T11:35:15.999Z</time>
      </trkpt>
      <trkpt lat="43.13966" lon="-0.37812">
        <ele>461</ele>
        <time>2021-10-07T11:35:20.999Z</time>
      </trkpt>
      <trkpt lat="43.1399" lon="-0.37796">
        <ele>462</ele>
        <time>2021-10-07T11:35:25.994Z</time>
      </trkpt>
      <trkpt lat="43.14012" lon="-0.37784">
        <ele>462</ele>
        <time>2021-10-07T11:35:30.990Z</time>
      </trkpt>
      <trkpt lat="43.14038" lon="-0.37771">
        <ele>462</ele>
        <time>2021-10-07T11:35:34.999Z</time>
      </trkpt>
      <trkpt lat="43.14065" lon="-0.37764">
        <ele>462</ele>
        <time>2021-10-07T11:35:39.999Z</time>
      </trkpt>
      <trkpt lat="43.14088" lon="-0.37764">
        <ele>461</ele>
        <time>2021-10-07T11:35:44.997Z</time>
      </trkpt>
      <trkpt lat="43.14119" lon="-0.37765">
        <ele>461</ele>
        <time>2021-10-07T11:35:50Z</time>
      </trkpt>
      <trkpt lat="43.14146" lon="-0.37761">
        <ele>460</ele>
        <time>2021-10-07T11:35:54.999Z</time>
      </trkpt>
      <trkpt lat="43.14172" lon="-0.37764">
        <ele>461</ele>
        <time>2021-10-07T11:35:59.999Z</time>
      </trkpt>
      <trkpt lat="43.1419" lon="-0.37781">
        <ele>461</ele>
        <time>2021-10-07T11:36:04.999Z</time>
      </trkpt>
      <trkpt lat="43.14211" lon="-0.37804">
        <ele>460</ele>
        <time>2021-10-07T11:36:08.999Z</time>
      </trkpt>
      <trkpt lat="43.1423" lon="-0.37823">
        <ele>458</ele>
        <time>2021-10-07T11:36:13.999Z</time>
      </trkpt>
      <trkpt lat="43.14256" lon="-0.37833">
        <ele>457</ele>
        <time>2021-10-07T11:36:18.992Z</time>
      </trkpt>
      <trkpt lat="43.14286" lon="-0.37839">
        <ele>457</ele>
        <time>2021-10-07T11:36:22.999Z</time>
      </trkpt>
      <trkpt lat="43.14309" lon="-0.3785">
        <ele>454</ele>
        <time>2021-10-07T11:36:27.999Z</time>
      </trkpt>
      <trkpt lat="43.1432" lon="-0.37848">
        <ele>455</ele>
        <time>2021-10-07T11:36:32.999Z</time>
      </trkpt>
      <trkpt lat="43.14319" lon="-0.37836">
        <ele>457</ele>
        <time>2021-10-07T11:36:37.999Z</time>
      </trkpt>
      <trkpt lat="43.14317" lon="-0.37822">
        <ele>457</ele>
        <time>2021-10-07T11:36:41.999Z</time>
      </trkpt>
      <trkpt lat="43.14315" lon="-0.37807">
        <ele>461</ele>
        <time>2021-10-07T11:36:46.992Z</time>
      </trkpt>
      <trkpt lat="43.1432" lon="-0.37794">
        <ele>460</ele>
        <time>2021-10-07T11:36:50.999Z</time>
      </trkpt>
      <trkpt lat="43.14333" lon="-0.3779">
        <ele>462</ele>
        <time>2021-10-07T11:36:54.999Z</time>
      </trkpt>
      <trkpt lat="43.14347" lon="-0.37785">
        <ele>461</ele>
        <time>2021-10-07T11:36:59.999Z</time>
      </trkpt>
      <trkpt lat="43.14363" lon="-0.3778">
        <ele>461</ele>
        <time>2021-10-07T11:37:04.999Z</time>
      </trkpt>
      <trkpt lat="43.14379" lon="-0.37777">
        <ele>463</ele>
        <time>2021-10-07T11:37:09.999Z</time>
      </trkpt>
      <trkpt lat="43.14393" lon="-0.37776">
        <ele>463</ele>
        <time>2021-10-07T11:37:14.995Z</time>
      </trkpt>
      <trkpt lat="43.14404" lon="-0.37777">
        <ele>464</ele>
        <time>2021-10-07T11:37:19.993Z</time>
      </trkpt>
      <trkpt lat="43.14418" lon="-0.37781">
        <ele>464</ele>
        <time>2021-10-07T11:37:24.999Z</time>
      </trkpt>
      <trkpt lat="43.14433" lon="-0.37789">
        <ele>465</ele>
        <time>2021-10-07T11:37:29.998Z</time>
      </trkpt>
      <trkpt lat="43.14443" lon="-0.37796">
        <ele>464</ele>
        <time>2021-10-07T11:37:34.999Z</time>
      </trkpt>
      <trkpt lat="43.14456" lon="-0.37803">
        <ele>464</ele>
        <time>2021-10-07T11:37:39.999Z</time>
      </trkpt>
      <trkpt lat="43.14467" lon="-0.37808">
        <ele>465</ele>
        <time>2021-10-07T11:37:44.999Z</time>
      </trkpt>
      <trkpt lat="43.14467" lon="-0.37808">
        <ele>465</ele>
        <time>2021-10-07T11:37:49.999Z</time>
      </trkpt>
      <trkpt lat="43.14467" lon="-0.37808">
        <ele>465</ele>
        <time>2021-10-07T11:37:54.994Z</time>
      </trkpt>
      <trkpt lat="43.14477" lon="-0.3781">
        <ele>465</ele>
        <time>2021-10-07T11:37:58.997Z</time>
      </trkpt>
      <trkpt lat="43.14488" lon="-0.37812">
        <ele>465</ele>
        <time>2021-10-07T11:38:03.998Z</time>
      </trkpt>
      <trkpt lat="43.14499" lon="-0.37815">
        <ele>465</ele>
        <time>2021-10-07T11:38:08.998Z</time>
      </trkpt>
      <trkpt lat="43.1451" lon="-0.37818">
        <ele>465</ele>
        <time>2021-10-07T11:38:12.999Z</time>
      </trkpt>
      <trkpt lat="43.14521" lon="-0.3782">
        <ele>465</ele>
        <time>2021-10-07T11:38:17.999Z</time>
      </trkpt>
      <trkpt lat="43.14531" lon="-0.37822">
        <ele>465</ele>
        <time>2021-10-07T11:38:40.999Z</time>
      </trkpt>
      <trkpt lat="43.14543" lon="-0.37825">
        <ele>467</ele>
        <time>2021-10-07T11:38:45.995Z</time>
      </trkpt>
      <trkpt lat="43.14555" lon="-0.37827">
        <ele>467</ele>
        <time>2021-10-07T11:38:49.997Z</time>
      </trkpt>
      <trkpt lat="43.14566" lon="-0.37828">
        <ele>467</ele>
        <time>2021-10-07T11:38:54.999Z</time>
      </trkpt>
      <trkpt lat="43.14577" lon="-0.3783">
        <ele>467</ele>
        <time>2021-10-07T11:38:59.999Z</time>
      </trkpt>
      <trkpt lat="43.14589" lon="-0.37831">
        <ele>467</ele>
        <time>2021-10-07T11:39:04.999Z</time>
      </trkpt>
      <trkpt lat="43.146" lon="-0.37831">
        <ele>466</ele>
        <time>2021-10-07T11:39:09.998Z</time>
      </trkpt>
      <trkpt lat="43.14613" lon="-0.37832">
        <ele>466</ele>
        <time>2021-10-07T11:39:15Z</time>
      </trkpt>
      <trkpt lat="43.14626" lon="-0.37833">
        <ele>464</ele>
        <time>2021-10-07T11:39:18.998Z</time>
      </trkpt>
      <trkpt lat="43.14642" lon="-0.37834">
        <ele>464</ele>
        <time>2021-10-07T11:39:23.995Z</time>
      </trkpt>
      <trkpt lat="43.14657" lon="-0.37835">
        <ele>458</ele>
        <time>2021-10-07T11:39:28.999Z</time>
      </trkpt>
      <trkpt lat="43.14667" lon="-0.37836">
        <ele>458</ele>
        <time>2021-10-07T11:39:33.999Z</time>
      </trkpt>
      <trkpt lat="43.14677" lon="-0.37835">
        <ele>458</ele>
        <time>2021-10-07T11:39:38.999Z</time>
      </trkpt>
      <trkpt lat="43.14686" lon="-0.37845">
        <ele>454</ele>
        <time>2021-10-07T11:39:43.998Z</time>
      </trkpt>
      <trkpt lat="43.1469" lon="-0.37868">
        <ele>450</ele>
        <time>2021-10-07T11:39:47.999Z</time>
      </trkpt>
      <trkpt lat="43.14697" lon="-0.37892">
        <ele>447</ele>
        <time>2021-10-07T11:39:52.997Z</time>
      </trkpt>
      <trkpt lat="43.14706" lon="-0.37909">
        <ele>446</ele>
        <time>2021-10-07T11:39:56.999Z</time>
      </trkpt>
      <trkpt lat="43.14719" lon="-0.37931">
        <ele>441</ele>
        <time>2021-10-07T11:40:01.999Z</time>
      </trkpt>
      <trkpt lat="43.14733" lon="-0.37948">
        <ele>441</ele>
        <time>2021-10-07T11:40:06.999Z</time>
      </trkpt>
      <trkpt lat="43.14744" lon="-0.37963">
        <ele>437</ele>
        <time>2021-10-07T11:40:12Z</time>
      </trkpt>
      <trkpt lat="43.14758" lon="-0.37985">
        <ele>437</ele>
        <time>2021-10-07T11:40:16.999Z</time>
      </trkpt>
      <trkpt lat="43.14767" lon="-0.38014">
        <ele>431</ele>
        <time>2021-10-07T11:40:21.996Z</time>
      </trkpt>
      <trkpt lat="43.14773" lon="-0.38042">
        <ele>431</ele>
        <time>2021-10-07T11:40:26.992Z</time>
      </trkpt>
      <trkpt lat="43.14775" lon="-0.38062">
        <ele>428</ele>
        <time>2021-10-07T11:40:31.999Z</time>
      </trkpt>
      <trkpt lat="43.14785" lon="-0.38095">
        <ele>425</ele>
        <time>2021-10-07T11:40:35.999Z</time>
      </trkpt>
      <trkpt lat="43.14792" lon="-0.38133">
        <ele>422</ele>
        <time>2021-10-07T11:40:40.999Z</time>
      </trkpt>
      <trkpt lat="43.148" lon="-0.38168">
        <ele>419</ele>
        <time>2021-10-07T11:40:45.999Z</time>
      </trkpt>
      <trkpt lat="43.14807" lon="-0.38202">
        <ele>416</ele>
        <time>2021-10-07T11:40:49.999Z</time>
      </trkpt>
      <trkpt lat="43.14817" lon="-0.3825">
        <ele>417</ele>
        <time>2021-10-07T11:40:54.999Z</time>
      </trkpt>
      <trkpt lat="43.14822" lon="-0.38298">
        <ele>418</ele>
        <time>2021-10-07T11:40:59.999Z</time>
      </trkpt>
      <trkpt lat="43.14829" lon="-0.38349">
        <ele>414</ele>
        <time>2021-10-07T11:41:04.998Z</time>
      </trkpt>
      <trkpt lat="43.14841" lon="-0.38397">
        <ele>413</ele>
        <time>2021-10-07T11:41:08.999Z</time>
      </trkpt>
      <trkpt lat="43.14857" lon="-0.38429">
        <ele>410</ele>
        <time>2021-10-07T11:41:13.999Z</time>
      </trkpt>
      <trkpt lat="43.14865" lon="-0.38444">
        <ele>409</ele>
        <time>2021-10-07T11:41:18.999Z</time>
      </trkpt>
      <trkpt lat="43.1487" lon="-0.38452">
        <ele>409</ele>
        <time>2021-10-07T11:41:23.991Z</time>
      </trkpt>
      <trkpt lat="43.14879" lon="-0.38463">
        <ele>405</ele>
        <time>2021-10-07T11:41:27.999Z</time>
      </trkpt>
      <trkpt lat="43.14895" lon="-0.38486">
        <ele>404</ele>
        <time>2021-10-07T11:41:32.994Z</time>
      </trkpt>
      <trkpt lat="43.14914" lon="-0.3852">
        <ele>403</ele>
        <time>2021-10-07T11:41:38Z</time>
      </trkpt>
      <trkpt lat="43.14936" lon="-0.38557">
        <ele>402</ele>
        <time>2021-10-07T11:41:42.995Z</time>
      </trkpt>
      <trkpt lat="43.14957" lon="-0.38577">
        <ele>401</ele>
        <time>2021-10-07T11:41:47.994Z</time>
      </trkpt>
      <trkpt lat="43.14991" lon="-0.38603">
        <ele>391</ele>
        <time>2021-10-07T11:41:51.999Z</time>
      </trkpt>
      <trkpt lat="43.15024" lon="-0.38622">
        <ele>387</ele>
        <time>2021-10-07T11:41:56.999Z</time>
      </trkpt>
      <trkpt lat="43.15063" lon="-0.38621">
        <ele>386</ele>
        <time>2021-10-07T11:42:01.999Z</time>
      </trkpt>
      <trkpt lat="43.15098" lon="-0.38622">
        <ele>381</ele>
        <time>2021-10-07T11:42:06.999Z</time>
      </trkpt>
      <trkpt lat="43.15132" lon="-0.38641">
        <ele>378</ele>
        <time>2021-10-07T11:42:11.999Z</time>
      </trkpt>
      <trkpt lat="43.15152" lon="-0.38673">
        <ele>378</ele>
        <time>2021-10-07T11:42:16.997Z</time>
      </trkpt>
      <trkpt lat="43.1518" lon="-0.38704">
        <ele>376</ele>
        <time>2021-10-07T11:42:21.996Z</time>
      </trkpt>
      <trkpt lat="43.15204" lon="-0.38726">
        <ele>373</ele>
        <time>2021-10-07T11:42:26Z</time>
      </trkpt>
      <trkpt lat="43.15233" lon="-0.38752">
        <ele>373</ele>
        <time>2021-10-07T11:42:30.999Z</time>
      </trkpt>
      <trkpt lat="43.15253" lon="-0.38771">
        <ele>372</ele>
        <time>2021-10-07T11:42:35.999Z</time>
      </trkpt>
      <trkpt lat="43.15275" lon="-0.38789">
        <ele>373</ele>
        <time>2021-10-07T11:42:40.995Z</time>
      </trkpt>
      <trkpt lat="43.15304" lon="-0.388">
        <ele>375</ele>
        <time>2021-10-07T11:42:44.999Z</time>
      </trkpt>
      <trkpt lat="43.15334" lon="-0.38793">
        <ele>376</ele>
        <time>2021-10-07T11:42:49.999Z</time>
      </trkpt>
      <trkpt lat="43.15349" lon="-0.38791">
        <ele>376</ele>
        <time>2021-10-07T11:42:54.991Z</time>
      </trkpt>
      <trkpt lat="43.15347" lon="-0.38794">
        <ele>376</ele>
        <time>2021-10-07T11:42:59.994Z</time>
      </trkpt>
      <trkpt lat="43.15333" lon="-0.38795">
        <ele>376</ele>
        <time>2021-10-07T11:43:03.999Z</time>
      </trkpt>
      <trkpt lat="43.15321" lon="-0.38804">
        <ele>376</ele>
        <time>2021-10-07T11:43:08.996Z</time>
      </trkpt>
      <trkpt lat="43.15335" lon="-0.38829">
        <ele>375</ele>
        <time>2021-10-07T11:43:12.999Z</time>
      </trkpt>
      <trkpt lat="43.15352" lon="-0.38851">
        <ele>374</ele>
        <time>2021-10-07T11:43:17.999Z</time>
      </trkpt>
      <trkpt lat="43.15367" lon="-0.38871">
        <ele>374</ele>
        <time>2021-10-07T11:43:22.996Z</time>
      </trkpt>
      <trkpt lat="43.15382" lon="-0.38899">
        <ele>371</ele>
        <time>2021-10-07T11:43:27.992Z</time>
      </trkpt>
      <trkpt lat="43.15393" lon="-0.38936">
        <ele>372</ele>
        <time>2021-10-07T11:43:32.999Z</time>
      </trkpt>
      <trkpt lat="43.15403" lon="-0.38976">
        <ele>370</ele>
        <time>2021-10-07T11:43:37.998Z</time>
      </trkpt>
      <trkpt lat="43.15411" lon="-0.39008">
        <ele>369</ele>
        <time>2021-10-07T11:43:41.997Z</time>
      </trkpt>
      <trkpt lat="43.15416" lon="-0.3905">
        <ele>369</ele>
        <time>2021-10-07T11:43:46.999Z</time>
      </trkpt>
      <trkpt lat="43.15424" lon="-0.39098">
        <ele>365</ele>
        <time>2021-10-07T11:43:51.998Z</time>
      </trkpt>
      <trkpt lat="43.15431" lon="-0.39134">
        <ele>362</ele>
        <time>2021-10-07T11:43:56.999Z</time>
      </trkpt>
      <trkpt lat="43.15442" lon="-0.39167">
        <ele>360</ele>
        <time>2021-10-07T11:44:00.999Z</time>
      </trkpt>
      <trkpt lat="43.15457" lon="-0.39202">
        <ele>359</ele>
        <time>2021-10-07T11:44:05.999Z</time>
      </trkpt>
      <trkpt lat="43.15471" lon="-0.39238">
        <ele>351</ele>
        <time>2021-10-07T11:44:10.998Z</time>
      </trkpt>
      <trkpt lat="43.15486" lon="-0.39276">
        <ele>348</ele>
        <time>2021-10-07T11:44:15.999Z</time>
      </trkpt>
      <trkpt lat="43.15503" lon="-0.39312">
        <ele>348</ele>
        <time>2021-10-07T11:44:19.999Z</time>
      </trkpt>
      <trkpt lat="43.15515" lon="-0.39359">
        <ele>343</ele>
        <time>2021-10-07T11:44:24.999Z</time>
      </trkpt>
      <trkpt lat="43.15532" lon="-0.39394">
        <ele>341</ele>
        <time>2021-10-07T11:44:30Z</time>
      </trkpt>
      <trkpt lat="43.15545" lon="-0.3942">
        <ele>340</ele>
        <time>2021-10-07T11:44:34.999Z</time>
      </trkpt>
      <trkpt lat="43.15564" lon="-0.39446">
        <ele>337</ele>
        <time>2021-10-07T11:44:39.999Z</time>
      </trkpt>
      <trkpt lat="43.15582" lon="-0.39474">
        <ele>333</ele>
        <time>2021-10-07T11:44:44.999Z</time>
      </trkpt>
      <trkpt lat="43.15599" lon="-0.39501">
        <ele>328</ele>
        <time>2021-10-07T11:44:49.993Z</time>
      </trkpt>
      <trkpt lat="43.15613" lon="-0.39517">
        <ele>326</ele>
        <time>2021-10-07T11:44:54.999Z</time>
      </trkpt>
      <trkpt lat="43.15629" lon="-0.39534">
        <ele>324</ele>
        <time>2021-10-07T11:44:59.999Z</time>
      </trkpt>
      <trkpt lat="43.15653" lon="-0.39551">
        <ele>319</ele>
        <time>2021-10-07T11:45:04.999Z</time>
      </trkpt>
      <trkpt lat="43.15665" lon="-0.3955">
        <ele>319</ele>
        <time>2021-10-07T11:45:09.999Z</time>
      </trkpt>
      <trkpt lat="43.15677" lon="-0.39555">
        <ele>319</ele>
        <time>2021-10-07T11:45:13.999Z</time>
      </trkpt>
      <trkpt lat="43.15688" lon="-0.39576">
        <ele>316</ele>
        <time>2021-10-07T11:45:19Z</time>
      </trkpt>
      <trkpt lat="43.15689" lon="-0.39606">
        <ele>314</ele>
        <time>2021-10-07T11:45:23.999Z</time>
      </trkpt>
      <trkpt lat="43.1571" lon="-0.39623">
        <ele>309</ele>
        <time>2021-10-07T11:45:28.998Z</time>
      </trkpt>
      <trkpt lat="43.15731" lon="-0.39636">
        <ele>307</ele>
        <time>2021-10-07T11:45:34Z</time>
      </trkpt>
      <trkpt lat="43.15754" lon="-0.39653">
        <ele>304</ele>
        <time>2021-10-07T11:45:38.996Z</time>
      </trkpt>
      <trkpt lat="43.15778" lon="-0.39668">
        <ele>303</ele>
        <time>2021-10-07T11:45:43.989Z</time>
      </trkpt>
      <trkpt lat="43.15804" lon="-0.39687">
        <ele>300</ele>
        <time>2021-10-07T11:45:47.997Z</time>
      </trkpt>
      <trkpt lat="43.15826" lon="-0.39685">
        <ele>300</ele>
        <time>2021-10-07T11:45:52.989Z</time>
      </trkpt>
      <trkpt lat="43.15858" lon="-0.39678">
        <ele>298</ele>
        <time>2021-10-07T11:45:56.999Z</time>
      </trkpt>
      <trkpt lat="43.15878" lon="-0.39673">
        <ele>295</ele>
        <time>2021-10-07T11:46:01.999Z</time>
      </trkpt>
      <trkpt lat="43.15881" lon="-0.39684">
        <ele>295</ele>
        <time>2021-10-07T11:46:06.994Z</time>
      </trkpt>
      <trkpt lat="43.15872" lon="-0.39699">
        <ele>298</ele>
        <time>2021-10-07T11:46:10.999Z</time>
      </trkpt>
      <trkpt lat="43.15861" lon="-0.39721">
        <ele>297</ele>
        <time>2021-10-07T11:46:15.999Z</time>
      </trkpt>
      <trkpt lat="43.15854" lon="-0.39737">
        <ele>296</ele>
        <time>2021-10-07T11:46:20.999Z</time>
      </trkpt>
      <trkpt lat="43.15843" lon="-0.39766">
        <ele>296</ele>
        <time>2021-10-07T11:46:25.999Z</time>
      </trkpt>
      <trkpt lat="43.15835" lon="-0.39793">
        <ele>295</ele>
        <time>2021-10-07T11:46:30.999Z</time>
      </trkpt>
      <trkpt lat="43.15838" lon="-0.3981">
        <ele>295</ele>
        <time>2021-10-07T11:46:35.996Z</time>
      </trkpt>
      <trkpt lat="43.15843" lon="-0.39817">
        <ele>295</ele>
        <time>2021-10-07T11:46:40.999Z</time>
      </trkpt>
      <trkpt lat="43.15858" lon="-0.39808">
        <ele>293</ele>
        <time>2021-10-07T11:46:45.996Z</time>
      </trkpt>
      <trkpt lat="43.15881" lon="-0.39792">
        <ele>293</ele>
        <time>2021-10-07T11:46:49.999Z</time>
      </trkpt>
      <trkpt lat="43.15903" lon="-0.39774">
        <ele>292</ele>
        <time>2021-10-07T11:46:54.999Z</time>
      </trkpt>
      <trkpt lat="43.15921" lon="-0.39757">
        <ele>292</ele>
        <time>2021-10-07T11:46:59.999Z</time>
      </trkpt>
      <trkpt lat="43.15941" lon="-0.39733">
        <ele>291</ele>
        <time>2021-10-07T11:47:04.997Z</time>
      </trkpt>
      <trkpt lat="43.15958" lon="-0.39708">
        <ele>291</ele>
        <time>2021-10-07T11:47:09.982Z</time>
      </trkpt>
      <trkpt lat="43.15972" lon="-0.39685">
        <ele>291</ele>
        <time>2021-10-07T11:47:13.999Z</time>
      </trkpt>
      <trkpt lat="43.15987" lon="-0.39664">
        <ele>291</ele>
        <time>2021-10-07T11:47:18.997Z</time>
      </trkpt>
      <trkpt lat="43.15983" lon="-0.39647">
        <ele>293</ele>
        <time>2021-10-07T11:47:23.996Z</time>
      </trkpt>
      <trkpt lat="43.15995" lon="-0.39636">
        <ele>292</ele>
        <time>2021-10-07T11:47:28.999Z</time>
      </trkpt>
    </trkseg>
  </trk>
</gpx>